[[{"header":{"parameterUnit":"m.s-1","parameterCategory":1,"la1":30.6,"la2":29.2853,"lo1":-89.7004,"lo2":-87.6739,"dy":0.0162,"dx":0.0183,"nx":112,"ny":82,"refTime":"2023-05-02T18:00:00:Z","depth":0,"parameterNumber":2,"parameterNumberName":"U-component_of_WINDS"},"data":[0.0,0.0,0.0,0.0,0.0,0.0,0.0,0.0,0.0,0.0,0.0,0.0,0.0,0.0,0.0,0.0,0.0,0.0,0.0,0.0,0.0,0.0,0.0,0.0,0.0,0.0,0.0,0.0,0.0,0.0,0.0,0.0,0.0,0.0,0.0,0.0,0.0,0.0,0.0,0.0,0.0,0.0,0.0,0.0,0.0,0.0,0.0,0.0,0.0,0.0,0.0,0.0,0.0,0.0,0.0,0.0,0.0,0.0,0.0,0.0,0.0,0.0,0.0,0.0,0.0,0.0,0.0,0.0,0.0,0.0,0.0,0.0,0.0,0.0,0.0,0.0,0.0,0.0,0.0,0.0,0.0,0.0,0.0,0.0,0.0,0.0,0.0,0.0,0.0,0.0,-0.9119,-0.8802,-0.7451,-0.6334,-0.5705,-0.4921,-0.4564,-0.4794,0.0,0.0,0.0,0.0,0.0,0.0,0.0,0.0,0.0,0.0,0.0,0.0,0.0,0.0,0.0,0.0,0.0,0.0,0.0,0.0,0.0,0.0,0.0,0.0,0.0,0.0,0.0,0.0,0.0,0.0,0.0,0.0,0.0,0.0,0.0,0.0,0.0,0.0,0.0,0.0,0.0,0.0,0.0,0.0,0.0,0.0,0.0,0.0,0.0,0.0,0.0,0.0,0.0,0.0,0.0,0.0,0.0,0.0,0.0,0.0,0.0,0.0,0.0,0.0,0.0,0.0,0.0,0.0,0.0,0.0,0.0,0.0,0.0,0.0,0.0,0.0,0.0,0.0,0.0,0.0,0.0,0.0,0.0,0.0,0.0,0.0,0.0,0.0,0.0,0.0,0.0,0.0,0.0,0.0,0.0,0.0,0.0,0.0,0.0,0.0,0.0,0.0,0.0,0.0,-0.8926,-0.8576,-0.7819,-0.7293,-0.719,-0.5939,-0.5675,-0.6933,0.0,0.0,0.0,0.0,0.0,0.0,0.0,0.0,0.0,0.0,0.0,0.0,0.0,0.0,0.0,0.0,0.0,0.0,0.0,0.0,0.0,0.0,0.0,0.0,0.0,0.0,0.0,0.0,0.0,0.0,0.0,0.0,0.0,0.0,0.0,0.0,0.0,0.0,0.0,0.0,0.0,0.0,0.0,0.0,0.0,0.0,0.0,0.0,0.0,0.0,0.0,0.0,0.0,0.0,0.0,0.0,0.0,0.0,0.0,0.0,0.0,0.0,0.0,0.0,0.0,0.0,0.0,0.0,0.0,0.0,0.0,0.0,0.0,0.0,0.0,0.0,0.0,0.0,0.0,0.0,0.0,0.0,0.0,0.0,0.0,0.0,0.0,0.0,0.0,0.0,0.0,0.0,0.0,0.0,0.0,0.0,0.0,0.0,0.0,0.0,0.0,0.0,0.0,-0.8894,-0.8673,-0.8511,-0.7884,-0.7489,-0.7489,-0.6133,-0.5771,-0.6826,-0.6264,0.0,0.0,0.0,0.0,0.0,0.0,0.0,0.0,0.0,0.0,0.0,0.0,0.0,0.0,0.0,0.0,0.0,0.0,0.0,0.0,0.0,0.0,0.0,0.0,0.0,0.0,0.0,0.0,0.0,0.0,0.0,0.0,0.0,0.0,0.0,0.0,0.0,0.0,0.0,0.0,0.0,0.0,0.0,0.0,0.0,0.0,0.0,0.0,0.0,0.0,0.0,0.0,0.0,0.0,0.0,0.0,0.0,0.0,0.0,0.0,0.0,0.0,0.0,0.0,0.0,0.0,0.0,0.0,0.0,0.0,0.0,0.0,0.0,0.0,0.0,0.0,0.0,0.0,0.0,0.0,0.0,0.0,0.0,0.0,0.0,0.0,0.0,0.0,0.0,0.0,0.0,0.0,0.0,0.0,0.0,0.0,0.0,0.0,0.0,0.0,0.0,0.0,-0.8705,-0.8582,-0.8582,-0.8084,-0.7722,-0.7722,-0.6564,-0.6133,-0.6859,-0.6761,0.0,0.0,0.0,0.0,0.0,0.0,0.0,0.0,0.0,0.0,0.0,0.0,0.0,0.0,0.0,0.0,0.0,0.0,0.0,0.0,0.0,0.0,0.0,0.0,0.0,0.0,0.0,0.0,0.0,0.0,0.0,0.0,0.0,0.0,0.0,0.0,0.0,0.0,0.0,0.0,0.0,0.0,0.0,0.0,0.0,0.0,0.0,0.0,0.0,0.0,0.0,0.0,0.0,0.0,0.0,0.0,0.0,0.0,0.0,0.0,0.0,0.0,0.0,0.0,0.0,0.0,0.0,0.0,0.0,0.0,0.0,0.0,0.0,0.0,0.0,0.0,0.0,0.0,0.0,0.0,0.0,0.0,0.0,0.0,0.0,0.0,0.0,0.0,0.0,0.0,0.0,0.0,0.0,0.0,0.0,0.0,0.0,0.0,0.0,0.0,0.0,0.0,-0.899,-0.877,-0.877,-0.8576,-0.8414,-0.8414,-0.7754,-0.7624,-0.8317,-0.7754,0.0,0.0,0.0,0.0,0.0,0.0,0.0,0.0,0.0,0.0,0.0,0.0,0.0,0.0,0.0,0.0,0.0,0.0,0.0,0.0,0.0,0.0,0.0,0.0,0.0,0.0,0.0,0.0,0.0,0.0,0.0,0.0,0.0,0.0,0.0,0.0,0.0,0.0,0.0,0.0,0.0,0.0,0.0,0.0,0.0,0.0,0.0,0.0,0.0,0.0,0.0,0.0,0.0,0.0,0.0,0.0,0.0,0.0,0.0,0.0,0.0,0.0,0.0,0.0,0.0,0.0,0.0,0.0,0.0,0.0,0.0,0.0,0.0,0.0,0.0,0.0,0.0,0.0,0.0,0.0,0.0,0.0,0.0,0.0,0.0,0.0,0.0,0.0,0.0,0.0,0.0,0.0,0.0,0.0,0.0,0.0,0.0,0.0,0.0,0.0,0.0,0.0,-0.9081,-0.8894,0.0,-0.8738,-0.8641,-0.8517,-0.7884,-0.7787,-0.8452,0.0,0.0,0.0,0.0,0.0,0.0,0.0,0.0,0.0,0.0,0.0,0.0,0.0,0.0,0.0,0.0,0.0,0.0,0.0,0.0,0.0,0.0,0.0,0.0,0.0,0.0,0.0,0.0,0.0,0.0,0.0,0.0,0.0,0.0,0.0,0.0,0.0,0.0,0.0,0.0,0.0,0.0,0.0,0.0,0.0,0.0,0.0,0.0,0.0,0.0,0.0,0.0,0.0,0.0,0.0,0.0,0.0,0.0,0.0,0.0,0.0,0.0,0.0,0.0,0.0,0.0,0.0,0.0,0.0,0.0,0.0,0.0,0.0,0.0,0.0,0.0,0.0,0.0,0.0,0.0,0.0,0.0,0.0,0.0,0.0,0.0,0.0,0.0,0.0,0.0,0.0,0.0,0.0,0.0,0.0,0.0,0.0,0.0,0.0,0.0,0.0,0.0,-0.9376,-0.921,-0.9049,0.0,-0.8835,-0.8738,-0.8608,-0.7917,-0.7819,-0.8544,0.0,0.0,0.0,0.0,0.0,0.0,0.0,0.0,0.0,0.0,0.0,0.0,0.0,0.0,0.0,0.0,0.0,0.0,0.0,0.0,0.0,0.0,0.0,0.0,0.0,0.0,0.0,0.0,0.0,0.0,0.0,0.0,0.0,0.0,0.0,0.0,0.0,0.0,0.0,0.0,0.0,0.0,0.0,0.0,0.0,0.0,0.0,0.0,0.0,0.0,0.0,0.0,0.0,0.0,0.0,0.0,0.0,0.0,0.0,0.0,0.0,0.0,0.0,0.0,0.0,0.0,0.0,0.0,0.0,0.0,0.0,0.0,0.0,0.0,0.0,0.0,0.0,0.0,0.0,0.0,0.0,0.0,0.0,0.0,0.0,0.0,0.0,0.0,0.0,0.0,0.0,0.0,0.0,0.0,0.0,0.0,0.0,0.0,0.0,0.0,0.0,0.0,-0.9516,-0.9382,-0.9247,-0.9028,-0.8905,-0.8813,-0.8813,-0.8025,-0.7889,0.0,0.0,0.0,0.0,0.0,0.0,0.0,0.0,0.0,0.0,0.0,0.0,0.0,0.0,0.0,0.0,0.0,0.0,0.0,0.0,0.0,0.0,0.0,0.0,0.0,0.0,0.0,0.0,0.0,0.0,0.0,0.0,0.0,0.0,0.0,0.0,0.0,0.0,0.0,0.0,0.0,0.0,0.0,0.0,0.0,0.0,0.0,0.0,0.0,0.0,0.0,0.0,0.0,0.0,0.0,0.0,0.0,0.0,0.0,0.0,0.0,0.0,0.0,0.0,0.0,0.0,0.0,0.0,0.0,0.0,0.0,0.0,0.0,0.0,0.0,0.0,0.0,0.0,0.0,0.0,0.0,0.0,0.0,0.0,0.0,0.0,0.0,0.0,0.0,0.0,0.0,0.0,0.0,0.0,0.0,0.0,0.0,0.0,0.0,0.0,0.0,0.0,0.0,-0.9793,-0.9916,-0.9962,-0.9798,-0.973,-0.9661,-0.9531,-0.9286,-0.9183,-0.9291,0.0,0.0,0.0,0.0,0.0,0.0,0.0,0.0,0.0,0.0,0.0,0.0,0.0,0.0,0.0,0.0,0.0,0.0,0.0,0.0,0.0,0.0,0.0,0.0,0.0,0.0,0.0,0.0,0.0,0.0,0.0,0.0,0.0,0.0,0.0,0.0,0.0,0.0,0.0,0.0,0.0,0.0,0.0,0.0,0.0,0.0,0.0,0.0,0.0,0.0,0.0,0.0,0.0,0.0,0.0,0.0,0.0,0.0,0.0,0.0,0.0,0.0,0.0,0.0,0.0,0.0,0.0,0.0,0.0,0.0,0.0,0.0,0.0,0.0,0.0,0.0,0.0,0.0,0.0,0.0,0.0,0.0,0.0,0.0,0.0,0.0,0.0,0.0,0.0,0.0,0.0,0.0,0.0,0.0,0.0,0.0,0.0,0.0,0.0,0.0,0.0,0.0,-1.0063,-1.0196,-1.0263,-1.0095,-1.0095,-1.0061,-0.9927,-0.9602,-0.9462,-0.9613,0.0,0.0,0.0,0.0,0.0,0.0,0.0,0.0,0.0,0.0,0.0,0.0,0.0,0.0,0.0,0.0,0.0,0.0,0.0,0.0,0.0,0.0,0.0,0.0,0.0,0.0,0.0,0.0,0.0,0.0,0.0,0.0,0.0,0.0,0.0,0.0,0.0,0.0,0.0,0.0,0.0,0.0,0.0,0.0,0.0,0.0,0.0,0.0,0.0,0.0,0.0,0.0,0.0,0.0,0.0,0.0,0.0,0.0,0.0,0.0,0.0,0.0,0.0,0.0,0.0,0.0,0.0,0.0,0.0,0.0,0.0,0.0,0.0,0.0,0.0,0.0,0.0,0.0,0.0,0.0,0.0,0.0,0.0,0.0,0.0,0.0,0.0,0.0,0.0,0.0,0.0,0.0,0.0,0.0,0.0,0.0,0.0,0.0,0.0,0.0,0.0,0.0,-1.0363,-1.0352,-1.0335,-1.0201,-1.0201,-1.0201,-1.0201,-0.9452,-0.9241,-0.9815,0.0,0.0,0.0,0.0,0.0,0.0,0.0,0.0,0.0,0.0,0.0,0.0,0.0,0.0,0.0,0.0,0.0,0.0,0.0,0.0,0.0,0.0,0.0,0.0,0.0,0.0,0.0,0.0,0.0,0.0,0.0,0.0,0.0,0.0,0.0,0.0,0.0,0.0,0.0,0.0,0.0,0.0,0.0,0.0,0.0,0.0,0.0,0.0,0.0,0.0,0.0,0.0,0.0,0.0,0.0,0.0,0.0,0.0,0.0,0.0,-1.527,0.0,0.0,0.0,0.0,0.0,0.0,0.0,0.0,0.0,0.0,0.0,0.0,0.0,0.0,0.0,0.0,0.0,0.0,0.0,0.0,0.0,0.0,0.0,0.0,0.0,0.0,0.0,0.0,0.0,0.0,0.0,0.0,0.0,0.0,0.0,0.0,0.0,0.0,0.0,0.0,0.0,-1.0635,-1.0816,-1.0906,-1.0875,-1.0875,-1.0875,-1.0875,-1.0574,-1.0353,-1.0359,-1.0025,0.0,0.0,0.0,0.0,0.0,0.0,0.0,0.0,0.0,0.0,0.0,0.0,0.0,0.0,0.0,0.0,0.0,0.0,0.0,0.0,0.0,0.0,0.0,0.0,0.0,0.0,0.0,0.0,0.0,0.0,0.0,0.0,0.0,0.0,0.0,0.0,0.0,0.0,0.0,0.0,0.0,0.0,0.0,0.0,0.0,0.0,0.0,0.0,0.0,0.0,0.0,0.0,0.0,0.0,0.0,0.0,0.0,0.0,0.0,0.0,-1.5503,0.0,0.0,0.0,0.0,0.0,0.0,0.0,0.0,0.0,0.0,0.0,0.0,0.0,0.0,0.0,0.0,0.0,0.0,0.0,0.0,0.0,0.0,0.0,0.0,0.0,0.0,0.0,0.0,0.0,0.0,0.0,0.0,0.0,0.0,0.0,0.0,0.0,0.0,0.0,0.0,-1.0906,-1.1101,-1.1223,-1.1111,-1.0999,-1.0962,-1.0962,-1.0775,-1.0556,-1.0368,-1.0255,0.0,0.0,0.0,0.0,0.0,0.0,0.0,0.0,0.0,0.0,0.0,0.0,0.0,0.0,0.0,0.0,0.0,0.0,0.0,0.0,0.0,0.0,0.0,0.0,0.0,0.0,0.0,0.0,0.0,0.0,0.0,0.0,0.0,0.0,0.0,0.0,0.0,0.0,0.0,0.0,0.0,0.0,0.0,0.0,0.0,0.0,0.0,0.0,0.0,0.0,0.0,0.0,0.0,-1.5296,-1.5512,-1.6006,-1.6113,-1.6302,-1.6558,-1.6377,-1.6252,-1.6103,-1.5551,0.0,0.0,0.0,0.0,0.0,0.0,0.0,0.0,0.0,0.0,0.0,0.0,0.0,0.0,0.0,0.0,0.0,0.0,0.0,0.0,0.0,0.0,-1.1634,-1.1259,-1.1452,-1.1628,-1.1217,0.0,0.0,0.0,0.0,0.0,0.0,0.0,0.0,0.0,0.0,0.0,-1.1149,-1.1223,-1.1298,-1.1111,-1.0962,-1.085,-1.0812,-1.0625,-1.0406,-1.0218,-1.018,-1.0067,0.0,0.0,0.0,0.0,0.0,0.0,0.0,0.0,0.0,0.0,0.0,0.0,0.0,0.0,0.0,0.0,0.0,0.0,0.0,0.0,0.0,0.0,0.0,0.0,0.0,0.0,0.0,0.0,0.0,0.0,0.0,0.0,-1.8057,-1.7991,0.0,0.0,0.0,0.0,0.0,0.0,0.0,0.0,0.0,0.0,0.0,0.0,0.0,-1.8059,-1.7538,-1.7376,-1.7051,-1.6568,-1.6103,-1.5918,-1.6015,-1.6543,-1.6812,-1.6864,-1.7298,0.0,-1.5984,-1.6449,0.0,0.0,0.0,0.0,0.0,0.0,0.0,0.0,0.0,0.0,0.0,0.0,0.0,0.0,0.0,0.0,0.0,0.0,0.0,0.0,0.0,0.0,-1.2195,-1.2125,-1.2181,-1.2195,-1.2125,-1.1472,-1.0956,-1.1162,-1.12,-1.1283,0.0,0.0,0.0,0.0,0.0,0.0,-1.1111,-1.1111,-1.1149,-1.1111,-1.1074,-1.0999,-1.0812,-1.0625,-1.0406,-1.0218,-1.003,-0.9922,-0.9922,-0.9468,0.0,0.0,0.0,0.0,0.0,0.0,0.0,0.0,0.0,0.0,0.0,0.0,0.0,0.0,0.0,0.0,0.0,0.0,0.0,0.0,0.0,0.0,0.0,0.0,0.0,0.0,0.0,0.0,0.0,-1.8084,-1.8084,-1.8084,-1.8084,-1.8084,0.0,0.0,0.0,0.0,0.0,0.0,0.0,0.0,0.0,-1.8438,-1.7973,-1.76,-1.7337,-1.6811,-1.6571,-1.6529,-1.6276,-1.6407,-1.6864,-1.712,-1.734,-1.7543,-1.7784,-1.771,-1.742,-1.7373,-1.7044,-1.6629,0.0,0.0,0.0,0.0,-1.6682,-1.6777,-1.5428,-1.5267,-1.5523,-1.4652,0.0,0.0,0.0,0.0,0.0,0.0,0.0,-1.2886,-1.2409,-1.2305,-1.2305,-1.2305,-1.2305,-1.2305,-1.2305,-1.1989,-1.1706,-1.1685,-1.1601,-1.153,-1.1539,0.0,0.0,0.0,0.0,-1.1409,-1.1298,-1.126,-1.1223,-1.1111,-1.0999,-1.0887,-1.0812,-1.0625,-1.0475,-1.0368,-1.0293,-1.018,-1.0067,-0.9884,-0.9846,0.0,0.0,0.0,0.0,0.0,0.0,0.0,0.0,0.0,0.0,0.0,0.0,0.0,0.0,0.0,0.0,0.0,0.0,0.0,0.0,0.0,0.0,0.0,0.0,0.0,0.0,0.0,0.0,-1.8084,-1.8084,-1.8084,-1.8084,-1.8084,0.0,0.0,0.0,0.0,0.0,0.0,-1.908,-1.8688,-1.8611,-1.8955,-1.8142,-1.7718,-1.7718,-1.7263,-1.7212,-1.7532,-1.7514,-1.7779,-1.8191,-1.8226,-1.8295,-1.834,-1.834,-1.8516,-1.8734,-1.8157,-1.7971,-1.8008,-1.7922,-1.7897,-1.7862,-1.7668,-1.7633,-1.7607,-1.6945,-1.6641,-1.6487,-1.6014,-1.5484,-1.4964,-1.4937,0.0,0.0,0.0,0.0,-1.2726,-1.2576,-1.2532,-1.2532,-1.2532,-1.2472,-1.2418,-1.2418,-1.2321,-1.2194,-1.2114,-1.1966,-1.1818,-1.1669,0.0,0.0,0.0,0.0,-1.1632,-1.1484,-1.1446,-1.1335,-1.1186,-1.0999,-1.085,-1.0812,-1.0663,-1.055,-1.0513,-1.0513,-1.0406,-1.0218,-1.0105,-0.9997,-0.9922,0.0,0.0,0.0,0.0,0.0,0.0,0.0,0.0,0.0,0.0,0.0,0.0,0.0,0.0,0.0,0.0,0.0,0.0,0.0,0.0,0.0,0.0,0.0,0.0,0.0,0.0,0.0,0.0,0.0,-1.8084,-1.8084,0.0,0.0,0.0,0.0,-1.885,-1.9333,-1.9631,-1.9654,-1.9625,-1.9636,-1.9659,-2.0015,-2.0213,-2.0213,-2.0489,-2.0708,-2.0852,-2.0844,-2.06,-2.0063,-2.0267,-1.992,-1.9219,-1.9219,-1.9238,-1.9219,-1.8744,-1.8705,-1.8937,-1.8947,-1.8901,-1.8827,-1.8138,-1.7999,-1.8036,-1.7265,-1.7489,-1.7972,-1.7182,-1.6271,-1.5296,-1.4515,-1.3892,0.0,0.0,-1.3311,-1.3166,-1.3166,-1.316,-1.316,-1.316,-1.2978,-1.2764,-1.2764,-1.2386,-1.2077,-1.2268,-1.2268,-1.2268,-1.2261,0.0,-1.1966,-1.1966,-1.1818,-1.1706,-1.1706,-1.1521,-1.1409,-1.1409,-1.1186,-1.0999,-1.0812,-1.0775,-1.07,-1.0519,-1.0513,-1.0406,-1.0218,-0.9846,-0.9733,-0.9884,-0.9122,0.0,0.0,0.0,0.0,0.0,0.0,0.0,0.0,0.0,0.0,0.0,0.0,0.0,0.0,0.0,0.0,0.0,0.0,0.0,0.0,0.0,0.0,0.0,0.0,0.0,0.0,0.0,0.0,-1.8558,-1.8621,0.0,-1.9114,-1.9298,-1.9413,-1.9413,-1.9585,-1.9826,-2.0136,-2.0488,-2.0791,-2.1123,-2.1138,-2.1219,-2.1352,-2.1022,-2.0933,-2.1094,-2.0579,-2.0283,-2.0196,-1.9749,-1.9459,-1.9287,-1.9287,-1.9443,-1.9678,-1.9521,-1.9358,-1.9178,-1.9178,-1.9178,-1.9141,-1.8912,-1.8839,-1.8875,-1.8572,-1.8466,-1.8402,-1.8131,-1.7596,-1.7055,-1.6846,-1.5888,-1.4964,-1.5442,-1.5119,-1.4754,-1.4995,-1.4654,-1.4194,-1.4091,-1.3544,-1.3046,-1.3046,-1.292,-1.2809,-1.2886,-1.2452,-1.2114,-1.2114,-1.2346,-1.2479,-1.234,-1.2421,-1.2454,-1.2454,-1.2298,-1.2104,-1.1987,-1.191,-1.1754,-1.1519,-1.1364,-1.1153,-1.0962,-1.0799,-1.0556,-1.0218,-1.0067,-0.9954,-0.9922,-0.9354,-0.9013,0.0,0.0,0.0,0.0,0.0,0.0,0.0,0.0,0.0,0.0,0.0,0.0,0.0,0.0,0.0,0.0,0.0,0.0,0.0,0.0,0.0,0.0,0.0,0.0,0.0,0.0,-1.8753,-1.9126,-1.916,-1.9298,-1.9654,-1.9838,-2.001,-2.0171,-2.0354,-2.0664,-2.1146,-2.1523,-2.1857,-2.2168,-2.2048,-2.2034,-2.2172,-2.182,-2.1868,-2.2245,-2.1981,-2.1852,-2.195,-2.147,-2.1033,-2.0639,-2.0639,-2.0619,-2.0576,-2.0576,-2.042,-2.0146,-2.0,-2.0039,-2.0166,-2.0166,-2.0166,-2.0166,-2.0166,-1.9971,-1.9652,-1.9381,-1.9098,-1.885,-1.8626,-1.7708,-1.6836,-1.7296,-1.6905,-1.6388,-1.6679,-1.6158,-1.5441,-1.5021,-1.432,-1.3706,-1.3393,-1.328,-1.3213,-1.3213,-1.277,-1.2416,-1.2416,-1.2696,-1.2867,-1.2687,-1.2851,-1.2929,-1.281,-1.2691,-1.2492,-1.2286,-1.2206,-1.2086,-1.1926,-1.1684,-1.151,-1.1431,-1.1138,-1.0774,-1.0465,-1.0389,-1.0237,-1.0046,-0.9783,-0.9321,-0.8703,0.0,0.0,0.0,0.0,0.0,0.0,0.0,0.0,0.0,0.0,0.0,0.0,0.0,0.0,0.0,0.0,0.0,0.0,0.0,0.0,0.0,0.0,0.0,-1.9,-1.9367,-1.97,-1.9711,-1.9711,-1.9723,-1.9757,-2.0182,-2.0664,-2.1213,-2.1675,-2.2157,-2.265,-2.273,-2.2742,-2.2753,-2.2776,-2.2788,-2.2799,-2.327,-2.3835,-2.4584,-2.5269,-2.5524,-2.5388,-2.5542,-2.4725,-2.3143,-2.3143,-2.2676,-2.1885,-2.1885,-2.1894,-2.1865,-2.1385,-2.1514,-2.1885,-2.1885,-2.1885,-2.1885,-2.1885,-2.1885,-2.1751,-2.0931,-2.0629,-2.0451,-1.963,-1.9162,-1.8905,-1.899,-1.8558,-1.8113,-1.8104,-1.759,-1.6829,-1.5974,-1.5331,-1.4672,-1.3845,-1.3413,-1.3253,-1.3253,-1.324,-1.3233,-1.3213,-1.322,-1.3147,-1.2942,-1.3114,0.0,-1.263,-1.2597,-1.2557,-1.2265,-1.2064,-1.1944,-1.1944,-1.1738,-1.1697,-1.1892,-1.1439,-1.113,-1.0896,-1.0695,-1.05,-1.0304,-1.0265,-0.9754,-0.8722,0.0,0.0,0.0,0.0,0.0,0.0,0.0,0.0,0.0,0.0,0.0,0.0,0.0,0.0,0.0,0.0,0.0,0.0,0.0,0.0,0.0,0.0,-2.0044,-1.9539,-1.9597,-1.9826,-2.0171,-2.0217,-2.0504,-2.1206,-2.1401,-2.172,-2.2259,-2.2398,-2.2536,-2.2707,-2.3029,-2.3408,-2.3775,-2.412,-2.4561,-2.5113,-2.5389,-2.5667,-2.6007,-2.5797,-2.5301,-2.4646,-2.4133,-2.3304,-2.2236,-2.2236,-2.2122,-2.1885,-2.1885,-2.207,-2.2295,-2.1875,-2.1777,-2.1885,-2.1885,-2.1885,-2.1885,-2.1885,-2.1885,-2.1843,-2.1627,-2.1108,-2.0671,-2.1057,-2.0232,-1.946,-2.0713,-2.0504,-1.9985,-2.0435,-1.9417,-1.816,-1.7573,-1.6311,-1.5099,-1.4683,-1.4369,-1.4162,-1.4162,-1.3988,-1.3707,-1.3287,-1.3347,-1.3487,-1.3399,-1.3666,0.0,-1.3675,-1.3682,-1.355,-1.3127,-1.3037,-1.287,-1.2529,-1.223,-1.1999,-1.1758,-1.1462,-1.1089,-1.0701,-1.0621,-1.0581,-1.0501,-0.9893,-0.9415,0.0,0.0,0.0,0.0,0.0,0.0,0.0,0.0,0.0,0.0,0.0,0.0,0.0,0.0,0.0,0.0,0.0,0.0,0.0,0.0,0.0,0.0,-2.0569,-2.0699,-2.0641,-2.0446,-2.0492,-2.0954,-2.1012,-2.1365,-2.2168,-2.2249,-2.2455,-2.296,-2.319,-2.3397,-2.3603,-2.4072,-2.4496,-2.482,-2.5171,-2.5535,-2.587,-2.6153,-2.6412,-2.6685,-2.6507,-2.6251,-2.5984,-2.5614,-2.493,-2.4083,-2.3712,-2.3348,-2.294,-2.2571,-2.2549,-2.2691,0.0,0.0,0.0,0.0,-2.2412,-2.2412,-2.2412,-2.2412,-2.2412,-2.2412,-2.2053,-2.1745,-2.2233,-2.1703,-2.1118,-2.2096,-2.1928,-2.1395,-2.1344,-2.0359,-1.9076,-1.8043,-1.6785,-1.5695,-1.5218,-1.4912,-1.4703,-1.4703,-1.4569,0.0,-1.3841,-1.3801,-1.3786,-1.3655,-1.3891,-1.4046,-1.3828,-1.387,-1.3737,-1.3313,-1.3264,-1.3137,-1.2747,-1.2481,0.0,0.0,0.0,-1.1263,-1.0783,-1.0783,0.0,0.0,0.0,-0.9577,-0.9282,-0.8587,0.0,0.0,-0.7513,-0.7355,0.0,0.0,0.0,0.0,0.0,0.0,0.0,0.0,0.0,0.0,0.0,0.0,0.0,0.0,0.0,0.0,-2.1236,-2.1399,-2.1825,-2.1583,-2.1535,-2.195,-2.1974,-2.2214,-2.2719,-2.2811,-2.3064,-2.3533,-2.4085,-2.4556,-2.4981,0.0,0.0,0.0,0.0,-2.6039,-2.5965,-2.6329,-2.6679,-2.6951,-2.7333,-2.7727,-2.8087,-2.8259,-2.7886,-2.701,-2.6163,-2.5326,-2.4456,-2.3604,-2.3178,-2.3052,-2.2734,-2.2812,-2.3091,-2.3091,-2.3091,-2.3091,-2.3091,0.0,0.0,-2.3091,-2.3091,-2.3091,-2.3091,-2.3091,-2.3091,-2.3091,-2.2828,-2.2364,-2.1389,-2.0648,-1.9651,-1.7842,-1.7031,-1.6425,-1.5711,-1.5338,-1.51,-1.519,-1.5118,-1.4921,-1.4616,-1.4329,-1.4037,-1.3786,-1.3955,-1.3955,-1.3483,-1.361,-1.3568,-1.3143,-1.3094,0.0,-1.2705,-1.2534,-1.2406,-1.2406,-1.1952,-1.1514,-1.1036,-1.1025,-1.0929,-1.0678,-1.046,-1.0043,-0.9434,-0.8945,-0.8491,-0.8156,-0.783,-0.769,0.0,0.0,0.0,0.0,0.0,0.0,0.0,0.0,0.0,0.0,0.0,0.0,0.0,0.0,0.0,-2.1368,-2.1599,-2.178,-2.1883,-2.2191,-2.2454,-2.2524,-2.2536,-2.2731,-2.3212,-2.3672,-2.4108,-2.4554,-2.5119,-2.5463,-2.5555,-2.5658,-2.5977,-2.6588,-2.6639,-2.6916,-2.7467,-2.7723,-2.789,-2.7945,-2.8156,0.0,-2.7389,-2.7429,-2.6969,-2.608,-2.5872,-2.5326,-2.4498,-2.4284,-2.3777,-2.3091,-2.3003,-2.3023,-2.3091,-2.3091,-2.3091,-2.3091,-2.3091,-2.3091,-2.3091,-2.3091,-2.3091,-2.3091,-2.3091,-2.3091,0.0,-2.3091,-2.3033,-2.2756,-2.1806,-2.0891,-1.9847,-1.8498,-1.7558,-1.6972,-1.7182,-1.6395,-1.5821,-1.6423,-1.5691,-1.4988,-1.4928,-1.4629,-1.4312,-1.4079,-1.4088,-1.3997,-1.3695,-1.3695,-1.3568,-1.3143,-1.3094,-1.3009,-1.2705,-1.2662,-1.2577,-1.2406,-1.1952,-1.1548,-1.1236,-1.1236,-1.1219,-1.1171,-1.0732,-1.0464,-1.0338,-0.9574,-0.9147,-0.9009,-0.8112,-0.769,0.0,0.0,0.0,0.0,0.0,0.0,0.0,0.0,0.0,0.0,0.0,-2.1549,0.0,0.0,-2.1762,-2.1666,-2.2039,-2.2398,-2.2616,-2.2869,-2.3064,-2.3064,-2.3064,-2.3362,-2.4072,-2.4407,-2.4763,-2.5279,-2.5796,-2.6122,-2.6251,-2.6375,-2.6708,-2.7334,-2.7334,-2.7542,-2.7893,-2.8191,-2.8299,-2.8219,-2.8379,-2.8259,-2.7846,-2.7846,-2.7592,-2.7121,-2.6712,-2.5997,-2.5073,-2.4155,-2.3517,-2.3091,-2.3091,-2.3091,-2.3091,-2.3091,-2.3091,-2.3091,-2.3091,-2.3091,-2.3091,-2.3091,-2.3091,-2.3091,-2.3091,-2.3091,-2.3091,-2.3091,-2.3091,-2.2872,-2.1917,-2.1329,-2.0692,-1.9559,-1.875,-1.8303,-1.8565,-1.7934,-1.7399,-1.7797,-1.7356,-1.6829,-1.6668,-1.6106,-1.542,-1.4657,-1.4402,-1.4259,-1.413,-1.3998,-1.3737,-1.3313,-1.3264,-1.3094,-1.2747,-1.2619,-1.2491,-1.2406,-1.2037,-1.1742,-1.1527,-1.1483,-1.144,-1.1305,-1.0862,-1.0593,-1.0593,-0.9951,-0.9519,-0.9297,-0.876,-0.8377,0.0,0.0,0.0,0.0,0.0,0.0,0.0,0.0,-2.1761,-2.1874,-2.1812,-2.1722,-2.1729,-2.2028,-2.229,-2.2219,-2.2624,-2.3064,-2.3444,-2.3686,-2.3848,-2.3848,-2.3741,-2.4085,-2.5007,-2.5191,-2.547,-2.5935,-2.6482,-2.685,-2.7021,-2.7215,-2.7516,-2.7962,-2.7962,-2.7962,-2.8002,-2.8351,-2.8431,-2.8259,-2.8431,-2.851,-2.851,-2.851,-2.851,-2.8431,-2.7389,-2.6423,-2.5411,-2.3767,-2.3091,-2.3091,-2.3091,-2.3091,-2.3091,-2.3091,-2.3091,-2.3091,-2.3091,-2.3091,-2.3091,-2.3091,-2.3091,-2.3091,-2.3091,-2.3091,-2.3091,-2.3091,-2.3091,-2.2862,-2.1872,-2.1606,-2.1373,-2.0331,-1.9795,-1.953,-1.9666,-1.9198,-1.8846,-1.9055,-1.887,-1.8621,-1.8444,-1.7772,-1.6791,-1.5452,-1.4889,-1.4566,-1.4515,-1.4316,-1.4015,-1.3481,-1.3431,-1.3236,-1.2753,-1.2534,-1.2448,-1.2406,-1.2203,-1.1995,-1.1785,-1.1699,-1.1613,-1.1397,-1.0949,-1.0727,-1.0727,-1.0337,-0.9907,-0.9563,-0.9516,-0.9165,-2.2976,-2.2974,-2.2797,-2.2316,-2.2185,-2.2123,0.0,0.0,-2.1874,-2.1894,-2.1894,-2.2079,-2.2703,-2.2706,-2.2787,-2.3261,-2.3623,-2.3873,-2.3932,-2.4754,-2.5352,-2.5352,-2.4997,-2.5044,-2.5799,-2.6287,-2.6667,-2.6948,-2.7453,-2.7758,-2.7758,-2.7817,-2.7921,-2.8179,-2.8179,-2.8259,-2.8431,-2.8471,-2.8471,-2.8471,-2.8471,-2.851,-2.851,-2.851,-2.851,-2.8379,-2.67,-2.5453,-2.4584,-2.3517,-2.3091,-2.3091,-2.3091,-2.3091,-2.3091,-2.3091,-2.3091,-2.3091,-2.3091,-2.3091,-2.3091,-2.3091,-2.3091,-2.3091,-2.3091,-2.3091,-2.3091,-2.3091,-2.3091,-2.2828,-2.165,-2.1338,-2.1069,-1.9849,-1.953,-1.9666,-2.0357,-1.9507,-1.8917,-1.9963,-1.913,-1.8377,-1.8684,-1.864,-1.8047,-1.6477,-1.5496,-1.4865,-1.4635,-1.4564,-1.4262,-1.3567,-1.3498,-1.3268,-1.2723,-1.2662,-1.2577,-1.2406,-1.2363,-1.2246,-1.2,-1.1785,-1.1699,-1.1656,-1.1348,-1.1219,-1.1219,-1.0771,-1.0506,-1.0467,-1.0263,-0.9638,-2.3145,-2.312,0.0,0.0,-2.2197,-2.2185,-2.2092,-2.2061,-2.2061,-2.2061,-2.2332,-2.2587,-2.2803,-2.3275,-2.3685,0.0,-2.4178,-2.4449,-2.4449,-2.5131,-2.5708,-2.5953,-2.603,-2.6132,-2.643,-2.6572,-2.6787,-2.7117,-2.7458,-2.7748,-2.7881,-2.7893,-2.8042,-2.8339,-2.8259,-2.8299,-2.851,-2.851,-2.851,-2.851,-2.851,-2.851,-2.851,-2.851,-2.851,-2.8431,-2.7174,-2.608,-2.52,-2.4284,-2.3604,-2.3091,-2.3091,-2.3091,-2.3091,-2.3091,-2.3091,-2.3091,-2.3091,-2.3091,-2.3091,-2.3091,-2.3091,-2.3091,-2.3091,-2.3091,-2.3091,-2.3091,-2.3091,-2.296,-2.2467,-2.2246,-2.2069,-2.1526,-2.1221,-2.1087,-2.141,-2.0918,-2.0534,-2.1006,-2.0447,-1.992,-2.012,-1.9034,-1.7948,-1.7247,-1.6543,-1.5781,-1.4924,-1.4695,-1.4366,-1.3804,-1.3568,-1.3369,-1.297,-1.2952,-1.2836,-1.2589,-1.2448,-1.2283,-1.1995,-1.1828,-1.1613,-1.1483,-1.1532,-1.1509,-1.1509,-1.1504,-1.1344,-1.1075,-1.099,-1.0531,-2.3449,0.0,0.0,-2.2389,-2.2197,-2.2197,-2.2197,-2.2197,-2.2234,-2.2378,-2.2746,-2.3031,-2.3176,-2.3811,-2.4337,-2.4376,-2.4661,-2.4944,-2.5122,-2.551,-2.5991,-2.6535,-2.6831,-2.6988,-2.6988,-2.6868,-2.695,-2.736,-2.7545,-2.7708,-2.7893,-2.7893,-2.8042,-2.8323,-2.8259,-2.8259,-2.8431,-2.8471,-2.851,-2.851,-2.851,-2.851,-2.851,-2.851,-2.8391,-2.8099,-2.747,-2.667,-2.5735,-2.5115,-2.4327,-2.3474,-2.3474,-2.3353,-2.3091,-2.3091,-2.3091,-2.3091,-2.3091,-2.3091,-2.3091,-2.3091,-2.3091,-2.3091,-2.3091,-2.3091,-2.3091,-2.3091,-2.3091,-2.3101,-2.3013,-2.2925,-2.2759,-2.2627,-2.2362,-2.2097,-2.2008,-2.1738,-2.1549,-2.1668,-2.1392,-2.1145,-2.1264,-1.98,-1.845,-1.7954,-1.7434,-1.6599,-1.5172,-1.4721,-1.4353,-1.4033,-1.3698,-1.3435,-1.3248,-1.323,-1.3145,-1.294,-1.2711,-1.2493,-1.2287,-1.203,-1.1805,-1.163,-1.1754,-1.1795,-1.1795,-1.2013,-1.1911,-1.1589,-1.1657,-1.1409,0.0,0.0,-2.3682,-2.2512,-2.2197,-2.2197,-2.2197,-2.2197,-2.2342,-2.2859,-2.2999,-2.3292,-2.4256,-2.446,-2.4652,-2.5168,-2.517,-2.5326,-2.5973,-2.6204,-2.6547,-2.7272,-2.7425,-2.7499,0.0,-2.7447,-2.7592,-2.7841,-2.7881,-2.7881,-2.7893,-2.7893,-2.7893,-2.7933,-2.8111,-2.8219,-2.8219,-2.8379,-2.851,-2.851,-2.851,-2.851,-2.851,-2.851,-2.8059,-2.7226,-2.7226,-2.667,-2.5777,-2.5777,-2.5242,-2.4456,-2.4456,-2.3897,-2.3091,-2.3091,-2.3091,-2.3091,-2.3091,-2.3091,-2.3091,-2.3091,-2.3091,-2.3091,-2.3091,-2.3091,-2.3091,-2.3091,-2.3091,-2.3057,-2.2838,-2.2803,-2.2671,-2.223,-2.2097,-2.2008,-2.1785,-2.141,-2.1245,-2.1614,-2.1392,-2.1236,-2.1604,-2.1277,-2.0376,-1.856,-1.7954,-1.7049,-1.5239,-1.4546,-1.4242,-1.4294,-1.3808,-1.3513,-1.3507,-1.3501,-1.3501,-1.3495,-1.3217,-1.3075,-1.3075,-1.262,-1.2387,-1.2387,-1.2169,-1.2083,-1.2083,-1.2089,-1.2094,-1.21,-1.2291,-1.2073,0.0,0.0,-2.4465,-2.3607,-2.3386,-2.3368,-2.335,-2.3325,-2.336,-2.3518,-2.3773,-2.4109,-2.4424,-2.4807,-2.5107,-2.5276,-2.5276,-2.5433,-2.6021,-2.6463,-2.6926,-2.7541,-2.7818,0.0,0.0,0.0,0.0,-2.7435,-2.7719,-2.7841,-2.7655,-2.7938,-2.803,-2.7893,-2.8111,-2.8139,-2.8002,-2.8191,-2.8299,-2.8299,-2.8431,-2.851,-2.851,-2.851,-2.8339,-2.8047,-2.8047,-2.7551,-2.6712,-2.6712,-2.583,-2.4498,-2.4498,-2.395,-2.3091,-2.3091,-2.3091,-2.3091,-2.3091,-2.3091,-2.3091,-2.3091,-2.3286,-2.3574,-2.3574,-2.376,-2.3939,-2.3939,-2.3939,-2.3939,-2.3903,-2.3767,-2.3585,-2.3265,-2.3036,-2.2806,-2.2538,-2.2382,-2.2327,-2.2474,-2.2163,-2.1961,-2.2053,-2.068,-1.8843,-1.6682,-1.5974,-1.5421,-1.4815,-1.4327,-1.4072,-1.4207,-1.3966,-1.3773,-1.3773,-1.3773,-1.3701,-1.3525,-1.3286,-1.315,-1.315,-1.2689,-1.2409,-1.2409,-1.2344,-1.2291,-1.2291,-1.2494,-1.257,-1.2575,-1.2608,-1.255,-2.5216,-2.5033,-2.4904,-2.453,-2.4406,-2.4402,-2.4577,-2.4612,-2.4652,-2.4828,-2.5083,-2.5335,-2.5533,-2.5628,-2.5687,-2.5687,-2.5418,-2.5433,-2.6021,-2.6426,-2.6926,-2.7541,-2.7909,-2.8111,0.0,0.0,0.0,-2.7435,-2.7719,-2.7841,-2.7655,-2.7938,-2.803,-2.7893,-2.8111,-2.8139,-2.8002,-2.8139,-2.8219,-2.8219,-2.8339,-2.8431,-2.851,-2.851,-2.851,-2.851,-2.851,-2.8179,-2.7684,-2.7684,-2.6588,-2.4956,-2.4956,-2.4198,-2.3091,-2.3091,-2.3198,-2.3305,-2.3149,-2.3198,-2.3369,-2.3369,-2.3662,-2.4014,-2.4014,-2.4199,-2.4414,-2.4414,-2.4414,-2.4414,-2.4414,-2.4275,-2.41,-2.3775,-2.3579,-2.3355,-2.2998,-2.2904,-2.2904,-2.2904,-2.2684,-2.2501,-2.2501,-2.0896,-1.8905,-1.6917,-1.5878,-1.5147,-1.4508,-1.4103,-1.3884,-1.3921,-1.3944,-1.3906,-1.3906,-1.399,-1.3972,-1.3803,-1.3565,-1.3432,-1.3432,-1.2955,-1.2675,-1.2675,-1.26,-1.2538,-1.2538,-1.2737,-1.2813,-1.2813,-1.2894,-1.2932,-2.5356,-2.5174,-2.5124,-2.5255,-2.5206,-2.5301,-2.5867,-2.5998,-2.6138,-2.6652,-2.6712,-2.6869,0.0,0.0,-2.6343,-2.638,-2.5664,-2.5326,-2.6021,-2.6227,-2.6609,0.0,0.0,0.0,0.0,0.0,0.0,-2.7921,0.0,-2.7893,-2.7893,-2.7933,-2.7933,-2.7893,-2.8111,-2.8219,-2.8179,-2.8179,-2.8219,-2.8219,-2.8219,-2.8299,-2.851,-2.851,-2.851,-2.851,-2.851,-2.851,-2.851,-2.8471,-2.7377,-2.5777,-2.5735,-2.4648,-2.3091,-2.312,-2.3437,-2.374,-2.3296,-2.3477,-2.3828,-2.3828,-2.4111,-2.4453,-2.4453,-2.4473,-2.4482,-2.4482,-2.4482,-2.4482,-2.4482,-2.4436,-2.4343,-2.3879,-2.3739,-2.3608,-2.3062,-2.2968,-2.2968,-2.2968,-2.2968,-2.2968,-2.2873,-2.1855,-2.0568,-1.91,-1.7644,-1.612,-1.4456,-1.4002,-1.3717,-1.3553,-1.3755,-1.3912,-1.3924,-1.4153,-1.4298,-1.4298,-1.407,-1.3931,-1.3883,-1.3394,-1.3098,-1.3098,-1.291,-1.2818,-1.2829,-1.2829,-1.2835,-1.2856,-1.3023,-1.3125,-2.5879,-2.6106,-2.6385,-2.6495,-2.6812,-2.7104,-2.7143,-2.7185,-2.7175,-2.7275,-2.6909,-2.6746,0.0,0.0,0.0,-2.6317,-2.5769,0.0,-2.6021,-2.6463,0.0,0.0,0.0,-2.8363,-2.8363,-2.8311,0.0,0.0,-2.8082,-2.7893,-2.7893,-2.803,-2.803,-2.7893,-2.8111,-2.8139,-2.8002,-2.8139,-2.8219,-2.8219,-2.8339,-2.8471,-2.851,-2.851,-2.851,-2.851,-2.851,-2.851,-2.8471,-2.7805,-2.6835,-2.5735,-2.5073,-2.4112,-2.314,-2.3506,-2.3691,-2.3818,-2.4023,-2.416,-2.4258,-2.4258,-2.4551,-2.4902,-2.4902,-2.5137,-2.5352,-2.5352,-2.5352,-2.5352,-2.5352,-2.5208,-2.5006,-2.4658,-2.4464,-2.4221,-2.3938,-2.3849,-2.3849,-2.3849,-2.3849,-2.3595,-2.2749,-2.2163,-2.1377,-2.0167,-1.8467,-1.6676,-1.5009,-1.4255,-1.3927,-1.401,-1.3963,-1.3984,-1.4177,-1.4256,-1.4298,-1.4298,-1.425,-1.4118,-1.3931,-1.3588,-1.3298,-1.3098,-1.291,-1.285,-1.3017,-1.3017,-1.3114,-1.3297,-1.3357,-1.3383,-2.6396,-2.6637,-2.6975,-2.7668,-2.7822,-2.7912,-2.8367,-2.8068,-2.7755,-2.7967,-2.7508,0.0,0.0,0.0,0.0,0.0,0.0,0.0,-2.5709,-2.6393,-2.7006,0.0,-2.8041,0.0,-2.851,-2.8431,-2.8379,0.0,-2.8271,-2.8163,-2.8163,-2.8191,-2.8179,-2.8163,-2.8111,-2.8002,-2.7893,-2.8002,-2.8111,-2.8219,-2.8299,-2.8431,-2.851,-2.851,-2.851,-2.851,-2.851,-2.851,-2.8471,-2.7966,-2.7214,-2.6329,-2.5411,-2.4531,-2.3707,-2.3757,-2.3906,-2.4131,-2.456,-2.4824,-2.4961,-2.4766,-2.5,-2.5361,-2.5361,-2.5537,-2.5693,-2.5693,-2.5693,-2.5693,-2.5693,-2.5489,-2.5235,-2.4981,-2.4686,-2.444,-2.4251,-2.4202,-2.4202,-2.4202,-2.4202,-2.4003,-2.3338,-2.3093,-2.249,-2.0835,-1.9472,-1.7925,-1.5852,-1.4782,-1.4155,-1.4086,-1.4055,-1.4093,-1.4123,-1.4232,-1.4298,-1.4298,-1.4208,-1.407,-1.3931,-1.3642,-1.3406,-1.3259,-1.3171,-1.3141,-1.327,-1.327,-1.334,-1.348,-1.3583,-1.3631,-2.6707,-2.6835,-2.7102,-2.8347,-2.8231,-2.8087,-2.9125,-2.8535,-2.796,-2.8464,0.0,-2.7707,-2.7791,0.0,-2.6536,-2.6505,0.0,-2.5418,-2.5312,-2.6141,-2.6813,-2.6885,-2.7762,-2.8426,-2.8498,-2.8339,-2.8299,-2.8471,-2.851,-2.851,-2.851,-2.8339,-2.8299,-2.851,-2.8163,-2.7962,-2.7921,-2.7962,-2.8042,-2.8219,-2.8219,-2.8339,-2.851,-2.851,-2.851,-2.851,-2.851,-2.851,-2.8471,-2.8391,-2.7886,-2.7103,-2.6163,-2.5285,-2.4557,-2.4192,-2.4232,-2.456,-2.5,-2.541,-2.5625,-2.5283,-2.542,-2.5693,-2.5693,-2.5693,-2.5693,-2.5693,-2.5693,-2.5693,-2.5693,-2.5489,-2.5235,-2.4981,-2.4686,-2.444,-2.4251,-2.4202,-2.4202,-2.4202,-2.4202,-2.4202,-2.4202,-2.4202,-2.3538,-2.165,-2.0766,-1.9504,-1.7078,-1.5569,-1.4556,-1.4093,-1.4411,-1.4502,-1.4087,-1.4411,-1.4546,-1.4407,-1.4177,-1.4037,-1.3988,-1.3743,-1.3607,-1.3552,-1.352,-1.3491,-1.3523,-1.3523,-1.354,-1.3577,-1.3776,-1.3868,-2.6184,-2.6511,-2.6891,-2.7258,-2.7582,-2.7862,-2.8072,-2.796,0.0,0.0,0.0,-2.7144,-2.7707,-2.7166,0.0,-2.6517,0.0,0.0,0.0,0.0,-2.6418,0.0,0.0,0.0,0.0,0.0,0.0,0.0,0.0,-2.851,-2.851,-2.8471,-2.8471,-2.851,-2.8431,-2.8311,-2.8139,-2.8311,-2.8351,-2.8219,-2.8391,-2.8471,-2.851,-2.851,-2.851,-2.851,-2.851,-2.851,-2.8431,-2.7725,-2.7348,-2.7103,-2.6163,-2.5477,-2.5011,-2.5341,-2.5263,-2.5019,-2.5469,-2.5625,-2.5674,-2.5596,-2.5625,-2.5693,-2.5693,-2.5693,-2.5693,-2.5693,-2.5693,-2.5693,-2.5693,-2.5489,-2.5235,-2.4981,-2.4686,-2.444,-2.4251,-2.4202,-2.4202,-2.4202,-2.4202,-2.4202,-2.4202,-2.4202,-2.4053,-2.3687,-2.255,-2.1172,-1.9538,-1.7015,-1.5238,-1.4902,-1.5769,-1.5974,-1.5002,-1.5818,-1.5944,-1.5018,-1.4918,-1.4767,-1.456,-1.4292,-1.4061,-1.3852,-1.3601,-1.3572,-1.376,-1.376,-1.3868,-1.4073,-1.411,-1.4126,-2.637,-2.6638,-2.6891,-2.7314,-2.7356,-2.7355,-2.7735,0.0,0.0,0.0,0.0,-2.6526,-2.7158,0.0,0.0,0.0,0.0,0.0,0.0,0.0,0.0,0.0,0.0,0.0,0.0,0.0,0.0,0.0,0.0,-2.851,-2.851,-2.851,-2.8391,-2.8191,-2.8203,-2.8151,-2.803,-2.8151,-2.8191,-2.8219,-2.8379,-2.851,-2.851,-2.8379,-2.8391,-2.851,-2.8379,-2.8379,-2.8471,-2.8059,-2.7886,-2.7829,-2.7213,-2.6471,-2.5858,-2.6118,-2.575,-2.5184,-2.5586,-2.5693,-2.5693,-2.5693,-2.5693,-2.5693,-2.5693,-2.5693,-2.5693,-2.5693,-2.5693,-2.5693,-2.5693,-2.5489,-2.5284,-2.5137,-2.4784,-2.444,-2.4251,-2.4202,-2.4202,-2.4202,-2.4202,-2.4202,-2.4202,-2.4202,-2.3994,-2.3388,-2.2257,-2.1124,-2.0135,-1.7716,-1.5917,-1.5376,-1.6311,-1.65,-1.522,-1.5601,-1.5702,-1.5107,-1.4955,-1.4847,-1.4695,-1.5113,-1.5128,-1.4716,-1.4896,-1.4873,-1.4688,-1.4221,-1.4078,-1.4196,-1.4196,-1.4196,-2.6483,-2.661,-2.6736,-2.7242,-2.6989,-2.675,-2.7256,-2.661,0.0,0.0,-2.6329,-2.6245,-2.6722,0.0,0.0,0.0,0.0,0.0,0.0,0.0,0.0,0.0,0.0,0.0,0.0,0.0,0.0,0.0,0.0,-2.8697,-2.851,-2.851,-2.8351,-2.8042,-2.8042,-2.8014,-2.7893,-2.7921,-2.799,-2.8047,-2.8299,-2.8431,-2.8431,-2.8299,-2.8351,-2.8431,-2.8259,-2.8299,-2.8431,-2.8431,-2.8471,-2.8479,-2.8328,-2.7598,-2.6628,-2.6809,-2.618,-2.5264,-2.5567,-2.5693,-2.5693,-2.5693,-2.5693,-2.5693,-2.5693,-2.5693,-2.5693,-2.5635,-2.5586,-2.5586,-2.5586,-2.544,-2.5186,-2.5137,-2.4784,-2.444,-2.4251,-2.4202,-2.4202,-2.4202,-2.4202,-2.4202,-2.4202,-2.4202,-2.3895,-2.2987,-2.1903,-2.0877,-2.0084,-1.8433,-1.6904,-1.5706,-1.6808,-1.6974,-1.539,-1.573,-1.5781,-1.5327,-1.5065,-1.4962,-1.4962,-1.571,-1.6023,-1.5866,-1.6215,-1.6221,-1.5927,-1.5083,-1.4665,-1.4724,-1.4353,-1.4299,-2.5964,-2.5978,-2.5992,-2.6048,-2.602,-2.5992,-2.6048,0.0,0.0,-2.5964,-2.6371,-2.6736,-2.6793,-2.7731,0.0,0.0,0.0,0.0,0.0,0.0,0.0,0.0,0.0,0.0,0.0,0.0,0.0,0.0,-3.0037,-2.925,-2.855,-2.851,-2.8471,-2.8431,-2.8431,-2.8271,-2.7893,-2.807,-2.7966,-2.7563,-2.8007,-2.8219,-2.8219,-2.8391,-2.8379,-2.8219,-2.8219,-2.8219,-2.8219,-2.8219,-2.8339,-2.8558,-2.9006,-2.8334,-2.7117,-2.7594,-2.6879,-2.5635,-2.5674,-2.5693,-2.5693,-2.5693,-2.5693,-2.5693,-2.5693,-2.5693,-2.5645,-2.5391,-2.5333,-2.5333,-2.5333,-2.5137,-2.4883,-2.4627,-2.4529,-2.444,-2.4251,-2.4202,-2.4202,-2.4202,-2.4202,-2.4202,-2.4202,-2.4202,-2.4152,-2.4053,-2.2861,-2.1523,-2.0187,-1.962,-1.8426,-1.6115,-1.7725,-1.813,-1.6025,-1.7684,-1.7952,-1.5972,-1.5819,-1.5766,-1.5766,-1.5636,-1.6015,-1.6936,-1.6745,-1.6857,-1.7331,-1.648,-1.6227,-1.6418,-1.4934,-1.4617,-2.5893,-2.5893,-2.5893,-2.5893,-2.5893,-2.5893,-2.5893,0.0,0.0,-2.5893,-2.6385,-2.6933,-2.7312,-2.8099,-2.871,0.0,0.0,0.0,0.0,0.0,0.0,0.0,0.0,0.0,0.0,0.0,0.0,0.0,-3.0594,-3.019,-2.96,-2.8764,-2.8299,-2.8299,-2.8191,-2.8122,-2.807,-2.803,-2.7909,-2.7748,-2.7909,-2.803,-2.803,-2.8082,-2.8151,-2.8179,-2.807,-2.8151,-2.8391,-2.8259,-2.853,-2.9039,-2.9569,-2.8892,-2.7651,-2.8165,-2.7233,-2.5693,-2.5693,-2.5693,-2.5684,-2.5489,-2.544,-2.5489,-2.5635,-2.5586,-2.544,-2.5333,-2.5186,-2.5088,-2.5088,-2.4981,-2.4833,-2.4578,-2.448,-2.444,-2.4251,-2.4202,-2.4202,-2.4202,-2.4202,-2.4202,-2.4202,-2.4202,-2.4202,-2.4202,-2.3129,-2.1996,-2.1116,-1.9782,-1.8394,-1.7047,-1.7733,-1.7621,-1.6045,-1.6723,-1.6829,-1.5945,-1.5891,-1.6205,-1.6895,-1.7463,-1.8087,-1.8871,-1.8954,-1.8887,-1.8738,-1.7588,-1.7068,-1.7186,-1.6146,-1.5885,-2.5893,-2.5893,-2.5893,-2.5893,-2.5893,-2.5893,0.0,0.0,-2.595,-2.6132,-2.6666,-2.7284,-2.796,-2.8549,-2.9111,-2.9532,0.0,-2.8839,0.0,0.0,0.0,0.0,0.0,0.0,0.0,0.0,0.0,0.0,-3.1193,-3.0871,-3.0431,-2.9211,-2.8486,-2.8367,-2.8311,-2.8191,-2.8007,-2.799,-2.7881,-2.7679,-2.7852,-2.7841,-2.78,-2.7921,-2.803,-2.8111,-2.7962,-2.8042,-2.8323,-2.8099,-2.8488,-2.9229,-2.945,-2.8889,-2.7934,-2.8089,-2.7115,-2.5693,-2.5586,-2.5635,-2.5635,-2.5391,-2.5284,-2.5333,-2.5538,-2.5382,-2.5186,-2.5186,-2.4895,-2.4605,-2.4508,-2.4511,-2.4466,-2.4126,-2.4078,-2.4068,-2.3843,-2.3804,-2.3804,-2.3804,-2.3804,-2.3804,-2.3804,-2.3895,-2.3969,-2.3969,-2.28,-2.1692,-2.1269,-1.9213,-1.7621,-1.716,-1.7107,-1.6789,-1.5945,-1.6205,-1.6258,-1.5945,-1.5891,-1.6418,-1.7529,-1.8356,-1.9235,-2.0336,-2.0518,-2.0511,-2.0202,-1.8998,-1.8426,-1.8492,-1.745,-1.6988,-2.5893,-2.5893,-2.5893,-2.5893,-2.5893,-2.5893,0.0,0.0,-2.6062,-2.668,-2.7312,-2.7988,-2.8577,-2.9181,-2.9602,-2.9602,-2.9571,0.0,0.0,0.0,0.0,0.0,0.0,0.0,0.0,0.0,0.0,0.0,-3.1955,0.0,-3.0645,-2.9832,-2.9223,-2.8791,-2.8961,-2.8566,-2.7522,-2.7966,-2.7857,-2.7231,-2.7679,-2.7748,-2.7522,-2.8007,-2.8111,-2.7893,-2.7893,-2.7893,-2.7893,-2.7615,-2.811,-2.897,-2.8505,-2.8154,-2.7798,-2.7081,-2.6322,-2.5635,-2.5391,-2.5489,-2.5635,-2.5391,-2.5284,-2.5284,-2.5284,-2.5137,-2.4883,-2.4883,-2.4395,-2.3846,-2.3595,-2.3625,-2.3598,-2.3054,-2.3139,-2.3224,-2.296,-2.2922,-2.2922,-2.2922,-2.2922,-2.2922,-2.2922,-2.3242,-2.3499,-2.3499,-2.1745,-2.0333,-2.0033,-1.7871,-1.6217,-1.5945,-1.5945,-1.5891,-1.5891,-1.6948,-1.7107,-1.5992,-1.5891,-1.6418,-1.7529,-1.7635,-1.8662,-2.0834,-2.0885,-2.114,-2.1674,-2.0869,-2.0621,-2.0814,-1.8544,-1.7654,-2.5893,-2.5893,-2.5893,-2.5893,-2.5893,-2.5893,-2.5893,0.0,-2.6062,-2.6694,-2.7326,-2.7988,-2.8577,-2.9195,-2.9602,-2.9602,-2.9602,0.0,0.0,0.0,0.0,0.0,0.0,0.0,0.0,0.0,0.0,-3.2309,-3.2042,-3.1713,-3.132,-3.062,-2.9716,-2.8618,-2.8657,-2.8379,-2.7788,-2.7921,-2.7788,-2.7412,-2.7574,-2.7493,-2.7301,-2.7603,-2.7684,-2.7615,-2.7615,-2.7748,-2.7881,-2.7603,-2.7803,-2.8234,-2.8091,-2.7673,-2.7087,-2.6662,-2.6081,-2.5391,-2.5137,-2.5088,-2.5088,-2.4833,-2.4735,-2.4735,-2.4735,-2.4677,-2.4587,-2.4449,-2.4258,-2.3993,-2.362,-2.3542,-2.3472,-2.3015,-2.2951,-2.2989,-2.2904,-2.2904,-2.2904,-2.2904,-2.2904,-2.2904,-2.2904,-2.3014,-2.2897,-2.2249,-2.1565,-2.0442,-1.8555,-1.7613,-1.6662,-1.5457,-1.5354,-1.5499,-1.5861,-1.6205,-1.6258,-1.5945,-1.5891,-1.673,-1.861,-1.8715,-1.9746,-2.2021,-2.2072,-2.2131,-2.2291,-2.1666,-2.1157,-2.0873,-2.0181,-1.9657,0.0,-2.5893,-2.5893,-2.5893,-2.5893,0.0,0.0,0.0,-2.6413,-2.7045,-2.7678,-2.831,-2.8928,-2.935,-2.9602,-2.9602,-2.9602,0.0,0.0,0.0,0.0,0.0,0.0,0.0,0.0,0.0,0.0,-3.2128,-3.1982,-3.1653,-3.1022,-3.0582,-2.9742,-2.8419,-2.8471,-2.8231,-2.7638,-2.78,-2.7719,-2.7412,-2.7441,-2.7412,-2.7231,-2.7412,-2.7522,-2.7522,-2.7522,-2.7603,0.0,-2.7702,-2.7744,-2.7777,-2.7557,-2.7147,-2.658,-2.5906,-2.545,-2.5137,-2.4833,-2.4833,-2.4883,-2.4587,-2.448,-2.4489,-2.439,-2.444,-2.444,-2.4251,-2.4091,-2.3831,-2.338,-2.3151,-2.294,-2.2547,-2.2446,-2.2446,-2.2446,-2.2446,-2.2446,-2.2446,-2.2446,-2.2446,-2.2446,-2.2574,-2.2377,-2.1419,-2.096,-1.9917,-1.7761,-1.7079,-1.6336,-1.5208,-1.5107,-1.524,-1.5565,-1.5596,-1.5596,-1.5596,-1.5686,-1.6571,-1.8375,-1.8955,-1.9849,-2.1302,-2.2182,-2.2392,-2.1971,-2.203,-2.1733,-2.1224,-2.1224,-2.0806,0.0,0.0,0.0,0.0,0.0,0.0,0.0,0.0,0.0,-2.7679,-2.8268,-2.8872,-2.949,-2.9602,-2.9602,-2.9602,0.0,0.0,0.0,0.0,0.0,0.0,0.0,0.0,0.0,0.0,-3.2489,-3.2092,-3.174,-3.1134,-3.0114,-3.0037,-2.9457,-2.8287,-2.8379,-2.807,-2.7231,-2.7638,-2.7638,-2.719,-2.7412,-2.7412,-2.7231,-2.7412,-2.7482,-2.7482,-2.7482,-2.7482,-2.7528,-2.7854,-2.7784,-2.7403,-2.6946,-2.6562,-2.6099,-2.4913,-2.4637,-2.4833,-2.4587,-2.4637,-2.4784,-2.4578,-2.448,-2.444,-2.4251,-2.4341,-2.444,-2.4251,-2.3877,-2.3453,-2.305,-2.2638,-2.2227,-2.187,-2.1751,-2.1742,-2.1769,-2.1778,-2.1778,-2.1778,-2.1778,-2.1769,-2.1742,-2.1989,-2.185,-2.089,-1.9885,-1.8769,-1.7457,-1.6221,-1.5337,-1.5046,-1.5103,-1.5097,-1.5052,-1.5083,-1.5107,-1.5107,-1.5336,-1.5975,-1.7139,-1.8405,-1.9139,-1.9295,-2.1489,-2.2021,-2.0885,-2.2021,-2.2291,-2.1776,-2.1674,-2.1105,-2.5893,0.0,-2.5893,-2.5893,-2.5893,0.0,0.0,0.0,0.0,0.0,0.0,0.0,0.0,0.0,0.0,0.0,0.0,0.0,0.0,0.0,0.0,0.0,0.0,0.0,0.0,0.0,-3.2092,-3.174,-3.1347,-3.1011,-3.0785,-3.0279,-2.9639,-2.8897,-2.8486,-2.795,-2.7231,-2.7452,-2.7452,-2.719,-2.7412,-2.7412,-2.719,-2.726,-2.726,-2.726,-2.726,-2.726,-2.7306,-2.7812,-2.7289,-2.618,-2.6376,-2.5854,-2.4913,-2.444,-2.439,-2.4578,-2.435,-2.4301,-2.435,-2.4301,-2.4251,-2.4251,-2.4202,-2.4341,-2.444,-2.4251,-2.4137,-2.3914,-2.3462,-2.3059,-2.2739,-2.2648,-2.2373,-2.2227,-2.2556,-2.262,-2.262,-2.262,-2.262,-2.2519,-2.2199,-2.1658,-2.0728,-1.9217,-1.813,-1.6961,-1.5544,-1.5067,-1.4783,-1.454,-1.52,-1.5345,-1.4534,-1.4865,-1.5107,-1.5107,-1.5167,-1.5694,-1.6837,-1.7367,-1.8447,-2.0136,-2.1778,-2.2021,-2.0885,-2.2021,-2.2544,-2.2392,-2.1505,-2.1148,-2.5893,-2.5893,-2.5893,-2.5893,-2.5893,-2.5893,0.0,0.0,0.0,0.0,0.0,0.0,0.0,0.0,0.0,0.0,0.0,0.0,0.0,0.0,0.0,0.0,0.0,0.0,0.0,0.0,-3.2237,-3.185,-3.1482,-3.1048,-3.0583,-3.019,-2.9716,-2.9121,-2.8514,-2.7857,-2.7231,-2.7301,-2.7301,-2.719,-2.7301,-2.7301,-2.719,-2.719,-2.719,-2.719,-2.719,-2.719,-2.7247,-2.8012,-2.7576,-2.6391,-2.6651,-2.6034,-2.4971,-2.439,-2.4251,-2.4341,-2.4251,-2.4202,-2.4202,-2.4202,-2.4202,-2.4202,-2.4202,-2.4301,-2.4341,-2.4251,-2.4202,-2.4156,-2.3877,-2.348,-2.3178,-2.3178,-2.2867,-2.2629,-2.2858,-2.2904,-2.2904,-2.2904,-2.2904,-2.2831,-2.2611,-2.2146,-2.11,-1.8972,-1.8121,-1.6945,-1.4939,-1.4592,-1.4442,-1.4298,-1.4765,-1.4908,-1.4346,-1.4564,-1.4733,-1.4733,-1.4859,-1.5176,-1.5806,-1.6623,-1.8088,-2.0468,-2.0241,-2.0362,-2.0885,-2.0987,-2.1302,-2.1768,-2.0672,-2.0423,-2.5893,-2.5893,-2.5893,-2.5893,-2.5893,-2.5893,0.0,0.0,0.0,0.0,0.0,0.0,0.0,0.0,0.0,0.0,0.0,0.0,0.0,0.0,0.0,0.0,0.0,0.0,-3.329,-3.2931,-3.2525,-3.2128,-3.1776,-3.1172,-3.019,-3.0152,-2.9883,-2.925,-2.8673,-2.8018,-2.7342,-2.7272,-2.719,-2.719,-2.719,-2.719,-2.719,-2.719,-2.719,-2.719,-2.719,-2.719,-2.7259,-2.8299,-2.8126,-2.7203,-2.7351,-2.6723,-2.5596,-2.4726,-2.435,-2.4202,-2.4202,-2.4202,-2.4202,-2.4202,-2.4202,-2.4202,-2.4202,-2.4202,-2.4202,-2.4202,-2.4202,-2.422,-2.4284,-2.3941,-2.3599,-2.3663,-2.338,-2.3096,-2.3096,-2.3096,-2.3096,-2.3096,-2.3096,-2.3068,-2.3004,-2.2853,-2.1925,-1.9384,-1.8653,-1.7529,-1.5021,-1.4509,-1.4346,-1.4298,-1.4442,-1.4484,-1.4292,-1.4436,-1.4484,-1.4298,-1.4521,-1.4672,-1.4714,-1.6004,-1.7654,-1.9626,-1.8167,-1.8367,-2.0338,-1.9516,-1.9649,-2.0629,-1.9642,-1.9435,-2.5893,-2.5893,-2.5893,-2.5893,-2.5893,-2.5893,0.0,0.0,0.0,0.0,0.0,0.0,0.0,0.0,0.0,0.0,0.0,0.0,0.0,0.0,0.0,0.0,0.0,0.0,-3.329,-3.2931,-3.2525,-3.2128,-3.1776,-3.1371,-3.0861,-3.0861,-3.0545,-2.9883,-2.9289,-2.8673,-2.8059,-2.7464,-2.719,-2.719,-2.719,-2.719,-2.719,-2.719,-2.719,-2.719,-2.719,-2.719,-2.7259,-2.8299,-2.8126,-2.7292,-2.8158,-2.7352,-2.5693,-2.5548,-2.4922,-2.4202,-2.4202,-2.4202,-2.4202,-2.4202,-2.4202,-2.4202,-2.4202,-2.4202,-2.4202,-2.4202,-2.4202,-2.4284,-2.4643,-2.4372,-2.4202,-2.451,-2.4271,-2.4018,-2.4018,-2.4018,-2.4018,-2.4018,-2.4018,-2.3859,-2.3462,-2.2752,-2.147,-1.9336,-1.8223,-1.6951,-1.498,-1.4654,-1.4564,-1.4322,-1.5051,-1.5235,-1.4388,-1.5092,-1.5188,-1.4346,-1.434,-1.4467,-1.4708,-1.5816,-1.6312,-1.596,-1.7441,-1.8089,-1.7798,-1.852,-1.9067,-1.9487,-1.928,-1.9117,-2.5893,-2.5893,-2.5893,-2.5893,-2.5893,-2.5893,0.0,0.0,0.0,0.0,0.0,0.0,0.0,0.0,0.0,0.0,0.0,0.0,0.0,0.0,0.0,0.0,0.0,-3.329,-3.329,-3.3122,-3.286,-3.2453,-3.2092,-3.1703,-3.1347,-3.1123,-3.071,-3.0037,-2.9406,-2.8819,-2.8219,-2.7545,-2.719,-2.719,-2.719,-2.719,-2.719,-2.719,-2.719,-2.719,-2.719,-2.719,-2.7259,-2.8299,-2.843,-2.7997,-2.7917,-2.7332,-2.6388,-2.5304,-2.4587,-2.4202,-2.4202,-2.4202,-2.4202,-2.4202,-2.4202,-2.4202,-2.4202,-2.4202,-2.4202,-2.4202,-2.4202,-2.4349,-2.4983,-2.4845,-2.4643,-2.5056,-2.4845,-2.4477,-2.4248,-2.4202,-2.4202,-2.4202,-2.4202,-2.4137,-2.3904,-2.3014,-2.1719,-1.985,-1.8561,-1.7116,-1.5351,-1.5026,-1.4823,-1.4552,-1.4953,-1.4933,-1.4358,-1.4717,-1.4813,-1.4346,-1.4298,-1.4358,-1.4485,-1.5013,-1.5431,-1.5817,-1.6206,-1.6593,-1.6982,-1.6996,-1.74,-1.8098,-1.8272,-1.8185,-2.5893,-2.5893,-2.5893,-2.5893,0.0,0.0,0.0,0.0,0.0,0.0,0.0,0.0,0.0,0.0,0.0,0.0,0.0,0.0,0.0,0.0,0.0,0.0,-3.329,-3.329,-3.329,-3.329,-3.3122,-3.2739,-3.2345,-3.1946,-3.1629,-3.1086,-3.0508,-2.9999,-2.9289,-2.8673,-2.8219,-2.7545,-2.719,-2.719,-2.719,-2.719,-2.719,-2.719,-2.719,-2.719,-2.719,-2.719,-2.7259,-2.8299,-2.87,-2.8662,-2.8091,-2.7615,-2.6952,-2.4962,-2.4202,-2.4202,-2.4202,-2.4202,-2.4202,-2.4202,-2.4202,-2.4202,-2.4202,-2.4202,-2.4202,-2.4202,-2.4202,-2.4395,-2.5212,-2.5142,-2.5014,-2.546,-2.5332,-2.4973,-2.4459,-2.4349,-2.4321,-2.422,-2.4202,-2.4202,-2.4202,-2.3238,-2.1963,-2.0403,-1.9051,-1.7582,-1.5827,-1.5395,-1.5151,-1.4835,-1.4805,-1.4696,-1.4419,-1.4395,-1.437,-1.4298,-1.4298,-1.4298,-1.4298,-1.4298,-1.4823,-1.5904,-1.5046,-1.5214,-1.6393,-1.571,-1.5929,-1.6924,-1.7364,-1.7312,-2.5893,-2.5893,-2.5893,-2.5893,-2.5893,0.0,-2.5893,-2.6905,0.0,0.0,0.0,0.0,0.0,0.0,0.0,0.0,0.0,0.0,0.0,0.0,0.0,-3.3276,-3.329,-3.329,-3.329,-3.329,-3.3122,-3.2739,-3.2345,-3.1946,-3.1629,-3.0646,-3.0037,-2.9999,-2.887,-2.8247,-2.8219,-2.7545,-2.719,-2.719,-2.719,-2.719,-2.719,-2.719,-2.719,-2.719,-2.719,-2.719,-2.7259,-2.8299,-2.87,-2.8804,-2.9635,-2.8841,-2.6952,-2.4962,-2.4202,-2.4202,-2.4202,-2.4202,-2.4202,-2.4202,-2.4202,-2.4202,-2.4202,-2.4202,-2.4202,-2.4202,-2.4202,-2.4395,-2.5212,-2.5405,-2.5479,-2.5874,-2.5947,-2.5718,-2.4904,-2.4739,-2.467,-2.4275,-2.4202,-2.4202,-2.4202,-2.3238,-2.2047,-2.0609,-1.9443,-1.806,-1.6128,-1.5838,-1.5636,-1.5107,-1.5077,-1.4974,-1.4708,-1.469,-1.4576,-1.4316,-1.4298,-1.4298,-1.4298,-1.4298,-1.4352,-1.4466,-1.4376,-1.4631,-1.5208,-1.5176,-1.5436,-1.6021,-1.7094,-1.6902,-2.5893,-2.5893,-2.5893,-2.5893,-2.5893,0.0,0.0,-2.6905,-2.7805,0.0,0.0,0.0,0.0,0.0,0.0,0.0,0.0,0.0,0.0,0.0,-3.329,-3.329,-3.329,-3.329,-3.329,-3.329,-3.3241,-3.3086,-3.2467,-3.1896,-3.1392,-3.0482,-2.9651,-2.891,-2.8447,-2.8018,-2.7586,-2.7353,-2.719,-2.719,-2.719,-2.719,-2.719,-2.719,-2.719,-2.719,-2.719,-2.719,-2.7259,-2.8299,-2.87,-2.8662,-2.8412,-2.7474,-2.6109,-2.4726,-2.4202,-2.4202,-2.4202,-2.4202,-2.4202,-2.4202,-2.4202,-2.4202,-2.4202,-2.4202,-2.4202,-2.4202,-2.4202,-2.4395,-2.5212,-2.5424,-2.5525,-2.592,-2.6012,-2.5865,-2.5313,-2.4959,-2.4739,-2.4574,-2.4385,-2.4202,-2.4202,-2.3238,-2.2114,-2.0869,-1.948,-1.8046,-1.659,-1.611,-1.5749,-1.5378,-1.5203,-1.5071,-1.4968,-1.4962,-1.4914,-1.4811,-1.4485,-1.4298,-1.4298,-1.4467,-1.4558,-1.4558,-1.4721,-1.4902,-1.5107,-1.527,-1.5451,-1.5703,-1.697,-1.6736,-2.5893,-2.5893,-2.5893,0.0,0.0,0.0,-2.6132,-2.7003,-2.7805,0.0,0.0,0.0,0.0,0.0,0.0,0.0,0.0,0.0,0.0,-3.329,-3.329,-3.329,-3.329,-3.329,-3.329,-3.329,-3.329,-3.329,-3.2538,-3.1932,-3.1489,-3.0342,-2.9341,-2.8514,-2.8099,-2.7667,-2.719,-2.719,-2.719,-2.719,-2.719,-2.719,-2.719,-2.719,-2.719,-2.719,-2.719,-2.719,-2.7259,-2.8126,-2.8666,-2.8859,-2.7683,-2.6771,-2.6013,-2.4677,-2.4202,-2.4202,-2.4202,-2.4202,-2.4202,-2.4202,-2.4202,-2.4202,-2.4202,-2.4202,-2.4202,-2.4202,-2.4202,-2.4358,-2.5056,-2.528,-2.5525,-2.592,-2.6113,-2.6104,-2.5699,-2.5396,-2.5078,-2.4831,-2.4606,-2.4358,-2.422,-2.2979,-2.17,-2.0869,-1.9169,-1.7674,-1.6683,-1.6258,-1.5931,-1.5644,-1.5463,-1.5318,-1.524,-1.5234,-1.5197,-1.5113,-1.4757,-1.4552,-1.4552,-1.4739,-1.4841,-1.4841,-1.5016,-1.5098,-1.5074,-1.5305,-1.5385,-1.5363,-1.633,-1.6195,-2.5893,-2.5893,0.0,0.0,0.0,0.0,0.0,-2.7312,0.0,0.0,0.0,0.0,0.0,0.0,0.0,0.0,0.0,0.0,-3.3206,-3.329,-3.329,-3.329,-3.329,-3.329,-3.329,-3.329,-3.3276,-3.3276,-3.2538,-3.2092,-3.2092,-3.019,-2.9081,-2.9081,-2.7846,-2.719,-2.719,-2.719,-2.719,-2.719,-2.719,-2.719,-2.719,-2.719,-2.719,-2.719,-2.719,-2.719,-2.7224,-2.7782,-2.8586,-2.9361,-2.781,-2.7189,-2.6952,-2.4962,-2.4202,-2.4202,-2.4202,-2.4202,-2.4202,-2.4202,-2.4202,-2.4202,-2.4202,-2.4202,-2.4202,-2.4202,-2.4202,-2.4293,-2.4666,-2.5069,-2.5515,-2.592,-2.6333,-2.6472,-2.6104,-2.6021,-2.5782,-2.4992,-2.4794,-2.4656,-2.4284,-2.2367,-2.0775,-2.0436,-1.8603,-1.6967,-1.6377,-1.6324,-1.6164,-1.5945,-1.5891,-1.5783,-1.5523,-1.5499,-1.539,-1.5131,-1.5113,-1.5113,-1.5107,-1.5113,-1.5113,-1.5113,-1.5113,-1.5086,-1.5129,-1.5129,-1.5053,-1.4987,-1.4987,-1.5118,-2.5893,-2.5893,0.0,0.0,0.0,0.0,0.0,0.0,0.0,0.0,0.0,0.0,0.0,0.0,0.0,-3.2946,-3.3045,-3.308,-3.3262,-3.329,-3.329,-3.329,-3.329,-3.329,-3.329,-3.3051,-3.2895,-3.2895,-3.2164,-3.1542,-3.1057,-2.9807,-2.8897,-2.8474,-2.7655,-2.719,-2.719,-2.719,-2.719,-2.719,-2.719,-2.719,-2.719,-2.719,-2.719,-2.719,-2.719,-2.719,-2.7259,-2.8138,-2.8884,-2.9361,-2.781,-2.7189,-2.6952,-2.4962,-2.4202,-2.4202,-2.4202,-2.4202,-2.4202,-2.4202,-2.4202,-2.4202,-2.4202,-2.4202,-2.4202,-2.4202,-2.4202,-2.4229,-2.4358,-2.4698,-2.5124,-2.5855,-2.6333,-2.6554,-2.6435,-2.6223,-2.5938,-2.5708,-2.5442,-2.5069,-2.4716,-2.3389,-2.1981,-2.0629,-1.9057,-1.7569,-1.6205,-1.5998,-1.5998,-1.5891,-1.5891,-1.5855,-1.5777,-1.5771,-1.5741,-1.5662,-1.5656,-1.5493,-1.5125,-1.5282,-1.5384,-1.5384,-1.5565,-1.5646,-1.5665,-1.5465,-1.5346,-1.5369,-1.5095,-1.5016,-2.5893,0.0,0.0,0.0,0.0,0.0,0.0,0.0,0.0,0.0,0.0,0.0,0.0,0.0,0.0,-3.322,-3.329,-3.329,-3.329,-3.329,-3.329,-3.329,-3.3171,-3.3051,-3.3051,-3.2717,-3.2453,-3.2453,-3.1909,-3.1431,-3.1033,-3.0012,-2.9172,-2.8593,-2.7926,-2.7464,-2.719,-2.719,-2.719,-2.719,-2.719,-2.719,-2.719,-2.719,-2.719,-2.719,-2.719,-2.719,-2.7247,-2.808,-2.8712,-2.9041,-2.7487,-2.7034,-2.6952,-2.4962,-2.4202,-2.4202,-2.4202,-2.4202,-2.4202,-2.4202,-2.4202,-2.4202,-2.4202,-2.4202,-2.4202,-2.4202,-2.4202,-2.4202,-2.4202,-2.4514,-2.4941,-2.5626,-2.6094,-2.6389,-2.6554,-2.6389,-2.6214,-2.6039,-2.5819,-2.5534,-2.5139,-2.367,-2.2155,-2.0685,-1.8712,-1.7035,-1.6045,-1.5891,-1.5891,-1.5891,-1.5891,-1.5891,-1.5891,-1.5891,-1.5891,-1.5891,-1.5891,-1.5747,-1.5433,-1.5572,-1.5656,-1.5656,-1.5807,-1.5838,-1.5737,-1.5583,-1.5374,-1.5154,-1.5041,-1.4998,0.0,0.0,0.0,0.0,0.0,0.0,0.0,0.0,0.0,0.0,0.0,0.0,0.0,0.0,-3.329,-3.329,-3.329,-3.329,-3.329,-3.329,-3.3255,-3.3255,-3.2895,-3.2668,-3.2668,-3.2309,-3.2055,-3.2055,-3.174,-3.1556,-3.1556,-3.057,-2.9767,-2.9199,-2.8554,-2.7898,-2.7313,-2.7231,-2.719,-2.719,-2.719,-2.719,-2.719,-2.719,-2.719,-2.719,-2.719,-2.719,-2.7224,-2.777,-2.8264,-2.8573,-2.7016,-2.6739,-2.6952,-2.4962,-2.4202,-2.4202,-2.4202,-2.4202,-2.4202,-2.4202,-2.4202,-2.4202,-2.4202,-2.4202,-2.4202,-2.4202,-2.4202,-2.4202,-2.4202,-2.4486,-2.4831,-2.5277,-2.5699,-2.6122,-2.6444,-2.6564,-2.6472,-2.614,-2.6067,-2.5938,-2.5543,-2.3576,-2.1777,-2.0673,-1.8009,-1.6112,-1.5928,-1.5928,-1.5916,-1.5891,-1.5891,-1.5891,-1.5891,-1.5891,-1.5891,-1.5891,-1.5891,-1.5891,-1.5891,-1.5891,-1.5891,-1.5891,-1.5891,-1.5791,-1.5535,-1.5535,-1.5219,-1.4698,-1.4932,-1.5016,0.0,0.0,0.0,0.0,0.0,0.0,0.0,0.0,0.0,0.0,0.0,0.0,0.0,-3.2497,-3.329,-3.329,-3.329,-3.329,-3.329,-3.3016,-3.281,-3.281,-3.2489,-3.2237,-3.2237,-3.1909,-3.1703,-3.1703,-3.1347,-3.1123,-3.1123,-3.0432,-2.9922,-2.9806,-2.8752,-2.8139,-2.7978,-2.7464,-2.719,-2.719,-2.719,-2.719,-2.719,-2.719,-2.719,-2.719,-2.719,-2.719,-2.7224,-2.777,-2.8264,-2.8573,-2.7016,-2.6739,-2.6952,-2.4962,-2.4202,-2.4202,-2.4202,-2.4202,-2.4202,-2.4202,-2.4202,-2.4202,-2.4202,-2.4202,-2.4202,-2.4202,-2.4202,-2.4202,-2.4202,-2.4266,-2.444,-2.4812,-2.5497,-2.6039,-2.6131,-2.6353,-2.6564,-2.6472,-2.6454,-2.6316,-2.5957,-2.4738,-2.2863,-2.0066,-1.8666,-1.7515,-1.635,-1.6205,-1.6115,-1.591,-1.5891,-1.5891,-1.5891,-1.5891,-1.5891,-1.5891,-1.5891,-1.5891,-1.5891,-1.5891,-1.5891,-1.5891,-1.5891,-1.5891,-1.5785,-1.5583,-1.5528,-1.5611,-1.5181,-1.5216,0.0,0.0,0.0,0.0,0.0,0.0,0.0,0.0,0.0,0.0,0.0,0.0,0.0,-3.2497,-3.329,-3.329,-3.329,-3.3241,-3.3051,-3.281,-3.2632,-3.2453,-3.2092,-3.185,-3.185,-3.1519,-3.131,-3.131,-3.1123,-3.0986,-3.0986,-3.0672,-3.0317,-2.9999,-2.9106,-2.8474,-2.8219,-2.7545,-2.719,-2.719,-2.719,-2.719,-2.719,-2.719,-2.719,-2.719,-2.719,-2.719,-2.7213,-2.7518,-2.7908,-2.8231,-2.6687,-2.6362,-2.6607,-2.4837,-2.4202,-2.4202,-2.4202,-2.4202,-2.4202,-2.4202,-2.4202,-2.4202,-2.4202,-2.4202,-2.4202,-2.4202,-2.4202,-2.4202,-2.4202,-2.4202,-2.4257,-2.4477,-2.5001,-2.5552,-2.5929,-2.6186,-2.6344,-2.6554,-2.6591,-2.6518,-2.6298,-2.4479,-2.2206,-1.9785,-1.837,-1.7352,-1.6568,-1.6489,-1.6374,-1.6103,-1.6072,-1.6024,-1.5897,-1.5891,-1.5891,-1.5891,-1.5891,-1.5891,-1.5891,-1.5891,-1.5891,-1.5891,-1.5891,-1.5891,-1.5891,-1.5917,-1.5891,-1.5869,-1.5613,-1.5579,0.0,0.0,0.0,0.0,0.0,0.0,0.0,0.0,0.0,0.0,0.0,0.0,-3.1485,-3.2497,-3.329,-3.3206,-3.3241,-3.3136,-3.2668,-3.2596,-3.2453,-3.2055,-3.1703,-3.1482,-3.1482,-3.1198,-3.0986,-3.0986,-3.0986,-3.0986,-3.0986,-3.0986,-3.0748,-3.019,-2.9484,-2.8858,-2.8367,-2.7586,-2.719,-2.719,-2.719,-2.719,-2.719,-2.719,-2.719,-2.719,-2.719,-2.719,-2.719,-2.719,-2.7529,-2.7854,-2.6315,-2.5966,-2.6196,-2.4761,-2.4202,-2.4202,-2.4202,-2.4202,-2.4202,-2.4202,-2.4202,-2.4202,-2.4202,-2.4202,-2.4202,-2.4202,-2.4202,-2.4202,-2.4202,-2.4202,-2.4202,-2.4202,-2.4468,-2.4946,-2.5736,-2.5966,-2.614,-2.6509,-2.6527,-2.6473,-2.6236,-2.3828,-2.1349,-1.9695,-1.8151,-1.704,-1.6773,-1.6767,-1.6664,-1.6386,-1.635,-1.6266,-1.6048,-1.603,-1.603,-1.603,-1.603,-1.603,-1.603,-1.603,-1.603,-1.603,-1.5982,-1.5958,-1.5958,-1.6223,-1.627,-1.6115,-1.6143,-1.6068,0.0,0.0,0.0,0.0,0.0,0.0,0.0,0.0,0.0,0.0,0.0,0.0,-3.1485,-3.2497,-3.3171,-3.286,-3.3086,-3.303,-3.2273,-3.2164,-3.2055,-3.1703,-3.131,-3.1099,-3.1099,-3.1024,-3.0986,-3.0986,-3.0986,-3.0986,-3.0986,-3.0986,-3.0949,-3.0861,-2.9716,-2.9042,-2.8976,-2.7817,-2.719,-2.719,-2.719,-2.719,-2.719,-2.719,-2.719,-2.719,-2.719,-2.719,-2.719,-2.719,-2.7529,-2.7854,-2.6315,-2.5966,-2.6196,-2.4761,-2.4202,-2.4202,-2.4202,-2.4202,-2.4202,-2.4202,-2.4202,-2.4202,-2.4202,-2.4202,-2.4202,-2.4202,-2.4202,-2.4202,-2.4202,-2.4202,-2.4202,-2.4202,-2.4248,-2.4514,-2.5332,-2.5773,-2.614,-2.6509,-2.6354,-2.5835,-2.4799,-2.3813,-2.2381,-2.0064,-1.929,-1.8493,-1.7183,-1.7038,-1.6936,-1.667,-1.6646,-1.6628,-1.6598,-1.6592,-1.6592,-1.6592,-1.6592,-1.6592,-1.6592,-1.6592,-1.6592,-1.6592,-1.635,-1.6229,-1.6229,-1.6513,-1.6761,-1.6933,-1.6643,-1.6507,0.0,0.0,0.0,0.0,0.0,0.0,0.0,0.0,0.0,0.0,0.0,-3.0754,-3.1102,-3.1867,-3.2436,-3.2362,-3.2704,-3.2682,-3.1923,-3.1982,-3.1873,-3.1347,-3.1099,-3.0986,-3.0986,-3.0986,-3.0986,-3.0986,-3.0986,-3.0986,-3.0986,-3.0986,-3.0986,-3.0986,-3.0075,-2.9433,-2.9081,-2.8207,-2.7586,-2.719,-2.719,-2.719,-2.719,-2.719,-2.719,-2.719,-2.719,-2.719,-2.719,-2.719,-2.7357,-2.7432,-2.6455,-2.6078,-2.5911,-2.4966,-2.4422,-2.4202,-2.4202,-2.4202,-2.4202,-2.4202,-2.4202,-2.4202,-2.4202,-2.4202,-2.4202,-2.4202,-2.4202,-2.4202,-2.4202,-2.4202,-2.4202,-2.4202,-2.4202,-2.4367,-2.4964,-2.5405,-2.5768,-2.6236,-2.6181,-2.5835,-2.4927,-2.3455,-2.1991,-2.0737,-1.9254,-1.8073,-1.738,-1.731,-1.7207,-1.6948,-1.6917,-1.6857,-1.6712,-1.67,-1.67,-1.67,-1.67,-1.67,-1.67,-1.67,-1.67,-1.67,-1.6579,-1.6513,-1.6513,-1.6791,-1.6978,-1.7092,-1.6716,-1.6546,0.0,0.0,0.0,0.0,0.0,0.0,0.0,0.0,0.0,0.0,0.0,-2.9791,-3.0281,-3.0952,-3.1486,-3.1694,-3.2077,-3.2131,-3.1529,-3.174,-3.174,-3.1099,-3.0986,-3.0986,-3.0986,-3.0986,-3.0986,-3.0986,-3.0986,-3.0986,-3.0986,-3.0986,-3.0986,-3.0986,-3.019,-2.9561,-2.9081,-2.8315,-2.7696,-2.719,-2.719,-2.719,-2.719,-2.719,-2.719,-2.719,-2.719,-2.719,-2.719,-2.719,-2.719,-2.7154,-2.6609,-2.6115,-2.5649,-2.5088,-2.4592,-2.4202,-2.4202,-2.4202,-2.4202,-2.4202,-2.4202,-2.4202,-2.4202,-2.4202,-2.4202,-2.4202,-2.4202,-2.4202,-2.4202,-2.4202,-2.4202,-2.4202,-2.4202,-2.4349,-2.4821,-2.5295,-2.5676,-2.6046,-2.6017,-2.5734,-2.4889,-2.3175,-2.1643,-2.0795,-1.908,-1.783,-1.7537,-1.7485,-1.7406,-1.7213,-1.7189,-1.7111,-1.6917,-1.6899,-1.6899,-1.6899,-1.6899,-1.6899,-1.6899,-1.6899,-1.6843,-1.6792,-1.6792,-1.6756,-1.6684,-1.6948,-1.7016,-1.6964,-1.6628,-1.6478,0.0,0.0,0.0,0.0,0.0,0.0,0.0,0.0,0.0,0.0,0.0,-2.8739,-2.8939,-2.9814,-3.0539,-3.0744,-3.111,-3.1276,-3.1057,-3.1384,-3.1482,-3.1061,-3.0986,-3.0986,-3.0986,-3.0986,-3.0986,-3.0986,-3.0986,-3.0986,-3.0986,-3.0986,-3.0986,-3.0986,-2.9793,-2.9121,-2.9081,-2.7886,-2.7231,-2.719,-2.719,-2.719,-2.719,-2.719,-2.719,-2.719,-2.719,-2.719,-2.719,-2.719,-2.719,-2.7154,-2.6609,-2.6115,-2.5649,-2.5088,-2.4592,-2.4202,-2.4202,-2.4202,-2.4202,-2.4202,-2.4202,-2.4202,-2.4202,-2.4202,-2.4202,-2.4202,-2.4202,-2.4202,-2.4202,-2.4202,-2.4202,-2.4202,-2.4202,-2.4422,-2.5221,-2.5699,-2.5997,-2.61,-2.5898,-2.5229,-2.376,-2.3199,-2.2119,-1.9781,-1.9267,-1.881,-1.7655,-1.7485,-1.7473,-1.7461,-1.7461,-1.7455,-1.7443,-1.7443,-1.7443,-1.7443,-1.7443,-1.7443,-1.7443,-1.7443,-1.7325,-1.6985,-1.6979,-1.6856,-1.6598,-1.6868,-1.682,-1.6514,-1.6532,-1.6366,0.0,0.0,0.0,0.0,0.0,0.0,0.0,0.0,0.0,0.0,0.0,-2.8231,-2.8033,-2.8805,-2.9528,-2.9755,-3.0117,-3.0254,-2.9958,-3.0553,-3.0851,-3.0474,-3.0764,-3.0986,-3.0986,-3.0986,-3.0986,-3.0986,-3.0986,-3.0986,-3.0986,-3.0986,-3.0785,-3.0355,-2.9922,-2.9289,-2.8514,-2.7655,-2.719,-2.719,-2.719,-2.719,-2.719,-2.719,-2.719,-2.719,-2.719,-2.719,-2.719,-2.719,-2.719,-2.7161,-2.6979,-2.6259,-2.5317,-2.5396,-2.4704,-2.3794,-2.411,-2.4202,-2.4202,-2.4202,-2.4202,-2.4202,-2.4202,-2.4202,-2.4202,-2.4202,-2.4202,-2.4202,-2.4202,-2.4202,-2.4202,-2.4202,-2.4053,-2.4099,-2.4663,-2.5194,-2.5669,-2.5837,-2.5798,-2.5404,-2.4462,-2.3552,-2.2402,-2.0737,-1.9774,-1.8861,-1.7655,-1.7485,-1.7485,-1.7485,-1.7485,-1.7485,-1.7485,-1.7485,-1.7485,-1.7485,-1.7485,-1.7485,-1.7485,-1.7485,-1.7426,-1.7309,-1.7079,-1.6856,-1.6517,-1.6615,-1.6602,-1.6478,-1.6312,-1.62,0.0,0.0,0.0,0.0,0.0,0.0,0.0,0.0,0.0,0.0,-2.7914,-2.7815,-2.757,-2.8005,-2.8541,-2.8952,-2.9192,-2.9328,-2.9319,-2.9851,-3.0124,-2.9849,-3.0189,-3.0411,-3.0411,-3.0594,-3.0699,-3.0699,-3.0882,-3.0911,-3.0672,-3.0672,-3.0279,-2.9419,-2.9419,-2.891,-2.7857,-2.7423,-2.719,-2.719,-2.719,-2.719,-2.719,-2.719,-2.719,-2.719,-2.719,-2.719,-2.719,-2.719,-2.719,-2.719,-2.719,-2.6526,-2.5553,-2.5658,-2.4974,-2.397,-2.4153,-2.4202,-2.4202,-2.4202,-2.4202,-2.4202,-2.4202,-2.4202,-2.4202,-2.4202,-2.4202,-2.4202,-2.4202,-2.4152,-2.4053,-2.4053,-2.3854,-2.3763,-2.4176,-2.4726,-2.5135,-2.5314,-2.548,-2.5357,-2.4868,-2.4128,-2.3207,-2.1934,-2.068,-1.9486,-1.8286,-1.7772,-1.7485,-1.7485,-1.7485,-1.7485,-1.7485,-1.7485,-1.7485,-1.7485,-1.7485,-1.7485,-1.7485,-1.7485,-1.7426,-1.7309,-1.7138,-1.6785,-1.6366,-1.6366,-1.6307,-1.6183,-1.6016,-1.5903,0.0,0.0,0.0,0.0,0.0,0.0,0.0,0.0,0.0,0.0,-2.749,-2.749,-2.749,-2.749,-2.7673,-2.8268,-2.8381,-2.859,-2.9144,-2.9284,-2.9284,-2.9284,-2.931,-2.931,-2.931,-2.9748,-3.0038,-3.0038,-3.0583,-3.062,-2.9973,-2.9947,-2.9419,-2.8259,-2.8179,-2.7857,-2.7231,-2.719,-2.719,-2.719,-2.719,-2.719,-2.719,-2.719,-2.719,-2.719,-2.719,-2.719,-2.719,-2.719,-2.719,-2.719,-2.719,-2.6861,-2.6346,-2.5871,-2.537,-2.4831,-2.434,-2.4202,-2.4202,-2.4202,-2.4202,-2.4202,-2.4202,-2.4202,-2.4202,-2.4202,-2.4202,-2.4202,-2.4202,-2.4003,-2.3805,-2.3795,-2.3596,-2.3512,-2.3903,-2.4242,-2.4518,-2.4656,-2.4977,-2.5119,-2.4876,-2.4821,-2.4415,-2.3207,-2.1934,-2.0737,-1.9435,-1.8292,-1.7537,-1.7485,-1.7485,-1.7485,-1.7485,-1.7485,-1.7485,-1.7485,-1.7485,-1.7485,-1.7485,-1.7479,-1.7309,-1.7026,-1.6967,-1.6672,-1.6087,-1.6087,-1.5903,-1.5601,-1.5601,-1.5601,-2.8079,0.0,0.0,0.0,0.0,0.0,0.0,0.0,0.0,0.0,-2.7736,-2.7835,-2.757,-2.749,-2.7542,-2.7699,-2.7771,-2.7824,-2.796,-2.836,-2.8669,-2.8669,-2.9048,-2.931,-2.931,-2.9047,-2.8871,0.0,-2.8682,-2.86,-2.8747,-2.8729,-2.8526,-2.8219,-2.7748,-2.7383,-2.719,-2.719,-2.719,-2.719,-2.719,-2.719,-2.719,-2.719,-2.719,-2.719,-2.719,-2.719,-2.719,-2.719,-2.719,-2.719,-2.719,-2.6689,-2.5945,-2.5756,-2.5178,-2.4444,-2.4238,-2.4202,-2.4202,-2.4202,-2.4202,-2.4202,-2.4202,-2.4202,-2.4202,-2.4202,-2.4202,-2.4152,-2.3954,-2.3854,-2.3746,-2.3546,-2.3297,-2.3132,-2.3237,-2.3626,-2.4095,-2.4611,-2.4977,-2.5119,-2.4876,-2.4821,-2.4415,-2.3207,-2.2685,-2.1714,-1.955,-1.9036,-1.846,-1.7596,-1.7485,-1.7485,-1.7485,-1.7485,-1.7485,-1.7485,-1.7485,-1.7485,-1.7485,-1.725,-1.7079,-1.7026,-1.6554,-1.6259,-1.6087,-1.6087,-1.5903,-1.5601,-1.5601,-1.5601,0.0,0.0,0.0,0.0,0.0,0.0,-2.7881,-2.7835,-2.7769,0.0,-2.7703,-2.7769,-2.7523,-2.749,-2.749,-2.749,-2.749,-2.749,-2.749,-2.7811,-2.802,-2.802,-2.8127,-2.823,-2.823,-2.7893,-2.7684,-2.7684,-2.763,-2.7704,-2.7926,-2.764,-2.7594,-2.7777,-2.7383,-2.719,-2.719,-2.719,-2.719,-2.719,-2.719,-2.719,-2.719,-2.719,-2.719,-2.719,-2.719,-2.719,-2.719,-2.719,-2.719,-2.719,-2.719,-2.688,-2.6357,-2.6107,-2.5523,-2.4822,-2.4412,-2.4201,-2.4174,-2.395,-2.4064,-2.4202,-2.4202,-2.4202,-2.4202,-2.4202,-2.4202,-2.4152,-2.4003,-2.3805,-2.3596,-2.3447,-2.3097,-2.2846,-2.2846,-2.3289,-2.384,-2.4188,-2.4717,-2.497,-2.4821,-2.4821,-2.4535,-2.384,-2.332,-2.2289,-2.0286,-1.9601,-1.8861,-1.7655,-1.7485,-1.7485,-1.7485,-1.7485,-1.7426,-1.7309,-1.7309,-1.725,-1.7067,-1.6897,-1.6779,-1.6779,-1.6431,-1.6194,-1.6087,-1.5963,-1.5779,-1.5601,-1.5601,-1.5601,0.0,0.0,0.0,0.0,0.0,0.0,-2.7603,-2.7523,-2.757,-2.749,-2.7536,-2.757,-2.749,-2.749,-2.749,-2.749,-2.749,-2.749,-2.749,-2.749,-2.749,-2.749,-2.7019,-2.6679,-2.6679,-2.6586,-2.6502,-2.6502,-2.6993,-2.7245,-2.7115,-2.6709,-2.6668,-2.7087,-2.7156,-2.719,-2.719,-2.719,-2.719,-2.719,-2.719,-2.719,-2.719,-2.719,-2.719,-2.719,-2.719,-2.719,-2.719,-2.719,-2.719,-2.719,-2.719,-2.719,-2.7154,-2.662,-2.6082,-2.5552,-2.4615,-2.426,-2.4137,-2.3627,-2.3822,-2.4202,-2.4202,-2.4202,-2.4202,-2.4202,-2.4202,-2.4202,-2.4152,-2.3805,-2.3456,-2.3356,-2.2996,-2.2644,-2.2603,-2.3186,-2.3674,-2.3699,-2.4307,-2.4821,-2.4821,-2.4821,-2.4821,-2.4821,-2.3904,-2.2741,-2.1472,-2.0343,-1.921,-1.783,-1.7713,-1.7655,-1.7485,-1.7485,-1.7367,-1.7079,-1.7085,-1.6903,-1.6596,-1.6537,-1.6478,-1.6478,-1.6419,-1.6307,-1.6022,-1.572,-1.5601,-1.5601,-1.5601,-1.5601,0.0,0.0,0.0,0.0,0.0,0.0,-2.7536,-2.7736,-2.7901,0.0,-2.7769,-2.7868,-2.757,-2.749,-2.749,-2.749,-2.749,-2.749,-2.749,-2.749,-2.749,-2.749,-2.7019,-2.6679,-2.6679,-2.5889,-2.5337,-2.5337,-2.539,-2.5408,-2.5399,-2.6081,-2.6547,-2.6651,-2.7013,-2.719,-2.719,-2.719,-2.719,-2.719,-2.719,-2.719,-2.719,-2.719,-2.719,-2.719,-2.719,-2.719,-2.719,-2.719,-2.719,-2.719,-2.719,-2.719,-2.7154,-2.662,-2.6082,-2.5552,-2.4615,-2.426,-2.4137,-2.3627,-2.3822,-2.4202,-2.4202,-2.4202,-2.4202,-2.4202,-2.4202,-2.4152,-2.3954,-2.3805,-2.3596,-2.3197,-2.2996,-2.2846,-2.2644,-2.3203,-2.3691,-2.3674,-2.4299,-2.4821,-2.4821,-2.4821,-2.4821,-2.4821,-2.459,-2.4016,-2.2805,-2.2402,-2.1437,-1.921,-1.8919,-1.8577,-1.7596,-1.7485,-1.7485,-1.7426,-1.7426,-1.725,-1.6903,-1.6661,-1.6425,-1.62,-1.5898,-1.5774,-1.572,-1.5655,-1.5601,-1.5601,-1.5601,-1.5601,0.0,0.0,0.0,-2.757,0.0,0.0,0.0,-2.7669,-2.7736,-2.7536,-2.7669,-2.7736,-2.7536,-2.749,-2.749,-2.749,-2.749,-2.749,-2.749,-2.7255,-2.7019,-2.6722,-2.6208,-2.5861,-2.5861,-2.5099,-2.4599,-2.4599,-2.4553,-2.4659,-2.49,-2.5406,-2.5961,-2.649,-2.6714,-2.6967,-2.719,-2.719,-2.719,-2.719,-2.719,-2.719,-2.719,-2.719,-2.719,-2.719,-2.719,-2.719,-2.719,-2.719,-2.719,-2.719,-2.719,-2.719,-2.7172,-2.6891,-2.6649,-2.6309,-2.535,-2.4858,-2.4582,-2.407,-2.3895,-2.3886,-2.4137,-2.4202,-2.4202,-2.4202,-2.4202,-2.4152,-2.4053,-2.3904,-2.3696,-2.3297,-2.3097,-2.2946,-2.2644,-2.3195,-2.3682,-2.3718,-2.429,-2.4821,-2.4821,-2.4821,-2.4821,-2.4821,-2.4821,-2.4359,-2.3151,-2.2974,-2.2289,-2.04,-2.0228,-1.994,-1.9363,-1.8745,-1.8344,-1.8163,-1.759,-1.7073,-1.6779,-1.649,-1.6135,-1.5844,-1.572,-1.5601,-1.5601,-1.5601,-1.5601,-1.5601,-1.5601,-1.5601,0.0,0.0,0.0,0.0,0.0,-2.7914,0.0,0.0,0.0,-2.749,-2.749,0.0,0.0,0.0,0.0,0.0,0.0,0.0,0.0,-2.682,0.0,-2.6242,-2.5499,-2.504,-2.5146,-2.4671,-2.4298,-2.42,-2.4298,-2.447,-2.4751,-2.4866,-2.5348,-2.6329,-2.6455,-2.6714,-2.7179,-2.719,-2.719,-2.719,-2.719,-2.719,-2.719,-2.719,-2.719,-2.719,-2.719,-2.719,-2.719,-2.719,-2.719,-2.719,-2.719,-2.719,-2.719,-2.719,-2.7209,-2.7053,-2.6115,-2.549,-2.4988,-2.4387,-2.3881,-2.3572,-2.4082,-2.4202,-2.4202,-2.4202,-2.4202,-2.4202,-2.4202,-2.4053,-2.3805,-2.3546,-2.3247,-2.2996,-2.2745,-2.3238,-2.3718,-2.3718,-2.429,-2.4821,-2.4821,-2.4821,-2.4821,-2.4821,-2.4821,-2.4479,-2.3496,-2.3328,-2.2854,-2.1593,-2.1472,-2.1358,-2.1123,-1.9998,-1.9203,-1.89,-1.776,-1.6961,-1.6602,-1.6259,-1.5963,-1.5601,-1.5601,-1.5601,-1.5601,-1.5601,-1.5601,-1.5601,-1.5601,-1.5601,0.0,0.0,0.0,0.0,-2.7523,0.0,0.0,0.0,-2.749,-2.749,0.0,0.0,0.0,0.0,0.0,0.0,0.0,0.0,-2.5493,-2.6092,-2.685,-2.7255,-2.5953,-2.5229,-2.5756,-2.5252,-2.4707,-2.4236,-2.4635,-2.473,-2.4305,-2.4682,-2.5187,-2.5784,-2.6232,-2.6714,-2.7179,-2.719,-2.719,-2.719,-2.719,-2.719,-2.719,-2.719,-2.719,-2.719,-2.719,-2.719,-2.719,-2.719,-2.719,-2.719,-2.719,-2.719,-2.719,-2.719,-2.7209,-2.7053,-2.6115,-2.549,-2.494,-2.4056,-2.3653,-2.3572,-2.4082,-2.4202,-2.4202,-2.4202,-2.4202,-2.4202,-2.4202,-2.4202,-2.4102,-2.3805,-2.3555,-2.3297,-2.2996,-2.3341,-2.3718,-2.3718,-2.429,-2.4821,-2.4821,-2.4821,-2.4821,-2.4821,-2.4821,-2.4765,-2.459,-2.459,-2.4128,-2.2918,-2.2805,-2.2338,-2.118,-1.9998,-1.9261,-1.9261,-1.8117,-1.7309,-1.6961,-1.6377,-1.5963,-1.5601,-1.5601,-1.5601,-1.5601,-1.5601,-1.5601,-1.5601,-1.5601,-1.5601,0.0,0.0,0.0,0.0,0.0,0.0,-2.7623,0.0,-2.749,0.0,0.0,0.0,0.0,0.0,0.0,0.0,-2.7333,0.0,0.0,0.0,-2.6082,0.0,0.0,0.0,-2.5406,-2.5146,-2.4767,-2.4225,-2.4707,-2.4767,-2.4225,-2.4395,-2.4728,-2.5233,-2.5761,-2.6278,-2.6783,-2.7041,-2.719,-2.719,-2.719,-2.719,-2.719,-2.719,-2.719,-2.719,-2.719,-2.719,-2.719,-2.719,-2.719,-2.719,-2.719,-2.719,-2.719,-2.719,-2.7417,-2.7566,-2.6869,-2.598,-2.4942,-2.3666,-2.3354,-2.3572,-2.4082,-2.4102,-2.4003,-2.4152,-2.4003,-2.3746,-2.3954,-2.3845,-2.3655,-2.3397,-2.3247,-2.3097,-2.2846,-2.3246,-2.3682,-2.3718,-2.429,-2.4821,-2.4821,-2.4821,-2.4821,-2.4821,-2.4821,-2.4821,-2.4821,-2.4821,-2.459,-2.4128,-2.4016,-2.3552,-2.2281,-2.108,-2.0056,-1.9319,-1.8,-1.6961,-1.6495,-1.6205,-1.5963,-1.5601,-1.5601,-1.5601,-1.5601,-1.5601,-1.5601,-1.5601,-1.5601,-1.5601,-2.8519,0.0,0.0,0.0,0.0,0.0,0.0,0.0,0.0,0.0,0.0,0.0,0.0,0.0,0.0,0.0,0.0,-2.7338,0.0,-2.6392,0.0,0.0,0.0,0.0,0.0,-2.5075,-2.5016,-2.4467,-2.4945,-2.4945,-2.4236,-2.42,-2.4418,-2.49,-2.544,-2.5957,-2.6501,-2.6978,-2.719,-2.719,-2.719,-2.719,-2.719,-2.719,-2.719,-2.719,-2.719,-2.719,-2.719,-2.719,-2.719,-2.719,-2.719,-2.719,-2.719,-2.719,-2.7552,-2.7908,-2.7403,-2.625,-2.4784,-2.3231,-2.3004,-2.3407,-2.3859,-2.3962,-2.3954,-2.4053,-2.3805,-2.3546,-2.3646,-2.3555,-2.3347,-2.3147,-2.3046,-2.2981,-2.2883,-2.328,-2.3717,-2.3802,-2.4359,-2.4821,-2.4821,-2.4821,-2.4821,-2.4821,-2.4821,-2.4821,-2.4821,-2.4821,-2.4821,-2.4821,-2.4479,-2.3896,-2.2966,-2.1415,-1.9927,-1.8622,-1.7479,-1.6608,-1.6146,-1.6087,-1.5963,-1.5601,-1.5601,-1.5601,-1.5601,-1.5601,-1.5601,-1.5601,-1.5601,-1.5601,0.0,0.0,0.0,-2.7723,0.0,0.0,0.0,0.0,-2.749,0.0,0.0,0.0,0.0,0.0,0.0,0.0,0.0,0.0,0.0,0.0,0.0,0.0,0.0,0.0,0.0,-2.5255,-2.5616,-2.5016,-2.5546,-2.537,-2.4261,-2.42,-2.4418,-2.49,-2.544,-2.5957,-2.6501,-2.6978,-2.719,-2.719,-2.719,-2.719,-2.719,-2.719,-2.719,-2.719,-2.719,-2.719,-2.719,-2.719,-2.719,-2.719,-2.719,-2.719,-2.719,-2.719,-2.7552,-2.7908,-2.7403,-2.6041,-2.429,-2.2789,-2.2584,-2.2995,-2.3398,-2.384,-2.4152,-2.3904,-2.3805,-2.3755,-2.3497,-2.3406,-2.3397,-2.3406,-2.3197,-2.3101,-2.3374,-2.36,-2.3776,-2.4145,-2.4538,-2.4821,-2.4821,-2.4821,-2.4821,-2.4821,-2.4821,-2.4821,-2.4821,-2.4821,-2.4821,-2.4821,-2.3728,-2.291,-2.254,-2.0258,-1.8202,-1.6708,-1.6537,-1.6366,-1.6081,-1.6087,-1.5963,-1.5601,-1.5601,-1.5601,-1.5601,-1.5601,-1.5601,-1.5601,-1.5601,-1.5601,-3.0264,-3.0149,-3.0074,-2.868,-2.8744,0.0,0.0,0.0,0.0,0.0,0.0,0.0,0.0,0.0,0.0,0.0,0.0,0.0,0.0,0.0,0.0,0.0,0.0,0.0,0.0,0.0,-2.4725,-2.4494,-2.5002,-2.4981,-2.4236,-2.42,-2.4269,-2.443,-2.5268,-2.5796,-2.5968,-2.6806,-2.719,-2.719,-2.719,-2.719,-2.719,-2.719,-2.719,-2.719,-2.719,-2.719,-2.719,-2.719,-2.719,-2.719,-2.719,-2.719,-2.719,-2.719,-2.7293,-2.7378,-2.6542,-2.5883,-2.5105,-2.3702,-2.3324,-2.3444,-2.3479,-2.3493,-2.3559,-2.3971,-2.3805,-2.3546,-2.3646,-2.3397,-2.3147,-2.3147,-2.2946,-2.2849,-2.3135,-2.3461,-2.3776,-2.4153,-2.4492,-2.4821,-2.4821,-2.4821,-2.4821,-2.4821,-2.4821,-2.4821,-2.4821,-2.4821,-2.4821,-2.4821,-2.4415,-2.3488,-2.1692,-1.9132,-1.7244,-1.6312,-1.6253,-1.6076,-1.5779,-1.5779,-1.572,-1.5601,-1.5601,-1.5601,-1.5601,-1.5601,-1.5601,-1.5601,-1.5601,-1.5601,-3.1201,-3.1175,-3.1131,-2.9401,-2.9376,-2.9407,-2.802,-2.7703,-2.7703,0.0,0.0,0.0,0.0,0.0,0.0,0.0,0.0,0.0,0.0,-2.5169,0.0,0.0,0.0,0.0,0.0,-2.3992,-2.4159,-2.447,-2.4671,-2.459,-2.4225,-2.42,-2.42,-2.42,-2.5187,-2.5716,-2.5716,-2.6686,-2.719,-2.719,-2.719,-2.719,-2.719,-2.719,-2.719,-2.719,-2.719,-2.719,-2.719,-2.719,-2.719,-2.719,-2.719,-2.719,-2.719,-2.719,-2.719,-2.7056,-2.6133,-2.5777,-2.5527,-2.3991,-2.3588,-2.3596,-2.3186,-2.3165,-2.3275,-2.3548,-2.3588,-2.352,-2.3426,-2.3199,-2.2996,-2.2996,-2.2795,-2.274,-2.3203,-2.3494,-2.3819,-2.4342,-2.4595,-2.4821,-2.4821,-2.4821,-2.4821,-2.4821,-2.4821,-2.4821,-2.4821,-2.4821,-2.4821,-2.4821,-2.4415,-2.3263,-2.113,-1.9016,-1.7525,-1.6767,-1.6543,-1.6188,-1.5596,-1.5601,-1.5601,-1.5601,-1.5601,-1.5601,-1.5601,-1.5601,-1.5601,-1.5601,-1.5601,-1.5601]},{"header":{"parameterUnit":"m.s-1","parameterCategory":1,"la1":30.6,"la2":29.2853,"lo1":-89.7004,"lo2":-87.6739,"dy":0.0162,"dx":0.0183,"nx":112,"ny":82,"refTime":"2023-05-02T18:00:00:Z","depth":0,"parameterNumber":3,"parameterNumberName":"V-component_of_WINDS"},"data":[0.0,0.0,0.0,0.0,0.0,0.0,0.0,0.0,0.0,0.0,0.0,0.0,0.0,0.0,0.0,0.0,0.0,0.0,0.0,0.0,0.0,0.0,0.0,0.0,0.0,0.0,0.0,0.0,0.0,0.0,0.0,0.0,0.0,0.0,0.0,0.0,0.0,0.0,0.0,0.0,0.0,0.0,0.0,0.0,0.0,0.0,0.0,0.0,0.0,0.0,0.0,0.0,0.0,0.0,0.0,0.0,0.0,0.0,0.0,0.0,0.0,0.0,0.0,0.0,0.0,0.0,0.0,0.0,0.0,0.0,0.0,0.0,0.0,0.0,0.0,0.0,0.0,0.0,0.0,0.0,0.0,0.0,0.0,0.0,0.0,0.0,0.0,0.0,0.0,0.0,2.9481,2.9598,2.9886,3.0122,3.0228,3.0425,3.054,3.0485,0.0,0.0,0.0,0.0,0.0,0.0,0.0,0.0,0.0,0.0,0.0,0.0,0.0,0.0,0.0,0.0,0.0,0.0,0.0,0.0,0.0,0.0,0.0,0.0,0.0,0.0,0.0,0.0,0.0,0.0,0.0,0.0,0.0,0.0,0.0,0.0,0.0,0.0,0.0,0.0,0.0,0.0,0.0,0.0,0.0,0.0,0.0,0.0,0.0,0.0,0.0,0.0,0.0,0.0,0.0,0.0,0.0,0.0,0.0,0.0,0.0,0.0,0.0,0.0,0.0,0.0,0.0,0.0,0.0,0.0,0.0,0.0,0.0,0.0,0.0,0.0,0.0,0.0,0.0,0.0,0.0,0.0,0.0,0.0,0.0,0.0,0.0,0.0,0.0,0.0,0.0,0.0,0.0,0.0,0.0,0.0,0.0,0.0,0.0,0.0,0.0,0.0,0.0,0.0,2.954,2.9664,2.9832,2.9945,2.995,3.0203,3.0253,3.003,0.0,0.0,0.0,0.0,0.0,0.0,0.0,0.0,0.0,0.0,0.0,0.0,0.0,0.0,0.0,0.0,0.0,0.0,0.0,0.0,0.0,0.0,0.0,0.0,0.0,0.0,0.0,0.0,0.0,0.0,0.0,0.0,0.0,0.0,0.0,0.0,0.0,0.0,0.0,0.0,0.0,0.0,0.0,0.0,0.0,0.0,0.0,0.0,0.0,0.0,0.0,0.0,0.0,0.0,0.0,0.0,0.0,0.0,0.0,0.0,0.0,0.0,0.0,0.0,0.0,0.0,0.0,0.0,0.0,0.0,0.0,0.0,0.0,0.0,0.0,0.0,0.0,0.0,0.0,0.0,0.0,0.0,0.0,0.0,0.0,0.0,0.0,0.0,0.0,0.0,0.0,0.0,0.0,0.0,0.0,0.0,0.0,0.0,0.0,0.0,0.0,0.0,0.0,2.955,2.9636,2.9683,2.9815,2.9897,2.9897,3.0144,3.0216,3.0015,3.0117,0.0,0.0,0.0,0.0,0.0,0.0,0.0,0.0,0.0,0.0,0.0,0.0,0.0,0.0,0.0,0.0,0.0,0.0,0.0,0.0,0.0,0.0,0.0,0.0,0.0,0.0,0.0,0.0,0.0,0.0,0.0,0.0,0.0,0.0,0.0,0.0,0.0,0.0,0.0,0.0,0.0,0.0,0.0,0.0,0.0,0.0,0.0,0.0,0.0,0.0,0.0,0.0,0.0,0.0,0.0,0.0,0.0,0.0,0.0,0.0,0.0,0.0,0.0,0.0,0.0,0.0,0.0,0.0,0.0,0.0,0.0,0.0,0.0,0.0,0.0,0.0,0.0,0.0,0.0,0.0,0.0,0.0,0.0,0.0,0.0,0.0,0.0,0.0,0.0,0.0,0.0,0.0,0.0,0.0,0.0,0.0,0.0,0.0,0.0,0.0,0.0,0.0,2.9626,2.9683,2.9683,2.9782,2.9857,2.9857,3.0073,3.0144,3.0007,3.003,0.0,0.0,0.0,0.0,0.0,0.0,0.0,0.0,0.0,0.0,0.0,0.0,0.0,0.0,0.0,0.0,0.0,0.0,0.0,0.0,0.0,0.0,0.0,0.0,0.0,0.0,0.0,0.0,0.0,0.0,0.0,0.0,0.0,0.0,0.0,0.0,0.0,0.0,0.0,0.0,0.0,0.0,0.0,0.0,0.0,0.0,0.0,0.0,0.0,0.0,0.0,0.0,0.0,0.0,0.0,0.0,0.0,0.0,0.0,0.0,0.0,0.0,0.0,0.0,0.0,0.0,0.0,0.0,0.0,0.0,0.0,0.0,0.0,0.0,0.0,0.0,0.0,0.0,0.0,0.0,0.0,0.0,0.0,0.0,0.0,0.0,0.0,0.0,0.0,0.0,0.0,0.0,0.0,0.0,0.0,0.0,0.0,0.0,0.0,0.0,0.0,0.0,2.9521,2.9607,2.9607,2.9664,2.971,2.971,2.9849,2.9883,2.9738,2.9849,0.0,0.0,0.0,0.0,0.0,0.0,0.0,0.0,0.0,0.0,0.0,0.0,0.0,0.0,0.0,0.0,0.0,0.0,0.0,0.0,0.0,0.0,0.0,0.0,0.0,0.0,0.0,0.0,0.0,0.0,0.0,0.0,0.0,0.0,0.0,0.0,0.0,0.0,0.0,0.0,0.0,0.0,0.0,0.0,0.0,0.0,0.0,0.0,0.0,0.0,0.0,0.0,0.0,0.0,0.0,0.0,0.0,0.0,0.0,0.0,0.0,0.0,0.0,0.0,0.0,0.0,0.0,0.0,0.0,0.0,0.0,0.0,0.0,0.0,0.0,0.0,0.0,0.0,0.0,0.0,0.0,0.0,0.0,0.0,0.0,0.0,0.0,0.0,0.0,0.0,0.0,0.0,0.0,0.0,0.0,0.0,0.0,0.0,0.0,0.0,0.0,0.0,2.9472,2.955,0.0,2.9617,2.9645,2.9701,2.9815,2.9841,2.972,0.0,0.0,0.0,0.0,0.0,0.0,0.0,0.0,0.0,0.0,0.0,0.0,0.0,0.0,0.0,0.0,0.0,0.0,0.0,0.0,0.0,0.0,0.0,0.0,0.0,0.0,0.0,0.0,0.0,0.0,0.0,0.0,0.0,0.0,0.0,0.0,0.0,0.0,0.0,0.0,0.0,0.0,0.0,0.0,0.0,0.0,0.0,0.0,0.0,0.0,0.0,0.0,0.0,0.0,0.0,0.0,0.0,0.0,0.0,0.0,0.0,0.0,0.0,0.0,0.0,0.0,0.0,0.0,0.0,0.0,0.0,0.0,0.0,0.0,0.0,0.0,0.0,0.0,0.0,0.0,0.0,0.0,0.0,0.0,0.0,0.0,0.0,0.0,0.0,0.0,0.0,0.0,0.0,0.0,0.0,0.0,0.0,0.0,0.0,0.0,0.0,0.0,2.9401,2.9433,2.9482,0.0,2.9588,2.9617,2.9655,2.9806,2.9832,2.9673,0.0,0.0,0.0,0.0,0.0,0.0,0.0,0.0,0.0,0.0,0.0,0.0,0.0,0.0,0.0,0.0,0.0,0.0,0.0,0.0,0.0,0.0,0.0,0.0,0.0,0.0,0.0,0.0,0.0,0.0,0.0,0.0,0.0,0.0,0.0,0.0,0.0,0.0,0.0,0.0,0.0,0.0,0.0,0.0,0.0,0.0,0.0,0.0,0.0,0.0,0.0,0.0,0.0,0.0,0.0,0.0,0.0,0.0,0.0,0.0,0.0,0.0,0.0,0.0,0.0,0.0,0.0,0.0,0.0,0.0,0.0,0.0,0.0,0.0,0.0,0.0,0.0,0.0,0.0,0.0,0.0,0.0,0.0,0.0,0.0,0.0,0.0,0.0,0.0,0.0,0.0,0.0,0.0,0.0,0.0,0.0,0.0,0.0,0.0,0.0,0.0,0.0,2.9396,2.9419,2.9441,2.953,2.9587,2.9635,2.9635,2.9818,2.9834,0.0,0.0,0.0,0.0,0.0,0.0,0.0,0.0,0.0,0.0,0.0,0.0,0.0,0.0,0.0,0.0,0.0,0.0,0.0,0.0,0.0,0.0,0.0,0.0,0.0,0.0,0.0,0.0,0.0,0.0,0.0,0.0,0.0,0.0,0.0,0.0,0.0,0.0,0.0,0.0,0.0,0.0,0.0,0.0,0.0,0.0,0.0,0.0,0.0,0.0,0.0,0.0,0.0,0.0,0.0,0.0,0.0,0.0,0.0,0.0,0.0,0.0,0.0,0.0,0.0,0.0,0.0,0.0,0.0,0.0,0.0,0.0,0.0,0.0,0.0,0.0,0.0,0.0,0.0,0.0,0.0,0.0,0.0,0.0,0.0,0.0,0.0,0.0,0.0,0.0,0.0,0.0,0.0,0.0,0.0,0.0,0.0,0.0,0.0,0.0,0.0,0.0,0.0,3.0251,3.0745,3.112,3.1193,3.1214,3.1235,3.1296,3.1349,3.1379,3.1368,0.0,0.0,0.0,0.0,0.0,0.0,0.0,0.0,0.0,0.0,0.0,0.0,0.0,0.0,0.0,0.0,0.0,0.0,0.0,0.0,0.0,0.0,0.0,0.0,0.0,0.0,0.0,0.0,0.0,0.0,0.0,0.0,0.0,0.0,0.0,0.0,0.0,0.0,0.0,0.0,0.0,0.0,0.0,0.0,0.0,0.0,0.0,0.0,0.0,0.0,0.0,0.0,0.0,0.0,0.0,0.0,0.0,0.0,0.0,0.0,0.0,0.0,0.0,0.0,0.0,0.0,0.0,0.0,0.0,0.0,0.0,0.0,0.0,0.0,0.0,0.0,0.0,0.0,0.0,0.0,0.0,0.0,0.0,0.0,0.0,0.0,0.0,0.0,0.0,0.0,0.0,0.0,0.0,0.0,0.0,0.0,0.0,0.0,0.0,0.0,0.0,0.0,3.1087,3.1496,3.1823,3.1897,3.1897,3.1908,3.1971,3.2029,3.2071,3.2067,0.0,0.0,0.0,0.0,0.0,0.0,0.0,0.0,0.0,0.0,0.0,0.0,0.0,0.0,0.0,0.0,0.0,0.0,0.0,0.0,0.0,0.0,0.0,0.0,0.0,0.0,0.0,0.0,0.0,0.0,0.0,0.0,0.0,0.0,0.0,0.0,0.0,0.0,0.0,0.0,0.0,0.0,0.0,0.0,0.0,0.0,0.0,0.0,0.0,0.0,0.0,0.0,0.0,0.0,0.0,0.0,0.0,0.0,0.0,0.0,0.0,0.0,0.0,0.0,0.0,0.0,0.0,0.0,0.0,0.0,0.0,0.0,0.0,0.0,0.0,0.0,0.0,0.0,0.0,0.0,0.0,0.0,0.0,0.0,0.0,0.0,0.0,0.0,0.0,0.0,0.0,0.0,0.0,0.0,0.0,0.0,0.0,0.0,0.0,0.0,0.0,0.0,3.1894,3.1979,3.2046,3.211,3.211,3.211,3.211,3.2298,3.2359,3.223,0.0,0.0,0.0,0.0,0.0,0.0,0.0,0.0,0.0,0.0,0.0,0.0,0.0,0.0,0.0,0.0,0.0,0.0,0.0,0.0,0.0,0.0,0.0,0.0,0.0,0.0,0.0,0.0,0.0,0.0,0.0,0.0,0.0,0.0,0.0,0.0,0.0,0.0,0.0,0.0,0.0,0.0,0.0,0.0,0.0,0.0,0.0,0.0,0.0,0.0,0.0,0.0,0.0,0.0,0.0,0.0,0.0,0.0,0.0,0.0,2.7979,0.0,0.0,0.0,0.0,0.0,0.0,0.0,0.0,0.0,0.0,0.0,0.0,0.0,0.0,0.0,0.0,0.0,0.0,0.0,0.0,0.0,0.0,0.0,0.0,0.0,0.0,0.0,0.0,0.0,0.0,0.0,0.0,0.0,0.0,0.0,0.0,0.0,0.0,0.0,0.0,0.0,3.273,3.3287,3.3689,3.3719,3.3719,3.3719,3.3719,3.3794,3.3863,3.3881,3.3982,0.0,0.0,0.0,0.0,0.0,0.0,0.0,0.0,0.0,0.0,0.0,0.0,0.0,0.0,0.0,0.0,0.0,0.0,0.0,0.0,0.0,0.0,0.0,0.0,0.0,0.0,0.0,0.0,0.0,0.0,0.0,0.0,0.0,0.0,0.0,0.0,0.0,0.0,0.0,0.0,0.0,0.0,0.0,0.0,0.0,0.0,0.0,0.0,0.0,0.0,0.0,0.0,0.0,0.0,0.0,0.0,0.0,0.0,0.0,0.0,2.8853,0.0,0.0,0.0,0.0,0.0,0.0,0.0,0.0,0.0,0.0,0.0,0.0,0.0,0.0,0.0,0.0,0.0,0.0,0.0,0.0,0.0,0.0,0.0,0.0,0.0,0.0,0.0,0.0,0.0,0.0,0.0,0.0,0.0,0.0,0.0,0.0,0.0,0.0,0.0,0.0,3.3566,3.3913,3.4161,3.4197,3.4233,3.4245,3.4245,3.4305,3.4393,3.445,3.4484,0.0,0.0,0.0,0.0,0.0,0.0,0.0,0.0,0.0,0.0,0.0,0.0,0.0,0.0,0.0,0.0,0.0,0.0,0.0,0.0,0.0,0.0,0.0,0.0,0.0,0.0,0.0,0.0,0.0,0.0,0.0,0.0,0.0,0.0,0.0,0.0,0.0,0.0,0.0,0.0,0.0,0.0,0.0,0.0,0.0,0.0,0.0,0.0,0.0,0.0,0.0,0.0,0.0,2.8542,2.887,2.9402,2.9522,2.9485,2.9342,2.9622,2.9624,2.9505,2.9954,0.0,0.0,0.0,0.0,0.0,0.0,0.0,0.0,0.0,0.0,0.0,0.0,0.0,0.0,0.0,0.0,0.0,0.0,0.0,0.0,0.0,0.0,3.274,3.2127,3.2453,3.2722,3.2121,0.0,0.0,0.0,0.0,0.0,0.0,0.0,0.0,0.0,0.0,0.0,3.4185,3.4161,3.4136,3.4197,3.4245,3.4281,3.4293,3.4351,3.4439,3.4495,3.4506,3.4539,0.0,0.0,0.0,0.0,0.0,0.0,0.0,0.0,0.0,0.0,0.0,0.0,0.0,0.0,0.0,0.0,0.0,0.0,0.0,0.0,0.0,0.0,0.0,0.0,0.0,0.0,0.0,0.0,0.0,0.0,0.0,0.0,2.5025,2.5048,0.0,0.0,0.0,0.0,0.0,0.0,0.0,0.0,0.0,0.0,0.0,0.0,0.0,2.6337,2.6686,2.7673,2.8377,2.8842,2.9126,2.9317,2.9419,2.9999,3.0252,3.0267,3.0808,0.0,3.0543,3.1181,0.0,0.0,0.0,0.0,0.0,0.0,0.0,0.0,0.0,0.0,0.0,0.0,0.0,0.0,0.0,0.0,0.0,0.0,0.0,0.0,0.0,0.0,3.3618,3.354,3.3582,3.3618,3.354,3.2508,3.1819,3.2533,3.2644,3.2884,0.0,0.0,0.0,0.0,0.0,0.0,3.4197,3.4197,3.4185,3.4197,3.4209,3.4233,3.4293,3.4351,3.4439,3.4495,3.455,3.4602,3.4602,3.4728,0.0,0.0,0.0,0.0,0.0,0.0,0.0,0.0,0.0,0.0,0.0,0.0,0.0,0.0,0.0,0.0,0.0,0.0,0.0,0.0,0.0,0.0,0.0,0.0,0.0,0.0,0.0,0.0,0.0,2.5005,2.5005,2.5005,2.5005,2.5005,0.0,0.0,0.0,0.0,0.0,0.0,0.0,0.0,0.0,2.6455,2.7219,2.7693,2.7881,2.861,2.9289,2.9895,3.0055,3.0296,3.058,3.0885,3.0963,3.0849,3.1116,3.1383,3.1589,3.1504,3.1638,3.1859,0.0,0.0,0.0,0.0,3.1875,3.1803,3.2436,3.2188,3.1739,3.2622,0.0,0.0,0.0,0.0,0.0,0.0,0.0,3.3569,3.3748,3.3807,3.3807,3.3807,3.3807,3.3807,3.3807,3.3277,3.2943,3.3344,3.3456,3.3604,3.3993,0.0,0.0,0.0,0.0,3.4099,3.4136,3.4148,3.4161,3.4197,3.4233,3.4269,3.4293,3.4351,3.4397,3.445,3.4473,3.4506,3.4539,3.4612,3.4623,0.0,0.0,0.0,0.0,0.0,0.0,0.0,0.0,0.0,0.0,0.0,0.0,0.0,0.0,0.0,0.0,0.0,0.0,0.0,0.0,0.0,0.0,0.0,0.0,0.0,0.0,0.0,0.0,2.5005,2.5005,2.5005,2.5005,2.5005,0.0,0.0,0.0,0.0,0.0,0.0,2.6261,2.6566,2.6953,2.7451,2.8273,2.8702,2.8702,2.9454,3.0116,3.0675,3.0955,3.1344,3.1828,3.1808,3.1769,3.1765,3.1765,3.207,3.253,3.1848,3.1684,3.191,3.2003,3.2039,3.2059,3.2122,3.2141,3.2177,3.2465,3.2138,3.1756,3.2652,3.2647,3.2459,3.3158,0.0,0.0,0.0,0.0,3.438,3.4435,3.4431,3.4431,3.4431,3.4266,3.4119,3.4119,3.3967,3.3847,3.3855,3.3908,3.3959,3.4011,0.0,0.0,0.0,0.0,3.4023,3.4074,3.4086,3.4124,3.4173,3.4233,3.4281,3.4293,3.434,3.4374,3.4386,3.4386,3.4439,3.4495,3.4528,3.458,3.4602,0.0,0.0,0.0,0.0,0.0,0.0,0.0,0.0,0.0,0.0,0.0,0.0,0.0,0.0,0.0,0.0,0.0,0.0,0.0,0.0,0.0,0.0,0.0,0.0,0.0,0.0,0.0,0.0,0.0,2.5005,2.5005,0.0,0.0,0.0,0.0,2.5945,2.6609,2.702,2.7051,2.7073,2.7089,2.712,2.7803,2.8142,2.8142,2.9881,3.07,3.0626,3.1642,3.2335,3.274,3.2591,3.2827,3.3288,3.3288,3.3322,3.3288,3.2547,3.2727,3.3471,3.3488,3.3492,3.3533,3.3845,3.3941,3.3921,3.4254,3.414,3.3889,3.4274,3.4695,3.5178,3.5591,3.5839,0.0,0.0,3.608,3.6174,3.6174,3.6156,3.6156,3.6156,3.5536,3.4949,3.4949,3.438,3.3868,3.382,3.382,3.382,3.3802,0.0,3.3908,3.3908,3.3959,3.3998,3.3998,3.4061,3.4099,3.4099,3.4173,3.4233,3.4293,3.4305,3.4328,3.4404,3.4386,3.4439,3.4495,3.4623,3.4655,3.4612,3.4801,0.0,0.0,0.0,0.0,0.0,0.0,0.0,0.0,0.0,0.0,0.0,0.0,0.0,0.0,0.0,0.0,0.0,0.0,0.0,0.0,0.0,0.0,0.0,0.0,0.0,0.0,0.0,0.0,2.5602,2.5629,0.0,2.6309,2.6562,2.672,2.672,2.6957,2.7288,2.7715,2.8135,2.8616,2.9074,3.0048,3.0516,3.0423,3.1313,3.1701,3.157,3.2302,3.2696,3.2796,3.3113,3.3284,3.3406,3.3406,3.3677,3.4083,3.3812,3.3613,3.3469,3.3469,3.3469,3.349,3.3598,3.3639,3.3618,3.3764,3.3399,3.2943,3.3048,3.3711,3.449,3.4636,3.5065,3.5468,3.5199,3.5403,3.562,3.5434,3.5598,3.5805,3.5887,3.5868,3.5844,3.5844,3.562,3.5432,3.5404,3.4564,3.3855,3.3855,3.427,3.4637,3.4728,3.5197,3.5537,3.5537,3.5591,3.5658,3.5697,3.5723,3.5775,3.5851,3.5368,3.5107,3.5167,3.4645,3.4393,3.4495,3.4539,3.4572,3.4602,3.4759,3.4849,0.0,0.0,0.0,0.0,0.0,0.0,0.0,0.0,0.0,0.0,0.0,0.0,0.0,0.0,0.0,0.0,0.0,0.0,0.0,0.0,0.0,0.0,0.0,0.0,0.0,0.0,2.5871,2.6325,2.6372,2.6562,2.7051,2.7304,2.7541,2.7762,2.8015,2.8442,2.9106,2.9556,3.0014,3.0512,3.127,3.1614,3.1518,3.2046,3.2344,3.2442,3.2974,3.341,3.3719,3.4027,3.4322,3.4605,3.4605,3.5004,3.5639,3.5639,3.5368,3.4895,3.4641,3.4709,3.4928,3.4928,3.4928,3.4928,3.4928,3.459,3.421,3.4342,3.4901,3.5545,3.5685,3.6106,3.6521,3.6262,3.6252,3.6274,3.6077,3.6078,3.6157,3.6376,3.6469,3.6537,3.6674,3.6486,3.6303,3.6303,3.5446,3.4701,3.4701,3.5119,3.5473,3.5579,3.6039,3.6384,3.6426,3.6468,3.6537,3.6586,3.6613,3.6652,3.6705,3.6229,3.5957,3.5982,3.546,3.5103,3.491,3.4933,3.4978,3.5033,3.5128,3.5092,3.4908,0.0,0.0,0.0,0.0,0.0,0.0,0.0,0.0,0.0,0.0,0.0,0.0,0.0,0.0,0.0,0.0,0.0,0.0,0.0,0.0,0.0,0.0,0.0,2.6151,2.6656,2.7115,2.713,2.713,2.7146,2.7194,2.7778,2.8442,2.913,2.9832,3.0496,3.1176,3.1214,3.123,3.1246,3.1277,3.1293,3.1309,3.2029,3.2656,3.3148,3.3685,3.4494,3.551,3.5399,3.5975,3.7036,3.7036,3.7369,3.7905,3.7905,3.7922,3.7872,3.7134,3.7263,3.7905,3.7905,3.7905,3.7905,3.7905,3.7905,3.796,3.8351,3.8493,3.8565,3.8946,3.9178,3.9303,3.9262,3.8798,3.8296,3.8278,3.7829,3.7468,3.7862,3.7473,3.7128,3.7528,3.6978,3.6413,3.6413,3.6376,3.6358,3.6303,3.6321,3.6368,3.6421,3.6401,0.0,3.6551,3.6583,3.6597,3.6655,3.6721,3.676,3.676,3.6806,3.6819,3.6736,3.6839,3.6546,3.578,3.582,3.5878,3.5935,3.5946,3.5622,3.4984,0.0,0.0,0.0,0.0,0.0,0.0,0.0,0.0,0.0,0.0,0.0,0.0,0.0,0.0,0.0,0.0,0.0,0.0,0.0,0.0,0.0,0.0,2.7589,2.6893,2.6972,2.7288,2.7762,2.7826,2.8221,2.9255,2.9524,2.9896,3.0567,3.0828,3.1018,3.1182,3.1697,3.2218,3.2724,3.3198,3.365,3.4093,3.4156,3.4216,3.4278,3.4704,3.5308,3.6029,3.6375,3.6934,3.7655,3.7655,3.7745,3.7905,3.7905,3.8227,3.8616,3.7889,3.7719,3.7905,3.7905,3.7905,3.7905,3.7905,3.7905,3.7929,3.8031,3.8277,3.847,3.8282,3.8659,3.9031,3.8447,3.836,3.8391,3.8131,3.8419,3.8835,3.9125,3.9499,3.9853,4.007,3.9478,3.8909,3.8909,3.8432,3.7661,3.6505,3.6795,3.718,3.7191,3.7676,0.0,3.8088,3.8107,3.8133,3.826,3.827,3.8326,3.8419,3.792,3.7625,3.7722,3.72,3.6844,3.6714,3.6738,3.6749,3.6772,3.692,3.6904,0.0,0.0,0.0,0.0,0.0,0.0,0.0,0.0,0.0,0.0,0.0,0.0,0.0,0.0,0.0,0.0,0.0,0.0,0.0,0.0,0.0,0.0,2.8246,2.8489,2.841,2.8142,2.8205,2.8907,2.8986,2.9406,3.0512,3.0622,3.0907,3.1602,3.1918,3.2203,3.2487,3.3209,3.3794,3.4162,3.4486,3.4825,3.5282,3.5023,3.5049,3.5332,3.5417,3.5802,3.6428,3.6666,3.7134,3.7712,3.7947,3.8194,3.8464,3.8704,3.9056,3.9402,0.0,0.0,0.0,0.0,3.8819,3.8819,3.8819,3.8819,3.8819,3.8819,3.8979,3.9129,3.8899,3.9153,3.9405,3.8955,3.8758,3.8698,3.8704,3.8901,3.922,3.9706,4.0275,4.0754,4.0976,4.0694,4.0396,4.0396,4.0029,0.0,3.8028,3.7918,3.8006,3.8033,3.8426,3.8723,3.878,3.8765,3.8792,3.8939,3.8935,3.8979,3.9087,3.8701,0.0,0.0,0.0,3.7872,3.7606,3.7606,0.0,0.0,0.0,3.7709,3.7401,3.7566,0.0,0.0,3.6321,3.6353,0.0,0.0,0.0,0.0,0.0,0.0,0.0,0.0,0.0,0.0,0.0,0.0,0.0,0.0,0.0,0.0,2.9161,2.9453,3.0109,2.9706,2.9572,3.0212,3.0315,3.0575,3.127,3.1397,3.1744,3.2465,3.3151,3.3799,3.4383,0.0,0.0,0.0,0.0,3.5351,3.5575,3.5258,3.5484,3.6256,3.5944,3.6135,3.6769,3.6662,3.6922,3.7519,3.8067,3.8629,3.9232,3.9773,4.0045,4.0028,3.9377,3.9512,4.0096,4.0096,4.0096,4.0096,4.0096,0.0,0.0,4.0096,4.0096,4.0096,4.0096,4.0096,4.0096,4.0096,3.9639,3.9229,3.9703,3.9455,3.9307,4.0075,4.049,4.0781,4.1062,4.1161,4.1207,4.1174,4.1117,4.0857,4.0157,3.9368,3.883,3.8795,3.8735,3.8735,3.8881,3.8837,3.8851,3.8997,3.8993,0.0,3.9101,3.9156,3.9197,3.9197,3.9399,3.9183,3.8488,3.845,3.8112,3.7392,3.8203,3.8315,3.7664,3.7804,3.7908,3.7962,3.7851,3.78,0.0,0.0,0.0,0.0,0.0,0.0,0.0,0.0,0.0,0.0,0.0,0.0,0.0,0.0,0.0,2.8943,2.9525,3.0046,3.0188,3.0543,3.0835,3.1002,3.1018,3.1286,3.2023,3.2582,3.3182,3.3873,3.4573,3.5047,3.5173,3.5315,3.5591,3.6014,3.6001,3.6209,3.6699,3.6457,3.6429,3.6583,3.6446,0.0,3.7268,3.7238,3.7549,3.8124,3.8266,3.8629,3.9206,3.9339,3.967,4.0096,3.9943,3.9977,4.0096,4.0096,4.0096,4.0096,4.0096,4.0096,4.0096,4.0096,4.0096,4.0096,4.0096,4.0096,0.0,4.0096,3.9994,4.0017,4.0476,4.0781,4.1147,4.1792,4.2259,4.254,4.2393,4.2159,4.1897,4.156,4.1279,4.104,4.0875,4.0194,3.9457,3.8814,3.8707,3.8719,3.8807,3.8807,3.8851,3.8997,3.8993,3.9021,3.9101,3.9115,3.9142,3.9197,3.9399,3.9458,3.9345,3.9345,3.9289,3.912,3.9364,3.9396,3.9267,3.9501,3.9622,3.9613,3.8371,3.78,0.0,0.0,0.0,0.0,0.0,0.0,0.0,0.0,0.0,0.0,0.0,2.8858,0.0,0.0,2.9478,2.9549,3.0195,3.0828,3.12,3.1548,3.1744,3.1744,3.1744,3.2155,3.3209,3.3593,3.4083,3.4794,3.5505,3.5872,3.5802,3.6219,3.6508,3.6604,3.6604,3.6716,3.7015,3.6739,3.6631,3.6693,3.6569,3.6662,3.6952,3.6952,3.7118,3.7415,3.7709,3.8181,3.8794,3.9418,3.9825,4.0096,4.0096,4.0096,4.0096,4.0096,4.0096,4.0096,4.0096,4.0096,4.0096,4.0096,4.0096,4.0096,4.0096,4.0096,4.0096,4.0096,4.0096,4.0221,4.0683,4.0972,4.1276,4.1825,4.2236,4.2474,4.2318,4.225,4.2135,4.1926,4.1772,4.1524,4.1126,4.0887,4.0567,3.9997,3.957,3.931,3.9357,3.8989,3.8792,3.8939,3.8935,3.8993,3.9087,3.9129,3.917,3.9197,3.9373,3.9482,3.9546,3.9558,3.9571,3.9589,3.9672,3.9705,3.9705,3.9911,4.0036,4.0068,3.9309,3.8993,0.0,0.0,0.0,0.0,0.0,0.0,0.0,0.0,2.8747,2.8636,2.8684,2.8826,2.8967,2.9499,2.9986,3.0233,3.0856,3.1527,3.212,3.2451,3.2599,3.2599,3.2677,3.3151,3.434,3.4593,3.4896,3.5452,3.6117,3.6452,3.635,3.7032,3.7271,3.6938,3.6938,3.6938,3.6908,3.6616,3.6554,3.6662,3.6554,3.6492,3.6492,3.6492,3.6492,3.6554,3.7268,3.7911,3.8574,3.9653,4.0096,4.0096,4.0096,4.0096,4.0096,4.0096,4.0096,4.0096,4.0096,4.0096,4.0096,4.0096,4.0096,4.0096,4.0096,4.0096,4.0096,4.0096,4.0096,4.0204,4.0707,4.0849,4.0949,4.1455,4.1735,4.1881,4.1817,4.1884,4.1958,4.2056,4.2011,4.1823,4.1303,4.1491,4.156,4.1055,4.0494,4.0155,4.0152,3.9601,3.917,3.915,3.9146,3.9131,3.9106,3.9156,3.9183,3.9197,3.9301,3.9386,3.9469,3.9495,3.952,3.9583,3.9649,3.9689,3.9689,3.9792,3.9922,4.0026,4.0217,4.0299,2.5856,2.6663,2.7655,2.8244,2.8396,2.8444,0.0,0.0,2.8636,2.8597,2.8597,2.8774,2.9255,2.9524,2.9831,3.0452,3.1208,3.1753,3.1831,3.2924,3.372,3.372,3.3936,3.4313,3.4946,3.5606,3.5956,3.5843,3.6514,3.692,3.692,3.6998,3.6969,3.6723,3.6723,3.6662,3.6554,3.6523,3.6523,3.6523,3.6523,3.6492,3.6492,3.6492,3.6492,3.6569,3.7693,3.8546,3.9152,3.9825,4.0096,4.0096,4.0096,4.0096,4.0096,4.0096,4.0096,4.0096,4.0096,4.0096,4.0096,4.0096,4.0096,4.0096,4.0096,4.0096,4.0096,4.0096,4.0096,4.0246,4.0825,4.099,4.1128,4.1731,4.1881,4.1817,4.1507,4.1244,4.1153,4.1503,4.1378,4.1397,4.1966,4.2114,4.1755,4.0655,4.0767,4.0981,4.1043,4.0985,4.0698,4.0111,4.0052,3.98,3.9157,3.9115,3.9142,3.9197,3.921,3.9288,3.9405,3.9469,3.9495,3.9508,3.9577,3.9614,3.9614,3.9677,3.9728,3.9758,4.0598,4.0731,2.6566,2.7129,0.0,0.0,2.8411,2.8396,2.8468,2.8493,2.8493,2.8493,2.8777,2.9172,2.945,3.0196,3.0866,0.0,3.1939,3.2444,3.2444,3.3275,3.4039,3.4441,3.5018,3.5477,3.5718,3.6075,3.645,3.6814,3.7023,3.7075,3.6999,3.7015,3.6877,3.66,3.6662,3.6631,3.6492,3.6492,3.6492,3.6492,3.6492,3.6492,3.6492,3.6492,3.6492,3.6554,3.7401,3.8124,3.8712,3.9339,3.9773,4.0096,4.0096,4.0096,4.0096,4.0096,4.0096,4.0096,4.0096,4.0096,4.0096,4.0096,4.0096,4.0096,4.0096,4.0096,4.0096,4.0096,4.0096,4.0171,4.0427,4.0549,4.0645,4.0913,4.1094,4.1163,4.1018,4.0943,4.0961,4.1116,4.0677,4.0394,4.0688,4.0819,4.0669,4.0143,4.0818,4.1516,4.1852,4.1498,4.1138,4.0959,4.0997,4.0692,3.9918,3.9863,3.9654,3.918,3.9183,3.9256,3.9386,3.9457,3.952,3.9558,4.0052,4.0303,4.0303,4.0791,4.108,4.1153,4.156,4.1658,2.6975,0.0,0.0,2.821,2.8411,2.8411,2.8411,2.8411,2.8458,2.8642,2.9048,2.9545,3.0,3.0892,3.1646,3.1911,3.2431,3.2878,3.3037,3.3699,3.4413,3.5054,3.5931,3.6472,3.6472,3.656,3.6839,3.7314,3.7225,3.7105,3.7015,3.7015,3.6877,3.6662,3.6662,3.6662,3.6554,3.6523,3.6492,3.6492,3.6492,3.6492,3.6492,3.6492,3.6585,3.6785,3.7208,3.7738,3.8334,3.8767,3.9312,3.985,3.985,3.9944,4.0096,4.0096,4.0096,4.0096,4.0096,4.0096,4.0096,4.0096,4.0096,4.0096,4.0096,4.0096,4.0096,4.0096,4.0096,4.0113,4.0163,4.0213,4.033,4.0404,4.0551,4.0697,4.0745,4.0668,4.0636,4.086,4.0233,3.9767,3.9991,3.9931,3.9906,4.0089,4.0701,4.1343,4.1971,4.1572,4.1391,4.1789,4.1694,4.1349,4.0773,4.0717,4.0457,3.9825,3.9858,3.9927,4.0032,4.013,4.0176,4.0227,4.0822,4.1135,4.1135,4.1723,4.2057,4.2146,4.2391,4.258,0.0,0.0,2.7004,2.8113,2.8411,2.8411,2.8411,2.8411,2.8596,2.9258,2.9371,2.9812,3.1116,3.1378,3.1624,3.2287,3.2508,3.2783,3.3319,3.4226,3.507,3.5622,3.656,3.7163,0.0,3.7177,3.7118,3.703,3.6999,3.6999,3.7015,3.7015,3.7015,3.6984,3.68,3.6693,3.6693,3.6569,3.6492,3.6492,3.6492,3.6492,3.6492,3.6492,3.6816,3.7387,3.7387,3.7738,3.8306,3.8306,3.8684,3.9232,3.9232,3.9575,4.0096,4.0096,4.0096,4.0096,4.0096,4.0096,4.0096,4.0096,4.0096,4.0096,4.0096,4.0096,4.0096,4.0096,4.0096,4.0138,4.0263,4.0305,4.0379,4.0624,4.0697,4.0745,4.0864,4.0267,3.9957,4.0756,4.0233,3.9939,4.0739,4.0227,3.9991,4.0844,4.0324,4.0164,4.1031,4.122,4.1656,4.2566,4.2028,4.159,4.1571,4.1553,4.1553,4.1534,4.1603,4.1628,4.1628,4.1768,4.1817,4.1817,4.1922,4.1967,4.1967,4.1986,4.2004,4.2023,4.2862,4.335,0.0,0.0,2.6351,2.7097,2.7261,2.7482,2.8262,2.8485,2.8784,2.9833,3.0428,3.0859,3.1332,3.1751,3.2136,3.2351,3.2425,3.2699,3.3306,3.41,3.4854,3.5489,3.6335,0.0,0.0,0.0,0.0,3.7331,3.7121,3.703,3.7119,3.6907,3.6862,3.7015,3.68,3.6754,3.6908,3.6739,3.6631,3.6631,3.6554,3.6492,3.6492,3.6492,3.66,3.68,3.68,3.7148,3.7709,3.7709,3.8294,3.9206,3.9206,3.9566,4.0096,4.0096,4.0096,4.0096,4.0096,4.0096,4.0096,4.0096,4.0434,4.0832,4.0832,4.1153,4.1568,4.1568,4.1568,4.1568,4.1611,4.1689,4.1793,4.1971,4.2098,4.2223,4.2388,4.2206,4.2102,4.2378,4.1792,4.1302,4.1585,4.1478,4.1466,4.1814,4.1211,4.0838,4.1123,4.1317,4.1755,4.2616,4.251,4.2389,4.2389,4.2389,4.2166,4.1627,4.1663,4.1706,4.1706,4.1829,4.1892,4.1892,4.2522,4.2862,4.2862,4.3393,4.3656,4.3675,4.397,4.4129,2.566,2.5866,2.6072,2.6769,2.6987,2.728,2.8272,2.85,2.88,2.9853,3.0428,3.0802,3.1043,3.1647,3.2076,3.2076,3.2315,3.2699,3.3306,3.4129,3.4854,3.5489,3.629,3.68,0.0,0.0,0.0,3.7331,3.7121,3.703,3.7119,3.6907,3.6862,3.7015,3.68,3.6754,3.6908,3.6754,3.6693,3.6693,3.66,3.6554,3.6492,3.6492,3.6492,3.6492,3.6492,3.6723,3.7074,3.7074,3.7796,3.8892,3.8892,3.9391,4.0096,4.0096,4.0282,4.0468,4.0197,4.0282,4.0476,4.0476,4.0984,4.1593,4.1593,4.1914,4.2286,4.2286,4.2286,4.2286,4.2286,4.2366,4.2488,4.2671,4.2757,4.2903,4.3139,4.3189,4.3189,4.3189,4.2775,4.243,4.243,4.2374,4.2338,4.2268,4.1771,4.1335,4.1254,4.1105,4.1344,4.2217,4.26,4.2797,4.2797,4.3058,4.3002,4.2482,4.2538,4.26,4.26,4.2707,4.2791,4.2791,4.3403,4.3726,4.3726,4.4238,4.4501,4.4501,4.4782,4.4914,2.5467,2.5729,2.6131,2.7083,2.7448,2.7732,2.8352,2.8497,2.8713,2.9406,2.9537,2.9711,0.0,0.0,3.1463,3.1508,3.212,3.2783,3.3306,3.4257,3.5072,0.0,0.0,0.0,0.0,0.0,0.0,3.6969,0.0,3.7015,3.7015,3.6984,3.6984,3.7015,3.68,3.6693,3.6723,3.6723,3.6693,3.6693,3.6693,3.6631,3.6492,3.6492,3.6492,3.6492,3.6492,3.6492,3.6492,3.6523,3.7252,3.8306,3.8334,3.9065,4.0096,4.0146,4.0595,4.1119,4.0451,4.0663,4.1271,4.1271,4.1762,4.2354,4.2354,4.2388,4.2405,4.2405,4.2405,4.2405,4.2405,4.2431,4.2485,4.2748,4.2826,4.292,4.326,4.331,4.331,4.331,4.331,4.331,4.336,4.3008,4.2642,4.24,4.2075,4.1721,4.1396,4.0665,4.0555,4.1557,4.2333,4.2816,4.2853,4.3559,4.4005,4.4005,4.4119,4.4184,4.4199,4.4329,4.4397,4.4397,4.4473,4.4519,4.4557,4.4557,4.4576,4.4651,4.5416,4.5772,2.4991,2.5431,2.5928,2.6094,2.6579,2.7282,2.8416,2.8647,2.8951,3.0028,2.9885,2.9769,0.0,0.0,0.0,3.1433,3.2035,0.0,3.3306,3.41,0.0,0.0,0.0,3.6631,3.6631,3.6647,0.0,0.0,3.6847,3.7015,3.7015,3.6862,3.6862,3.7015,3.68,3.6754,3.6908,3.6754,3.6693,3.6693,3.66,3.6523,3.6492,3.6492,3.6492,3.6492,3.6492,3.6492,3.6523,3.6983,3.7621,3.8334,3.8794,3.9444,4.018,4.0713,4.1035,4.1255,4.161,4.1847,4.2016,4.2016,4.2523,4.3132,4.3132,4.3538,4.4022,4.4022,4.4022,4.4022,4.4022,4.4105,4.4198,4.437,4.4477,4.461,4.4785,4.4854,4.4854,4.4854,4.4854,4.4966,4.5379,4.4819,4.4442,4.4769,4.4039,4.316,4.2237,4.1548,4.1474,4.2332,4.2656,4.3039,4.3633,4.3875,4.4005,4.4005,4.402,4.4104,4.4184,4.427,4.4358,4.4397,4.4473,4.4815,4.5397,4.5397,4.5735,4.6373,4.658,4.6674,2.5158,2.5556,2.5993,2.6371,2.6634,2.7132,2.8367,2.8252,2.8121,2.9087,2.8798,0.0,0.0,0.0,0.0,0.0,0.0,0.0,3.2906,3.3858,3.4643,0.0,3.5891,0.0,3.6492,3.6554,3.6569,0.0,3.6677,3.6785,3.6785,3.6739,3.6723,3.6785,3.68,3.6908,3.7015,3.6908,3.68,3.6693,3.6631,3.6554,3.6492,3.6492,3.6492,3.6492,3.6492,3.6492,3.6523,3.6861,3.7371,3.7953,3.8574,3.9162,3.9848,4.0839,4.1407,4.1796,4.254,4.2997,4.3234,4.2895,4.3301,4.3927,4.3927,4.4231,4.4615,4.4615,4.4615,4.4615,4.4615,4.4709,4.4831,4.4951,4.5113,4.5247,4.5371,4.5397,4.5397,4.5397,4.5397,4.5502,4.5803,4.5446,4.5355,4.6117,4.5458,4.4788,4.4611,4.3391,4.2613,4.2718,4.3098,4.3373,4.3466,4.3801,4.4005,4.4005,4.4055,4.4119,4.4184,4.4621,4.4897,4.494,4.5373,4.5829,4.6279,4.6279,4.6523,4.7012,4.7368,4.7537,2.5455,2.5745,2.6115,2.7018,2.7026,2.7064,2.8125,2.7556,2.6942,2.7488,0.0,2.6698,2.6779,0.0,2.9407,2.9566,0.0,3.2315,3.2398,3.3534,3.4397,3.4489,3.5614,3.6384,3.6476,3.66,3.6631,3.6523,3.6492,3.6492,3.6492,3.66,3.6631,3.6492,3.6785,3.6938,3.6969,3.6938,3.6877,3.6693,3.6693,3.66,3.6492,3.6492,3.6492,3.6492,3.6492,3.6492,3.6523,3.6585,3.6922,3.7476,3.8067,3.875,3.9491,4.0764,4.176,4.254,4.3301,4.4012,4.4496,4.3792,4.4028,4.4615,4.4615,4.4615,4.4615,4.4615,4.4615,4.4615,4.4615,4.4709,4.4831,4.4951,4.5113,4.5247,4.5371,4.5397,4.5397,4.5397,4.5397,4.5397,4.5397,4.5397,4.5701,4.656,4.6234,4.623,4.7242,4.5537,4.3982,4.3373,4.3865,4.3979,4.3355,4.3865,4.4273,4.4339,4.4454,4.4519,4.4534,4.5305,4.5754,4.575,4.6573,4.7049,4.7162,4.7162,4.7218,4.735,4.8044,4.8363,2.4956,2.5434,2.5912,2.598,2.6404,2.6847,2.705,2.6942,0.0,0.0,0.0,2.6212,2.6698,2.7523,0.0,2.945,0.0,0.0,0.0,0.0,3.3814,0.0,0.0,0.0,0.0,0.0,0.0,0.0,0.0,3.6492,3.6492,3.6523,3.6523,3.6492,3.6554,3.6647,3.6754,3.6647,3.6616,3.6693,3.6585,3.6523,3.6492,3.6492,3.6492,3.6492,3.6492,3.6492,3.6554,3.7043,3.7298,3.7476,3.8067,3.9044,4.0221,4.105,4.2149,4.3335,4.4113,4.4496,4.4581,4.4445,4.4496,4.4615,4.4615,4.4615,4.4615,4.4615,4.4615,4.4615,4.4615,4.4709,4.4831,4.4951,4.5113,4.5247,4.5371,4.5397,4.5397,4.5397,4.5397,4.5397,4.5397,4.5397,4.5476,4.5624,4.5979,4.6458,4.7168,4.6434,4.5875,4.5862,4.5634,4.5583,4.583,4.5616,4.5655,4.605,4.6083,4.6132,4.6177,4.6383,4.6535,4.6577,4.6855,4.7331,4.7988,4.7988,4.8363,4.9077,4.9208,4.9265,2.5299,2.5612,2.5968,2.6205,2.6302,2.6416,2.6725,0.0,0.0,0.0,0.0,2.5615,2.6226,0.0,0.0,0.0,0.0,0.0,0.0,0.0,0.0,0.0,0.0,0.0,0.0,0.0,0.0,0.0,0.0,3.6492,3.6492,3.6492,3.6585,3.6739,3.6754,3.677,3.6862,3.677,3.6739,3.6693,3.6569,3.6492,3.6492,3.6569,3.6585,3.6492,3.6569,3.6569,3.6523,3.6816,3.6922,3.7014,3.7975,3.8969,4.0008,4.1394,4.254,4.3511,4.4316,4.4615,4.4615,4.4615,4.4615,4.4615,4.4615,4.4615,4.4615,4.4615,4.4615,4.4615,4.4615,4.4709,4.4803,4.4886,4.5059,4.5247,4.5371,4.5397,4.5397,4.5397,4.5397,4.5397,4.5397,4.5397,4.5485,4.5778,4.6273,4.6758,4.715,4.7382,4.7399,4.7146,4.6706,4.6433,4.6498,4.6289,4.6255,4.6494,4.6543,4.6557,4.6605,4.6861,4.7082,4.7213,4.7607,4.8084,4.8611,4.879,4.9096,4.9509,4.9509,4.9509,2.5575,2.5697,2.5819,2.6307,2.6063,2.5833,2.6321,2.5697,0.0,0.0,2.5426,2.5344,2.5805,0.0,0.0,0.0,0.0,0.0,0.0,0.0,0.0,0.0,0.0,0.0,0.0,0.0,0.0,0.0,0.0,3.632,3.6492,3.6492,3.6616,3.6877,3.6877,3.6923,3.7015,3.6969,3.6892,3.68,3.6631,3.6554,3.6554,3.6631,3.6616,3.6554,3.6662,3.6631,3.6554,3.6554,3.6523,3.6615,3.7763,3.878,3.9852,4.1579,4.2827,4.3758,4.4395,4.4615,4.4615,4.4615,4.4615,4.4615,4.4615,4.4615,4.4615,4.4626,4.4654,4.4654,4.4654,4.4737,4.4858,4.4886,4.5059,4.5247,4.5371,4.5397,4.5397,4.5397,4.5397,4.5397,4.5397,4.5397,4.5537,4.598,4.6442,4.689,4.7172,4.7862,4.8237,4.7983,4.7463,4.7114,4.7018,4.6843,4.6826,4.6997,4.7062,4.7094,4.7094,4.7468,4.7713,4.7766,4.8287,4.8656,4.8836,4.9144,4.9311,4.9313,4.9443,4.9459,2.5073,2.5086,2.51,2.5154,2.5127,2.51,2.5154,0.0,0.0,2.5073,2.5466,2.5819,2.5873,2.6897,0.0,0.0,0.0,0.0,0.0,0.0,0.0,0.0,0.0,0.0,0.0,0.0,0.0,0.0,3.5091,3.58,3.646,3.6492,3.6523,3.6554,3.6554,3.6677,3.7015,3.6831,3.6861,3.7164,3.6831,3.6693,3.6693,3.6585,3.6569,3.6693,3.6693,3.6693,3.6693,3.6693,3.66,3.6553,3.7294,3.8731,4.0488,4.1297,4.2808,4.4513,4.4581,4.4615,4.4615,4.4615,4.4615,4.4615,4.4615,4.4615,4.4643,4.4765,4.4776,4.4776,4.4776,4.4886,4.5005,4.5123,4.5177,4.5247,4.5371,4.5397,4.5397,4.5397,4.5397,4.5397,4.5397,4.5397,4.5423,4.5476,4.5978,4.6554,4.7128,4.7367,4.7844,4.8692,4.8046,4.7853,4.8598,4.7936,4.7857,4.8615,4.8686,4.8703,4.8703,4.8847,4.8745,4.8329,4.8458,4.844,4.8272,4.8549,4.8675,4.8714,4.923,4.9345,2.5005,2.5005,2.5005,2.5005,2.5005,2.5005,2.5005,0.0,0.0,2.5005,2.548,2.6009,2.6375,2.7135,2.7908,0.0,0.0,0.0,0.0,0.0,0.0,0.0,0.0,0.0,0.0,0.0,0.0,0.0,3.4581,3.496,3.5512,3.6242,3.6631,3.6631,3.6739,3.6816,3.6831,3.6862,3.6953,3.7075,3.6953,3.6862,3.6862,3.6847,3.677,3.6723,3.6831,3.677,3.6585,3.6662,3.6847,3.7169,3.7846,3.9314,4.1188,4.1855,4.3162,4.4615,4.4615,4.4615,4.4598,4.4709,4.4737,4.4709,4.4626,4.4654,4.4737,4.4776,4.4858,4.4913,4.4913,4.4951,4.5032,4.515,4.5203,4.5247,4.5371,4.5397,4.5397,4.5397,4.5397,4.5397,4.5397,4.5397,4.5397,4.5397,4.5887,4.6376,4.674,4.732,4.7919,4.8476,4.823,4.825,4.8838,4.8569,4.8532,4.8891,4.8909,4.8785,4.855,4.8307,4.8056,4.7754,4.7658,4.7643,4.7722,4.8158,4.8366,4.8365,4.8784,4.889,2.5005,2.5005,2.5005,2.5005,2.5005,2.5005,0.0,0.0,2.5059,2.5236,2.5751,2.6348,2.6942,2.7569,2.8112,2.8519,0.0,2.9219,0.0,0.0,0.0,0.0,0.0,0.0,0.0,0.0,0.0,0.0,3.4041,3.4361,3.4776,3.5832,3.6461,3.6554,3.6647,3.6739,3.6831,3.6892,3.6999,3.7151,3.7045,3.703,3.706,3.6969,3.6862,3.68,3.6938,3.6877,3.6662,3.6785,3.7126,3.7665,3.8554,3.9945,4.161,4.2539,4.3604,4.4615,4.4654,4.4626,4.4626,4.4765,4.4803,4.4776,4.4682,4.4748,4.4858,4.4858,4.4797,4.4734,4.4788,4.4563,4.4365,4.4551,4.4577,4.456,4.4725,4.4768,4.4768,4.4768,4.4768,4.4768,4.4768,4.4941,4.5079,4.5079,4.5855,4.6519,4.6671,4.7554,4.825,4.8458,4.8476,4.8587,4.8891,4.8785,4.8767,4.8891,4.8909,4.8714,4.8325,4.7975,4.7609,4.7191,4.7049,4.7031,4.7164,4.762,4.7844,4.786,4.8271,4.8477,2.5005,2.5005,2.5005,2.5005,2.5005,2.5005,0.0,0.0,2.5168,2.5765,2.6375,2.6969,2.7596,2.818,2.8587,2.8587,2.8619,0.0,0.0,0.0,0.0,0.0,0.0,0.0,0.0,0.0,0.0,0.0,3.3381,0.0,3.4562,3.5317,3.5847,3.6196,3.6085,3.6399,3.7194,3.6861,3.6968,3.748,3.7151,3.7075,3.7194,3.6831,3.68,3.7015,3.7015,3.7015,3.7015,3.715,3.7389,3.784,3.9234,4.049,4.1701,4.3234,4.4133,4.4626,4.4765,4.4709,4.4626,4.4765,4.4803,4.4803,4.4803,4.4886,4.5005,4.5005,4.4582,4.4147,4.426,4.3512,4.2792,4.3131,4.3064,4.2996,4.3182,4.3224,4.3224,4.3224,4.3224,4.3224,4.3224,4.3828,4.4311,4.4311,4.5847,4.7044,4.7194,4.8117,4.8822,4.8891,4.8891,4.8909,4.8909,4.8532,4.8476,4.8855,4.8909,4.8714,4.8325,4.8287,4.7836,4.6931,4.6908,4.6794,4.6613,4.6873,4.7004,4.7025,4.784,4.8176,2.5005,2.5005,2.5005,2.5005,2.5005,2.5005,2.5005,0.0,2.5168,2.5778,2.6389,2.6969,2.7596,2.8193,2.8587,2.8587,2.8587,0.0,0.0,0.0,0.0,0.0,0.0,0.0,0.0,0.0,0.0,3.3094,3.3325,3.3638,3.4031,3.461,3.5415,3.6383,3.6352,3.6569,3.7044,3.6969,3.7044,3.73,3.718,3.724,3.7405,3.7134,3.7074,3.715,3.715,3.7075,3.6999,3.7134,3.8006,3.931,3.9747,4.1221,4.3138,4.3723,4.4276,4.4765,4.4886,4.4913,4.4913,4.5032,4.5086,4.5086,4.5086,4.5096,4.5167,4.5264,4.5146,4.4888,4.4423,4.4044,4.3683,4.3285,4.3164,4.3122,4.3189,4.3189,4.3189,4.3189,4.3189,4.3189,4.3189,4.3396,4.3635,4.3903,4.446,4.5116,4.5924,4.6336,4.6728,4.7222,4.7256,4.7701,4.8816,4.8785,4.8767,4.8891,4.8909,4.8587,4.7856,4.7816,4.7378,4.6429,4.6405,4.6398,4.6343,4.6596,4.6829,4.702,4.7258,4.7457,0.0,2.5005,2.5005,2.5005,2.5005,0.0,0.0,0.0,2.5507,2.6117,2.6728,2.7339,2.7936,2.8343,2.8587,2.8587,2.8587,0.0,0.0,0.0,0.0,0.0,0.0,0.0,0.0,0.0,0.0,3.3269,3.3409,3.3722,3.4303,3.4643,3.5367,3.6538,3.6523,3.6708,3.7181,3.706,3.7121,3.73,3.7254,3.73,3.748,3.73,3.7194,3.7194,3.7194,3.7134,0.0,3.7523,3.8628,4.0134,4.0663,4.2104,4.391,4.4311,4.4642,4.4886,4.5032,4.5032,4.5005,4.5167,4.5203,4.522,4.5274,4.5247,4.5247,4.5371,4.519,4.482,4.4087,4.3655,4.3258,4.2516,4.2327,4.2327,4.2327,4.2327,4.2327,4.2327,4.2327,4.2327,4.2327,4.2568,4.2871,4.3314,4.3819,4.4474,4.5378,4.5681,4.5973,4.6461,4.6494,4.6903,4.7906,4.7999,4.7999,4.7999,4.8277,4.8125,4.7403,4.7511,4.7335,4.6742,4.6374,4.6295,4.6453,4.6447,4.6607,4.6842,4.6842,4.7007,0.0,0.0,0.0,0.0,0.0,0.0,0.0,0.0,0.0,2.6671,2.7298,2.7881,2.8478,2.8587,2.8587,2.8587,0.0,0.0,0.0,0.0,0.0,0.0,0.0,0.0,0.0,0.0,3.2917,3.3304,3.3667,3.4201,3.5103,3.5169,3.5655,3.6616,3.6569,3.6831,3.748,3.7181,3.7181,3.751,3.73,3.73,3.748,3.73,3.7224,3.7224,3.7224,3.7224,3.7287,3.8162,3.9223,4.0437,4.1793,4.3028,4.4197,4.4944,4.514,4.5032,4.5167,4.514,4.5059,4.515,4.5203,4.5247,4.5371,4.53,4.5247,4.5371,4.4906,4.4225,4.3465,4.2689,4.1912,4.124,4.1015,4.0998,4.105,4.1067,4.1067,4.1067,4.1067,4.105,4.0998,4.1574,4.2198,4.2594,4.376,4.4759,4.5329,4.5806,4.6172,4.6308,4.631,4.6292,4.6327,4.642,4.6494,4.6494,4.72,4.74,4.6929,4.7328,4.7521,4.7458,4.6613,4.6429,4.6908,4.6429,4.6343,4.6566,4.6613,4.6852,2.5005,0.0,2.5005,2.5005,2.5005,0.0,0.0,0.0,0.0,0.0,0.0,0.0,0.0,0.0,0.0,0.0,0.0,0.0,0.0,0.0,0.0,0.0,0.0,0.0,0.0,0.0,3.3304,3.3667,3.4059,3.4366,3.4568,3.4986,3.5479,3.6086,3.6461,3.6923,3.748,3.727,3.727,3.751,3.73,3.73,3.751,3.7435,3.7435,3.7435,3.7435,3.7435,3.7498,3.8192,3.9521,4.1193,4.2109,4.3457,4.4944,4.5247,4.5274,4.515,4.5318,4.5344,4.5318,4.5344,4.5371,4.5371,4.5397,4.53,4.5247,4.5371,4.5276,4.4975,4.4242,4.3483,4.2879,4.2706,4.2189,4.1912,4.2534,4.2654,4.2654,4.2654,4.2654,4.2465,4.1861,4.2165,4.25,4.2412,4.2972,4.3615,4.4202,4.4387,4.4503,4.4583,4.4301,4.4251,4.4565,4.5751,4.6494,4.6494,4.668,4.6567,4.6104,4.6762,4.683,4.6171,4.6177,4.6429,4.6908,4.6429,4.6221,4.6295,4.6649,4.6812,2.5005,2.5005,2.5005,2.5005,2.5005,2.5005,0.0,0.0,0.0,0.0,0.0,0.0,0.0,0.0,0.0,0.0,0.0,0.0,0.0,0.0,0.0,0.0,0.0,0.0,0.0,0.0,3.3164,3.3563,3.3908,3.4332,3.4721,3.5037,3.5415,3.5881,3.6414,3.6968,3.748,3.7405,3.7405,3.751,3.7405,3.7405,3.751,3.751,3.751,3.751,3.751,3.751,3.7589,3.8555,3.975,4.1128,4.2444,4.3759,4.4934,4.5274,4.5371,4.53,4.5371,4.5397,4.5397,4.5397,4.5397,4.5397,4.5397,4.5344,4.53,4.5371,4.5397,4.5311,4.4906,4.4276,4.3707,4.3707,4.312,4.2672,4.3103,4.3189,4.3189,4.3189,4.3189,4.3051,4.2637,4.277,4.2905,4.2864,4.3082,4.3433,4.3853,4.3929,4.3958,4.4005,4.3809,4.3761,4.3989,4.4822,4.5342,4.5342,4.5732,4.5855,4.5579,4.614,4.6215,4.5704,4.6275,4.669,4.6908,4.6863,4.6742,4.6548,4.6981,4.7111,2.5005,2.5005,2.5005,2.5005,2.5005,2.5005,0.0,0.0,0.0,0.0,0.0,0.0,0.0,0.0,0.0,0.0,0.0,0.0,0.0,0.0,0.0,0.0,0.0,0.0,3.2218,3.2503,3.2881,3.3269,3.3632,3.4167,3.5037,3.507,3.5299,3.58,3.629,3.6846,3.7375,3.745,3.751,3.751,3.751,3.751,3.751,3.751,3.751,3.751,3.751,3.751,3.7605,3.895,3.989,4.0713,4.2624,4.3823,4.4558,4.5069,4.5318,4.5397,4.5397,4.5397,4.5397,4.5397,4.5397,4.5397,4.5397,4.5397,4.5397,4.5397,4.5397,4.5432,4.5552,4.5027,4.4501,4.4621,4.4087,4.3552,4.3552,4.3552,4.3552,4.3552,4.3552,4.35,4.3379,4.3437,4.3498,4.3664,4.3811,4.3937,4.4093,4.4162,4.4153,4.4005,4.3958,4.3923,4.3986,4.3939,4.3923,4.4005,4.4692,4.5157,4.5287,4.551,4.5692,4.5817,4.6415,4.6777,4.6914,4.7262,4.7291,4.7022,4.7421,4.7506,2.5005,2.5005,2.5005,2.5005,2.5005,2.5005,0.0,0.0,0.0,0.0,0.0,0.0,0.0,0.0,0.0,0.0,0.0,0.0,0.0,0.0,0.0,0.0,0.0,0.0,3.2218,3.2503,3.2881,3.3269,3.3632,3.4011,3.4501,3.4501,3.4754,3.5299,3.5769,3.629,3.6816,3.7285,3.751,3.751,3.751,3.751,3.751,3.751,3.751,3.751,3.751,3.751,3.7605,3.895,3.989,4.0653,4.2142,4.3456,4.4502,4.4586,4.4961,4.5397,4.5397,4.5397,4.5397,4.5397,4.5397,4.5397,4.5397,4.5397,4.5397,4.5397,4.5397,4.5552,4.6224,4.5837,4.5397,4.6096,4.5648,4.5052,4.5052,4.5052,4.5052,4.5052,4.5052,4.4872,4.4242,4.4414,4.4636,4.4602,4.4963,4.5187,4.5097,4.5101,4.4822,4.4079,4.3712,4.3627,4.3955,4.3677,4.3644,4.3989,4.4135,4.4525,4.5268,4.4976,4.5276,4.6352,4.5732,4.5921,4.6976,4.6717,4.6897,4.7485,4.7569,4.7614,2.5005,2.5005,2.5005,2.5005,2.5005,2.5005,0.0,0.0,0.0,0.0,0.0,0.0,0.0,0.0,0.0,0.0,0.0,0.0,0.0,0.0,0.0,0.0,0.0,3.2218,3.2218,3.2336,3.2574,3.2952,3.3304,3.3701,3.4059,3.4264,3.4635,3.5169,3.5672,3.6149,3.6693,3.7225,3.751,3.751,3.751,3.751,3.751,3.751,3.751,3.751,3.751,3.751,3.7605,3.895,3.9674,4.0171,4.2278,4.3423,4.4026,4.4725,4.5167,4.5397,4.5397,4.5397,4.5397,4.5397,4.5397,4.5397,4.5397,4.5397,4.5397,4.5397,4.5397,4.5673,4.6862,4.6603,4.6224,4.7,4.6603,4.5914,4.5483,4.5397,4.5397,4.5397,4.5397,4.5276,4.4958,4.5289,4.5535,4.538,4.5796,4.6084,4.5879,4.5904,4.5621,4.4785,4.4529,4.4309,4.4026,4.3825,4.3793,4.3989,4.4005,4.4191,4.4581,4.4385,4.4655,4.5451,4.5293,4.559,4.6342,4.6856,4.7166,4.73,4.7756,4.7999,2.5005,2.5005,2.5005,2.5005,0.0,0.0,0.0,0.0,0.0,0.0,0.0,0.0,0.0,0.0,0.0,0.0,0.0,0.0,0.0,0.0,0.0,0.0,3.2218,3.2218,3.2218,3.2218,3.2336,3.2668,3.3058,3.3444,3.377,3.4298,3.4787,3.5201,3.5769,3.629,3.6693,3.7225,3.751,3.751,3.751,3.751,3.751,3.751,3.751,3.751,3.751,3.751,3.7605,3.895,3.9503,3.9723,4.214,4.3243,4.366,4.4917,4.5397,4.5397,4.5397,4.5397,4.5397,4.5397,4.5397,4.5397,4.5397,4.5397,4.5397,4.5397,4.5397,4.5759,4.7293,4.7286,4.7044,4.7758,4.7517,4.6845,4.588,4.5673,4.5621,4.5432,4.5397,4.5397,4.5397,4.5854,4.6176,4.6096,4.6566,4.6869,4.6625,4.6687,4.6459,4.5658,4.5565,4.5231,4.4376,4.4302,4.4228,4.4005,4.4005,4.4005,4.4005,4.4005,4.414,4.4447,4.4807,4.5307,4.5973,4.6953,4.7436,4.7463,4.8032,4.8383,2.5005,2.5005,2.5005,2.5005,2.5005,0.0,2.5005,2.5925,0.0,0.0,0.0,0.0,0.0,0.0,0.0,0.0,0.0,0.0,0.0,0.0,0.0,3.2205,3.2218,3.2218,3.2218,3.2218,3.2336,3.2668,3.3058,3.3444,3.377,3.4639,3.5169,3.5201,3.6133,3.6646,3.6693,3.7225,3.751,3.751,3.751,3.751,3.751,3.751,3.751,3.751,3.751,3.751,3.7605,3.895,3.9503,3.9645,4.1165,4.2459,4.366,4.4917,4.5397,4.5397,4.5397,4.5397,4.5397,4.5397,4.5397,4.5397,4.5397,4.5397,4.5397,4.5397,4.5397,4.5759,4.7293,4.7655,4.7793,4.8534,4.8672,4.8241,4.6837,4.6527,4.6276,4.5535,4.5397,4.5397,4.5397,4.5854,4.6352,4.6838,4.7377,4.767,4.7513,4.7507,4.7245,4.6494,4.6401,4.6085,4.5268,4.5212,4.4859,4.4061,4.4005,4.4005,4.4005,4.4005,4.4008,4.4032,4.4082,4.4862,4.6461,4.6533,4.7332,4.8764,4.8439,4.8569,2.5005,2.5005,2.5005,2.5005,2.5005,0.0,0.0,2.5925,2.6793,0.0,0.0,0.0,0.0,0.0,0.0,0.0,0.0,0.0,0.0,0.0,3.2218,3.2218,3.2218,3.2218,3.2218,3.2218,3.2241,3.2372,3.2966,3.3465,3.3885,3.4758,3.5494,3.6101,3.6492,3.6846,3.7195,3.7391,3.751,3.751,3.751,3.751,3.751,3.751,3.751,3.751,3.751,3.751,3.7605,3.895,3.9503,3.9723,4.1924,4.3333,4.4214,4.5069,4.5397,4.5397,4.5397,4.5397,4.5397,4.5397,4.5397,4.5397,4.5397,4.5397,4.5397,4.5397,4.5397,4.5759,4.7293,4.7689,4.7879,4.862,4.8792,4.8517,4.7482,4.6941,4.6527,4.6217,4.5742,4.5397,4.5397,4.5854,4.6363,4.6873,4.7467,4.7947,4.8181,4.8323,4.8113,4.733,4.6791,4.6382,4.6067,4.6048,4.59,4.5584,4.4581,4.4005,4.4005,4.4525,4.4804,4.4804,4.5305,4.5862,4.6494,4.6995,4.7553,4.8149,4.8255,4.8605,2.5005,2.5005,2.5005,0.0,0.0,0.0,2.5236,2.6077,2.6793,0.0,0.0,0.0,0.0,0.0,0.0,0.0,0.0,0.0,0.0,3.2218,3.2218,3.2218,3.2218,3.2218,3.2218,3.2218,3.2218,3.2218,3.2895,3.343,3.3768,3.4828,3.5752,3.6414,3.6785,3.7135,3.751,3.751,3.751,3.751,3.751,3.751,3.751,3.751,3.751,3.751,3.751,3.751,3.7605,3.8713,3.9455,4.0087,4.2526,4.3794,4.4271,4.5096,4.5397,4.5397,4.5397,4.5397,4.5397,4.5397,4.5397,4.5397,4.5397,4.5397,4.5397,4.5397,4.5397,4.569,4.7,4.7545,4.7879,4.862,4.8982,4.8965,4.8206,4.7638,4.7165,4.67,4.6155,4.569,4.5432,4.5963,4.6537,4.6873,4.7593,4.8231,4.8624,4.8767,4.867,4.8147,4.759,4.7144,4.6903,4.6884,4.6773,4.6513,4.5417,4.4785,4.4785,4.5361,4.5677,4.5677,4.6215,4.664,4.6915,4.7456,4.7882,4.8176,4.8455,4.8933,2.5005,2.5005,0.0,0.0,0.0,0.0,0.0,2.6375,0.0,0.0,0.0,0.0,0.0,0.0,0.0,0.0,0.0,0.0,3.2137,3.2218,3.2218,3.2218,3.2218,3.2218,3.2218,3.2218,3.2205,3.2205,3.2895,3.3304,3.3304,3.496,3.5913,3.5913,3.6952,3.751,3.751,3.751,3.751,3.751,3.751,3.751,3.751,3.751,3.751,3.751,3.751,3.751,3.7557,3.8239,3.9345,4.0785,4.2722,4.3512,4.366,4.4917,4.5397,4.5397,4.5397,4.5397,4.5397,4.5397,4.5397,4.5397,4.5397,4.5397,4.5397,4.5397,4.5397,4.5569,4.6389,4.7148,4.7862,4.862,4.9396,4.9786,4.8965,4.881,4.8361,4.6879,4.6631,4.6372,4.5552,4.6242,4.6936,4.6999,4.7838,4.8587,4.8769,4.8787,4.884,4.8891,4.8909,4.8574,4.7776,4.7701,4.7367,4.6568,4.6513,4.6513,4.6494,4.6513,4.6513,4.6513,4.6513,4.6952,4.78,4.78,4.8294,4.9214,4.9214,4.9643,2.5005,2.5005,0.0,0.0,0.0,0.0,0.0,0.0,0.0,0.0,0.0,0.0,0.0,0.0,0.0,3.1816,3.1911,3.2015,3.2191,3.2218,3.2218,3.2218,3.2218,3.2218,3.2218,3.2408,3.2538,3.2538,3.3234,3.3825,3.4192,3.5287,3.6086,3.6445,3.7119,3.751,3.751,3.751,3.751,3.751,3.751,3.751,3.751,3.751,3.751,3.751,3.751,3.751,3.7605,3.8728,3.9756,4.0785,4.2722,4.3512,4.366,4.4917,4.5397,4.5397,4.5397,4.5397,4.5397,4.5397,4.5397,4.5397,4.5397,4.5397,4.5397,4.5397,4.5397,4.5449,4.569,4.6328,4.7251,4.8499,4.9396,4.9942,4.9717,4.9189,4.8654,4.8224,4.7724,4.7148,4.6362,4.6784,4.7139,4.7022,4.7617,4.8269,4.8785,4.8874,4.8874,4.8909,4.8909,4.8797,4.8556,4.8537,4.8444,4.8203,4.8184,4.7683,4.655,4.7033,4.7348,4.7348,4.7906,4.8331,4.8571,4.8677,4.8857,4.9116,4.9181,4.9695,2.5005,0.0,0.0,0.0,0.0,0.0,0.0,0.0,0.0,0.0,0.0,0.0,0.0,0.0,0.0,3.2151,3.2218,3.2218,3.2218,3.2218,3.2218,3.2218,3.2314,3.2408,3.2408,3.2717,3.2952,3.2952,3.3479,3.3928,3.424,3.5139,3.5864,3.6352,3.6892,3.7285,3.751,3.751,3.751,3.751,3.751,3.751,3.751,3.751,3.751,3.751,3.751,3.751,3.7589,3.8649,3.9518,4.0341,4.2327,4.3264,4.366,4.4917,4.5397,4.5397,4.5397,4.5397,4.5397,4.5397,4.5397,4.5397,4.5397,4.5397,4.5397,4.5397,4.5397,4.5397,4.5397,4.5983,4.6906,4.8068,4.8947,4.9631,4.9942,4.9631,4.9172,4.8844,4.843,4.7896,4.7155,4.7604,4.7919,4.7572,4.7963,4.844,4.8838,4.8909,4.8909,4.8909,4.8909,4.8909,4.8909,4.8909,4.8909,4.8909,4.8909,4.8463,4.7497,4.7924,4.8184,4.8184,4.8649,4.8926,4.8979,4.9049,4.9135,4.9183,4.9585,5.023,0.0,0.0,0.0,0.0,0.0,0.0,0.0,0.0,0.0,0.0,0.0,0.0,0.0,0.0,3.2218,3.2218,3.2218,3.2218,3.2218,3.2218,3.2255,3.2255,3.2538,3.2739,3.2739,3.3094,3.3339,3.3339,3.3667,3.3839,3.3839,3.4706,3.5397,3.5817,3.6383,3.6938,3.7421,3.748,3.751,3.751,3.751,3.751,3.751,3.751,3.751,3.751,3.751,3.751,3.7557,3.8223,3.8902,3.9691,4.1701,4.2895,4.366,4.4917,4.5397,4.5397,4.5397,4.5397,4.5397,4.5397,4.5397,4.5397,4.5397,4.5397,4.5397,4.5397,4.5397,4.5397,4.5397,4.5931,4.67,4.7414,4.8206,4.8999,4.9735,4.9959,4.9786,4.9034,4.8896,4.8654,4.7913,4.8607,4.9055,4.8556,4.8815,4.9042,4.902,4.902,4.8983,4.8909,4.8909,4.8909,4.8909,4.8909,4.8909,4.8909,4.8909,4.8909,4.8909,4.8909,4.8909,4.8909,4.8909,4.8962,4.9084,4.9084,4.9204,4.9423,5.0209,5.1101,0.0,0.0,0.0,0.0,0.0,0.0,0.0,0.0,0.0,0.0,0.0,0.0,0.0,3.1382,3.2218,3.2218,3.2218,3.2218,3.2218,3.2444,3.2596,3.2596,3.2917,3.3164,3.3164,3.3479,3.3701,3.3701,3.4059,3.4264,3.4264,3.4854,3.5267,3.5365,3.6227,3.6754,3.6877,3.7285,3.751,3.751,3.751,3.751,3.751,3.751,3.751,3.751,3.751,3.751,3.7557,3.8223,3.8902,3.9691,4.1701,4.2895,4.366,4.4917,4.5397,4.5397,4.5397,4.5397,4.5397,4.5397,4.5397,4.5397,4.5397,4.5397,4.5397,4.5397,4.5397,4.5397,4.5397,4.5518,4.5845,4.6665,4.7827,4.8844,4.9016,4.9562,4.9959,4.9786,4.9752,4.9493,4.8689,4.9079,4.9593,4.9822,5.0092,5.0155,4.9951,4.9875,4.9596,4.8964,4.8909,4.8909,4.8909,4.8909,4.8909,4.8909,4.8909,4.8909,4.8909,4.8909,4.8909,4.8909,4.8909,4.8909,4.8943,4.9049,4.9435,5.0084,5.0441,5.1368,0.0,0.0,0.0,0.0,0.0,0.0,0.0,0.0,0.0,0.0,0.0,0.0,0.0,3.1382,3.2218,3.2218,3.2218,3.2241,3.2408,3.2596,3.2775,3.2952,3.3304,3.3563,3.3563,3.3874,3.4094,3.4094,3.4264,3.4414,3.4414,3.4668,3.4953,3.5201,3.5943,3.6445,3.6693,3.7225,3.751,3.751,3.751,3.751,3.751,3.751,3.751,3.751,3.751,3.751,3.7541,3.7875,3.8412,3.9215,4.1193,4.2394,4.3207,4.4807,4.5397,4.5397,4.5397,4.5397,4.5397,4.5397,4.5397,4.5397,4.5397,4.5397,4.5397,4.5397,4.5397,4.5397,4.5397,4.5397,4.55,4.5914,4.6896,4.7931,4.8637,4.912,4.9545,4.9942,5.0011,4.9873,4.9459,4.9775,5.0318,5.0878,5.0991,5.0934,5.0804,5.0748,5.0395,4.9559,4.9466,4.9317,4.8927,4.8909,4.8909,4.8909,4.8909,4.8909,4.8909,4.8909,4.8909,4.8909,4.8909,4.8909,4.8909,4.9352,4.9832,5.0331,5.1269,5.2177,0.0,0.0,0.0,0.0,0.0,0.0,0.0,0.0,0.0,0.0,0.0,0.0,3.0405,3.1382,3.2218,3.2277,3.2241,3.235,3.2739,3.281,3.2952,3.3339,3.3701,3.3908,3.3908,3.4196,3.4414,3.4414,3.4414,3.4414,3.4414,3.4414,3.4601,3.5037,3.5608,3.6117,3.6554,3.7195,3.751,3.751,3.751,3.751,3.751,3.751,3.751,3.751,3.751,3.751,3.751,3.751,3.7891,3.8692,4.0619,4.1858,4.2748,4.467,4.5397,4.5397,4.5397,4.5397,4.5397,4.5397,4.5397,4.5397,4.5397,4.5397,4.5397,4.5397,4.5397,4.5397,4.5397,4.5397,4.5397,4.5397,4.5897,4.6793,4.8275,4.8706,4.9034,4.9855,5.0022,5.0051,5.0132,5.0522,5.1068,5.1813,5.1794,5.1677,5.1621,5.1602,5.1286,5.0432,5.032,5.006,4.9392,4.9336,4.9336,4.9336,4.9336,4.9336,4.9336,4.9336,4.9336,4.9336,4.9187,4.9113,4.9113,4.993,5.0449,5.0724,5.2189,5.2968,0.0,0.0,0.0,0.0,0.0,0.0,0.0,0.0,0.0,0.0,0.0,0.0,3.0405,3.1382,3.2314,3.2574,3.2372,3.2458,3.3129,3.3234,3.3339,3.3701,3.4094,3.4312,3.4312,3.438,3.4414,3.4414,3.4414,3.4414,3.4414,3.4414,3.4448,3.4501,3.5415,3.5944,3.6023,3.6998,3.751,3.751,3.751,3.751,3.751,3.751,3.751,3.751,3.751,3.751,3.751,3.751,3.7891,3.8692,4.0619,4.1858,4.2748,4.467,4.5397,4.5397,4.5397,4.5397,4.5397,4.5397,4.5397,4.5397,4.5397,4.5397,4.5397,4.5397,4.5397,4.5397,4.5397,4.5397,4.5397,4.5397,4.5483,4.5983,4.7517,4.8344,4.9034,4.9855,5.0092,5.0296,5.0706,5.1068,5.1627,5.2612,5.2818,5.2771,5.2494,5.2438,5.2122,5.1305,5.1231,5.1175,5.1082,5.1063,5.1063,5.1063,5.1063,5.1063,5.1063,5.1063,5.1063,5.1063,5.032,4.9949,4.9949,5.0822,5.1584,5.2308,5.2585,5.316,0.0,0.0,0.0,0.0,0.0,0.0,0.0,0.0,0.0,0.0,0.0,3.0288,3.063,3.1384,3.2225,3.2932,3.2704,3.2753,3.3493,3.3409,3.3514,3.4059,3.4312,3.4414,3.4414,3.4414,3.4414,3.4414,3.4414,3.4414,3.4414,3.4414,3.4414,3.4414,3.5136,3.5625,3.5913,3.6677,3.7195,3.751,3.751,3.751,3.751,3.751,3.751,3.751,3.751,3.751,3.751,3.751,3.7654,3.8106,3.9686,4.0934,4.2076,4.3681,4.4746,4.5397,4.5397,4.5397,4.5397,4.5397,4.5397,4.5397,4.5397,4.5397,4.5397,4.5397,4.5397,4.5397,4.5397,4.5397,4.5397,4.5397,4.5397,4.5707,4.6828,4.7655,4.859,4.9867,5.016,5.0296,5.0686,5.132,5.1964,5.2477,5.3081,5.3432,5.3292,5.3274,5.2958,5.2159,5.2067,5.1881,5.1435,5.1398,5.1398,5.1398,5.1398,5.1398,5.1398,5.1398,5.1398,5.1398,5.1026,5.0822,5.0822,5.1676,5.2252,5.2605,5.3218,5.37,0.0,0.0,0.0,0.0,0.0,0.0,0.0,0.0,0.0,0.0,0.0,3.0118,3.0815,3.136,3.204,3.3036,3.2856,3.2912,3.3811,3.3667,3.3667,3.4312,3.4414,3.4414,3.4414,3.4414,3.4414,3.4414,3.4414,3.4414,3.4414,3.4414,3.4414,3.4414,3.5037,3.5544,3.5913,3.6569,3.7089,3.751,3.751,3.751,3.751,3.751,3.751,3.751,3.751,3.751,3.751,3.751,3.751,3.7632,3.8898,4.0214,4.1549,4.2911,4.4251,4.5397,4.5397,4.5397,4.5397,4.5397,4.5397,4.5397,4.5397,4.5397,4.5397,4.5397,4.5397,4.5397,4.5397,4.5397,4.5397,4.5397,4.5397,4.5673,4.6682,4.7448,4.8418,4.9901,5.0246,5.0369,5.0749,5.1447,5.2089,5.2454,5.3143,5.3678,5.3775,5.3813,5.3571,5.2977,5.2902,5.2661,5.2067,5.2011,5.2011,5.2011,5.2011,5.2011,5.2011,5.2011,5.2029,5.2066,5.2066,5.1955,5.1732,5.2549,5.2958,5.2995,5.3757,5.4109,0.0,0.0,0.0,0.0,0.0,0.0,0.0,0.0,0.0,0.0,0.0,2.989,3.0831,3.1213,3.1763,3.2753,3.2568,3.2814,3.4192,3.4025,3.3908,3.4346,3.4414,3.4414,3.4414,3.4414,3.4414,3.4414,3.4414,3.4414,3.4414,3.4414,3.4414,3.4414,3.535,3.5881,3.5913,3.6922,3.748,3.751,3.751,3.751,3.751,3.751,3.751,3.751,3.751,3.751,3.751,3.751,3.751,3.7632,3.8898,4.0214,4.1549,4.2911,4.4251,4.5397,4.5397,4.5397,4.5397,4.5397,4.5397,4.5397,4.5397,4.5397,4.5397,4.5397,4.5397,4.5397,4.5397,4.5397,4.5397,4.5397,4.5397,4.5811,4.731,4.8206,4.9022,5.0004,5.0285,5.0602,5.1244,5.15,5.1952,5.2907,5.3117,5.3302,5.3737,5.3813,5.3775,5.3738,5.3738,5.372,5.3683,5.3683,5.3683,5.3683,5.3683,5.3683,5.3683,5.3683,5.372,5.387,5.3851,5.346,5.2641,5.3497,5.3963,5.4016,5.4072,5.4163,0.0,0.0,0.0,0.0,0.0,0.0,0.0,0.0,0.0,0.0,0.0,3.0076,3.0659,3.0957,3.1457,3.2472,3.2297,3.2302,3.3053,3.3197,3.3374,3.3771,3.4167,3.4414,3.4414,3.4414,3.4414,3.4414,3.4414,3.4414,3.4414,3.4414,3.4568,3.492,3.5267,3.5769,3.6414,3.7119,3.751,3.751,3.751,3.751,3.751,3.751,3.751,3.751,3.751,3.751,3.751,3.751,3.751,3.7555,3.7998,3.9206,4.0812,4.1749,4.3223,4.4751,4.5225,4.5397,4.5397,4.5397,4.5397,4.5397,4.5397,4.5397,4.5397,4.5397,4.5397,4.5397,4.5397,4.5397,4.5397,4.5397,4.5476,4.5805,4.6877,4.7634,4.8532,5.0031,5.0359,5.0537,5.0999,5.1383,5.1831,5.2477,5.2889,5.3263,5.3737,5.3813,5.3813,5.3813,5.3813,5.3813,5.3813,5.3813,5.3813,5.3813,5.3813,5.3813,5.3813,5.3813,5.3832,5.387,5.3963,5.387,5.3607,5.3924,5.4091,5.4109,5.42,5.4254,0.0,0.0,0.0,0.0,0.0,0.0,0.0,0.0,0.0,0.0,3.0264,3.0355,3.0552,3.0764,3.1147,3.2014,3.1928,3.1936,3.242,3.2648,3.2875,3.3151,3.3529,3.3775,3.3775,3.3978,3.4095,3.4095,3.4298,3.4481,3.4668,3.4668,3.4986,3.5688,3.5688,3.6101,3.6968,3.7315,3.751,3.751,3.751,3.751,3.751,3.751,3.751,3.751,3.751,3.751,3.751,3.751,3.751,3.751,3.751,3.8505,4.011,4.1061,4.2503,4.4147,4.5069,4.5397,4.5397,4.5397,4.5397,4.5397,4.5397,4.5397,4.5397,4.5397,4.5397,4.5397,4.5397,4.5423,4.5476,4.5476,4.5581,4.5892,4.669,4.7373,4.8283,4.9816,5.0279,5.0582,5.0846,5.1158,5.1518,5.1988,5.2499,5.2996,5.3484,5.3698,5.3813,5.3813,5.3813,5.3813,5.3813,5.3813,5.3813,5.3813,5.3813,5.3813,5.3813,5.3813,5.3832,5.387,5.3944,5.4055,5.4163,5.4163,5.4181,5.4198,5.4288,5.4342,0.0,0.0,0.0,0.0,0.0,0.0,0.0,0.0,0.0,0.0,3.0598,3.0598,3.0598,3.0598,3.0801,3.1395,3.1451,3.1683,3.2367,3.2452,3.2452,3.2452,3.2481,3.2481,3.2481,3.3111,3.3507,3.3507,3.4041,3.461,3.5172,3.5219,3.5688,3.6662,3.6723,3.6968,3.748,3.751,3.751,3.751,3.751,3.751,3.751,3.751,3.751,3.751,3.751,3.751,3.751,3.751,3.751,3.751,3.751,3.8272,3.9523,4.0904,4.2222,4.3556,4.4946,4.5397,4.5397,4.5397,4.5397,4.5397,4.5397,4.5397,4.5397,4.5397,4.5397,4.5397,4.5397,4.5502,4.5607,4.5589,4.5693,4.6021,4.6786,4.7578,4.838,4.9317,5.0095,5.0657,5.0863,5.0891,5.1043,5.1518,5.1988,5.2477,5.3036,5.3502,5.3775,5.3813,5.3813,5.3813,5.3813,5.3813,5.3813,5.3813,5.3813,5.3813,5.3813,5.3794,5.387,5.4,5.4019,5.4111,5.4308,5.4308,5.4342,5.4409,5.4409,5.4409,3.0111,0.0,0.0,0.0,0.0,0.0,0.0,0.0,0.0,0.0,3.0401,3.031,3.0552,3.0598,3.0656,3.083,3.0843,3.0901,3.1121,3.1496,3.177,3.177,3.2191,3.2481,3.2481,3.2976,3.3286,0.0,3.3731,3.4311,3.495,3.5795,3.643,3.6693,3.7075,3.7345,3.751,3.751,3.751,3.751,3.751,3.751,3.751,3.751,3.751,3.751,3.751,3.751,3.751,3.751,3.751,3.751,3.751,3.794,3.8829,4.0722,4.1904,4.2877,4.4757,4.5397,4.5397,4.5397,4.5397,4.5397,4.5397,4.5397,4.5397,4.5397,4.5397,4.5423,4.5528,4.5581,4.5615,4.5718,4.5846,4.6017,4.6226,4.7386,4.8592,4.9361,5.0095,5.0657,5.0863,5.0891,5.1043,5.1518,5.1708,5.2101,5.2993,5.3201,5.3424,5.3756,5.3813,5.3813,5.3813,5.3813,5.3813,5.3813,5.3813,5.3813,5.3813,5.3888,5.3963,5.4,5.4147,5.4236,5.4308,5.4308,5.4342,5.4409,5.4409,5.4409,0.0,0.0,0.0,0.0,0.0,0.0,3.0294,3.031,3.0371,0.0,3.0431,3.0371,3.0568,3.0598,3.0598,3.0598,3.0598,3.0598,3.0598,3.0887,3.1119,3.1119,3.1652,3.1978,3.1978,3.2659,3.3066,3.3066,3.3593,3.4288,3.5187,3.6103,3.6702,3.7029,3.7345,3.751,3.751,3.751,3.751,3.751,3.751,3.751,3.751,3.751,3.751,3.751,3.751,3.751,3.751,3.751,3.751,3.751,3.751,3.7685,3.8171,3.9915,4.1144,4.2139,4.3591,4.4688,4.5345,4.5044,4.5139,4.5397,4.5397,4.5397,4.5397,4.5397,4.5397,4.5423,4.5502,4.5607,4.5693,4.577,4.5947,4.6073,4.6073,4.7356,4.8609,4.9048,4.9984,5.0774,5.0891,5.0891,5.1008,5.1271,5.1467,5.1879,5.2674,5.2953,5.3263,5.3737,5.3813,5.3813,5.3813,5.3813,5.3832,5.387,5.387,5.3888,5.3926,5.4,5.4037,5.4037,5.4164,5.4235,5.4308,5.4324,5.4357,5.4409,5.4409,5.4409,0.0,0.0,0.0,0.0,0.0,0.0,3.0522,3.0568,3.0552,3.0598,3.0582,3.0552,3.0598,3.0598,3.0598,3.0598,3.0598,3.0598,3.0598,3.0598,3.0598,3.0598,3.1014,3.1307,3.1307,3.2251,3.2874,3.2874,3.3557,3.4406,3.5497,3.6095,3.6706,3.7368,3.7462,3.751,3.751,3.751,3.751,3.751,3.751,3.751,3.751,3.751,3.751,3.751,3.751,3.751,3.751,3.751,3.751,3.751,3.751,3.751,3.7632,3.8914,4.0258,4.1494,4.2102,4.3653,4.5276,4.4552,4.4803,4.5397,4.5397,4.5397,4.5397,4.5397,4.5397,4.5397,4.5423,4.5607,4.5787,4.5838,4.5998,4.6172,4.6214,4.7407,4.8538,4.8591,4.9837,5.0891,5.0891,5.0891,5.0891,5.0891,5.1263,5.1683,5.2159,5.2652,5.3138,5.3678,5.3717,5.3737,5.3813,5.3813,5.3851,5.3963,5.3982,5.4019,5.4073,5.4091,5.4109,5.4109,5.4127,5.4181,5.4307,5.4375,5.4409,5.4409,5.4409,5.4409,0.0,0.0,0.0,0.0,0.0,0.0,3.0582,3.0401,3.0249,0.0,3.0371,3.028,3.0552,3.0598,3.0598,3.0598,3.0598,3.0598,3.0598,3.0598,3.0598,3.0598,3.1014,3.1307,3.1307,3.2114,3.265,3.265,3.3618,3.4337,3.4561,3.5733,3.6456,3.6598,3.718,3.751,3.751,3.751,3.751,3.751,3.751,3.751,3.751,3.751,3.751,3.751,3.751,3.751,3.751,3.751,3.751,3.751,3.751,3.751,3.7632,3.8914,4.0258,4.1494,4.2102,4.3653,4.5276,4.4552,4.4803,4.5397,4.5397,4.5397,4.5397,4.5397,4.5397,4.5423,4.5528,4.5607,4.5693,4.5897,4.5998,4.6073,4.6172,4.7442,4.8573,4.8538,4.982,5.0891,5.0891,5.0891,5.0891,5.0891,5.0981,5.1211,5.1676,5.1831,5.2237,5.3138,5.3242,5.3383,5.3756,5.3813,5.3813,5.3832,5.3832,5.3888,5.4019,5.4073,5.4146,5.4254,5.4323,5.4339,5.4375,5.4373,5.4409,5.4409,5.4409,5.4409,0.0,0.0,0.0,3.0552,0.0,0.0,0.0,3.0462,3.0401,3.0582,3.0462,3.0401,3.0582,3.0598,3.0598,3.0598,3.0598,3.0598,3.0598,3.0807,3.1014,3.1219,3.1652,3.1936,3.1936,3.2563,3.2942,3.2942,3.3486,3.3941,3.4273,3.4968,3.5651,3.6377,3.6769,3.7117,3.751,3.751,3.751,3.751,3.751,3.751,3.751,3.751,3.751,3.751,3.751,3.751,3.751,3.751,3.751,3.751,3.751,3.751,3.7571,3.8227,3.9509,4.0902,4.047,4.2095,4.4234,4.3535,4.4009,4.4923,4.5276,4.5397,4.5397,4.5397,4.5397,4.5423,4.5476,4.5554,4.5641,4.5846,4.5947,4.6023,4.6172,4.7425,4.8556,4.8495,4.9802,5.0891,5.0891,5.0891,5.0891,5.0891,5.0891,5.107,5.1543,5.1601,5.1879,5.263,5.2696,5.2806,5.302,5.3304,5.3464,5.3505,5.3737,5.3945,5.4037,5.4146,5.4253,5.4359,5.4375,5.4409,5.4409,5.4409,5.4409,5.4409,5.4409,5.4409,0.0,0.0,0.0,0.0,0.0,3.0264,0.0,0.0,0.0,3.0598,3.0598,0.0,0.0,0.0,0.0,0.0,0.0,0.0,0.0,3.1057,0.0,3.1623,3.2201,3.2559,3.2477,3.2888,3.3214,3.3309,3.3214,3.345,3.4067,3.4225,3.4889,3.6156,3.6329,3.6769,3.7494,3.751,3.751,3.751,3.751,3.751,3.751,3.751,3.751,3.751,3.751,3.751,3.751,3.751,3.751,3.751,3.751,3.751,3.751,3.751,3.8768,4.0296,3.8809,4.0497,4.3172,4.2347,4.3082,4.4449,4.5173,4.5397,4.5397,4.5397,4.5397,4.5397,4.5397,4.5476,4.5607,4.5718,4.5871,4.5998,4.6122,4.7382,4.8495,4.8495,4.9802,5.0891,5.0891,5.0891,5.0891,5.0891,5.0891,5.1034,5.1408,5.1485,5.1633,5.2131,5.2159,5.2206,5.2281,5.2784,5.312,5.3187,5.3661,5.4,5.4091,5.4236,5.4324,5.4409,5.4409,5.4409,5.4409,5.4409,5.4409,5.4409,5.4409,5.4409,0.0,0.0,0.0,0.0,3.0568,0.0,0.0,0.0,3.0598,3.0598,0.0,0.0,0.0,0.0,0.0,0.0,0.0,0.0,3.0925,3.1164,3.1161,3.0807,3.1836,3.2437,3.202,3.2394,3.2861,3.3282,3.2915,3.2893,3.3377,3.3972,3.4668,3.5489,3.6105,3.6769,3.7494,3.751,3.751,3.751,3.751,3.751,3.751,3.751,3.751,3.751,3.751,3.751,3.751,3.751,3.751,3.751,3.751,3.751,3.751,3.751,3.8768,4.0296,3.8809,4.0497,4.3088,4.1771,4.2672,4.4449,4.5173,4.5397,4.5397,4.5397,4.5397,4.5397,4.5397,4.5397,4.545,4.5607,4.5736,4.5846,4.5998,4.7331,4.8495,4.8495,4.9802,5.0891,5.0891,5.0891,5.0891,5.0891,5.0891,5.0918,5.0981,5.0981,5.1158,5.1626,5.1676,5.1837,5.2258,5.2784,5.3099,5.3099,5.3562,5.387,5.4,5.4201,5.4324,5.4409,5.4409,5.4409,5.4409,5.4409,5.4409,5.4409,5.4409,5.4409,0.0,0.0,0.0,0.0,0.0,0.0,3.0477,0.0,3.0598,0.0,0.0,0.0,0.0,0.0,0.0,0.0,3.0423,0.0,0.0,0.0,3.1781,0.0,0.0,0.0,3.2299,3.2477,3.2792,3.3266,3.2861,3.2792,3.3266,3.3577,3.4036,3.4731,3.5458,3.6169,3.6864,3.7304,3.751,3.751,3.751,3.751,3.751,3.751,3.751,3.751,3.751,3.751,3.751,3.751,3.751,3.751,3.751,3.751,3.751,3.751,3.8261,3.9186,3.8195,3.9438,4.1613,4.215,4.3237,4.4449,4.5173,4.545,4.5502,4.5423,4.5502,4.5615,4.5528,4.5563,4.5684,4.5795,4.5871,4.5947,4.6073,4.7399,4.8556,4.8495,4.9802,5.0891,5.0891,5.0891,5.0891,5.0891,5.0891,5.0891,5.0891,5.0891,5.0981,5.1158,5.1211,5.1383,5.1861,5.234,5.2762,5.3078,5.3601,5.4,5.4165,5.4273,5.4324,5.4409,5.4409,5.4409,5.4409,5.4409,5.4409,5.4409,5.4409,5.4409,2.9532,0.0,0.0,0.0,0.0,0.0,0.0,0.0,0.0,0.0,0.0,0.0,0.0,0.0,0.0,0.0,0.0,3.0629,0.0,3.1038,0.0,0.0,0.0,0.0,0.0,3.2384,3.2602,3.3065,3.2656,3.2656,3.3282,3.3309,3.3609,3.4273,3.5015,3.5726,3.6393,3.7133,3.751,3.751,3.751,3.751,3.751,3.751,3.751,3.751,3.751,3.751,3.751,3.751,3.751,3.751,3.751,3.751,3.751,3.751,3.7923,3.8412,3.7717,3.8553,4.0247,4.2236,4.3379,4.4138,4.4872,4.5303,4.5528,4.5476,4.5607,4.5718,4.5667,4.5736,4.5821,4.5922,4.5972,4.6093,4.6403,4.76,4.8626,4.8802,4.9943,5.0891,5.0891,5.0891,5.0891,5.0891,5.0891,5.0891,5.0891,5.0891,5.0891,5.0891,5.1034,5.1245,5.1583,5.2183,5.2769,5.3326,5.3794,5.411,5.429,5.4308,5.4324,5.4409,5.4409,5.4409,5.4409,5.4409,5.4409,5.4409,5.4409,5.4409,0.0,0.0,0.0,3.0387,0.0,0.0,0.0,0.0,3.0598,0.0,0.0,0.0,0.0,0.0,0.0,0.0,0.0,0.0,0.0,0.0,0.0,0.0,0.0,0.0,0.0,3.1821,3.2132,3.2602,3.2188,3.2327,3.324,3.3309,3.3609,3.4273,3.5015,3.5726,3.6393,3.7133,3.751,3.751,3.751,3.751,3.751,3.751,3.751,3.751,3.751,3.751,3.751,3.751,3.751,3.751,3.751,3.751,3.751,3.751,3.7923,3.8412,3.7717,3.8246,3.9541,4.1431,4.2585,4.3362,4.4121,4.4837,4.5423,4.5554,4.5607,4.5632,4.5744,4.5812,4.5795,4.5812,4.5897,4.6207,4.7009,4.7856,4.8749,4.9504,5.0311,5.0891,5.0891,5.0891,5.0891,5.0891,5.0891,5.0891,5.0891,5.0891,5.0891,5.0891,5.1323,5.1608,5.1685,5.2601,5.343,5.4018,5.4091,5.4163,5.4289,5.4308,5.4324,5.4409,5.4409,5.4409,5.4409,5.4409,5.4409,5.4409,5.4409,5.4409,2.7914,2.7808,2.7861,2.9376,2.9314,0.0,0.0,0.0,0.0,0.0,0.0,0.0,0.0,0.0,0.0,0.0,0.0,0.0,0.0,0.0,0.0,0.0,0.0,0.0,0.0,0.0,3.179,3.1993,3.2218,3.2629,3.3282,3.3309,3.3403,3.3625,3.4778,3.5505,3.5742,3.6896,3.751,3.751,3.751,3.751,3.751,3.751,3.751,3.751,3.751,3.751,3.751,3.751,3.751,3.751,3.751,3.751,3.751,3.751,3.7652,3.7856,3.7995,3.8282,3.8936,4.0848,4.1648,4.2185,4.3812,4.4535,4.4897,4.5321,4.5607,4.5718,4.5667,4.5795,4.5922,4.5922,4.6023,4.6332,4.7171,4.7969,4.8749,4.9521,5.0356,5.0891,5.0891,5.0891,5.0891,5.0891,5.0891,5.0891,5.0891,5.0891,5.0891,5.0891,5.1043,5.1391,5.2047,5.3104,5.387,5.42,5.4218,5.4271,5.4357,5.4357,5.4375,5.4409,5.4409,5.4409,5.4409,5.4409,5.4409,5.4409,5.4409,5.4409,2.7665,2.734,2.7241,2.8766,2.868,2.8648,3.0113,3.0431,3.0431,0.0,0.0,0.0,0.0,0.0,0.0,0.0,0.0,0.0,0.0,3.0128,0.0,0.0,0.0,0.0,0.0,3.0777,3.1413,3.1962,3.2152,3.2558,3.3266,3.3309,3.3309,3.3309,3.4668,3.5394,3.5394,3.6814,3.751,3.751,3.751,3.751,3.751,3.751,3.751,3.751,3.751,3.751,3.751,3.751,3.751,3.751,3.751,3.751,3.751,3.751,3.751,3.7583,3.8112,3.8306,3.8567,4.0225,4.0959,4.1494,4.3038,4.3913,4.4473,4.4638,4.5191,4.5666,4.5363,4.5655,4.5998,4.5998,4.6097,4.6495,4.7573,4.817,4.8837,4.9908,5.0566,5.0891,5.0891,5.0891,5.0891,5.0891,5.0891,5.0891,5.0891,5.0891,5.0891,5.0891,5.1043,5.1493,5.2299,5.3146,5.3738,5.4,5.411,5.4217,5.439,5.4409,5.4409,5.4409,5.4409,5.4409,5.4409,5.4409,5.4409,5.4409,5.4409,5.4409]}]]